[[{"header":{"parameterUnit":"m.s-1","parameterCategory":1,"la1":30.6,"la2":29.2853,"lo1":-89.7004,"lo2":-87.6739,"dx":0.0162,"dy":0.0183,"nx":112,"ny":82,"refTime":"2022-11-07T18:00:00:Z","depth":0,"parameterNumber":2,"parameterNumberName":"U-component_of_WINDS"},"data":[0.0,0.0,0.0,0.0,0.0,0.0,0.0,0.0,0.0,0.0,0.0,0.0,0.0,0.0,0.0,0.0,0.0,0.0,0.0,0.0,0.0,0.0,0.0,0.0,0.0,0.0,0.0,0.0,0.0,0.0,0.0,0.0,0.0,0.0,0.0,0.0,0.0,0.0,0.0,0.0,0.0,0.0,0.0,0.0,0.0,0.0,0.0,0.0,0.0,0.0,0.0,0.0,0.0,0.0,0.0,0.0,0.0,0.0,0.0,0.0,0.0,0.0,0.0,0.0,0.0,0.0,0.0,0.0,0.0,0.0,0.0,0.0,0.0,0.0,0.0,0.0,0.0,0.0,0.0,0.0,0.0,0.0,0.0,0.0,0.0,0.0,0.0,0.0,0.0,0.0,2.3456,2.4601,2.5598,2.6054,2.5814,2.4539,2.2769,2.0429,0.0,0.0,0.0,0.0,0.0,0.0,0.0,0.0,0.0,0.0,0.0,0.0,0.0,0.0,0.0,0.0,0.0,0.0,0.0,0.0,0.0,0.0,0.0,0.0,0.0,0.0,0.0,0.0,0.0,0.0,0.0,0.0,0.0,0.0,0.0,0.0,0.0,0.0,0.0,0.0,0.0,0.0,0.0,0.0,0.0,0.0,0.0,0.0,0.0,0.0,0.0,0.0,0.0,0.0,0.0,0.0,0.0,0.0,0.0,0.0,0.0,0.0,0.0,0.0,0.0,0.0,0.0,0.0,0.0,0.0,0.0,0.0,0.0,0.0,0.0,0.0,0.0,0.0,0.0,0.0,0.0,0.0,0.0,0.0,0.0,0.0,0.0,0.0,0.0,0.0,0.0,0.0,0.0,0.0,0.0,0.0,0.0,0.0,0.0,0.0,0.0,0.0,0.0,0.0,2.3519,2.5912,2.6628,2.6355,2.494,2.4584,2.334,2.078,0.0,0.0,0.0,0.0,0.0,0.0,0.0,0.0,0.0,0.0,0.0,0.0,0.0,0.0,0.0,0.0,0.0,0.0,0.0,0.0,0.0,0.0,0.0,0.0,0.0,0.0,0.0,0.0,0.0,0.0,0.0,0.0,0.0,0.0,0.0,0.0,0.0,0.0,0.0,0.0,0.0,0.0,0.0,0.0,0.0,0.0,0.0,0.0,0.0,0.0,0.0,0.0,0.0,0.0,0.0,0.0,0.0,0.0,0.0,0.0,0.0,0.0,0.0,0.0,0.0,0.0,0.0,0.0,0.0,0.0,0.0,0.0,0.0,0.0,0.0,0.0,0.0,0.0,0.0,0.0,0.0,0.0,0.0,0.0,0.0,0.0,0.0,0.0,0.0,0.0,0.0,0.0,0.0,0.0,0.0,0.0,0.0,0.0,0.0,0.0,0.0,0.0,0.0,2.1749,2.321,2.5482,2.5923,2.5719,2.4947,2.4705,2.3545,2.1116,1.9462,0.0,0.0,0.0,0.0,0.0,0.0,0.0,0.0,0.0,0.0,0.0,0.0,0.0,0.0,0.0,0.0,0.0,0.0,0.0,0.0,0.0,0.0,0.0,0.0,0.0,0.0,0.0,0.0,0.0,0.0,0.0,0.0,0.0,0.0,0.0,0.0,0.0,0.0,0.0,0.0,0.0,0.0,0.0,0.0,0.0,0.0,0.0,0.0,0.0,0.0,0.0,0.0,0.0,0.0,0.0,0.0,0.0,0.0,0.0,0.0,0.0,0.0,0.0,0.0,0.0,0.0,0.0,0.0,0.0,0.0,0.0,0.0,0.0,0.0,0.0,0.0,0.0,0.0,0.0,0.0,0.0,0.0,0.0,0.0,0.0,0.0,0.0,0.0,0.0,0.0,0.0,0.0,0.0,0.0,0.0,0.0,0.0,0.0,0.0,0.0,0.0,0.0,2.2915,2.3881,2.4973,2.5159,2.5173,2.51,2.4866,2.3723,2.135,1.9755,0.0,0.0,0.0,0.0,0.0,0.0,0.0,0.0,0.0,0.0,0.0,0.0,0.0,0.0,0.0,0.0,0.0,0.0,0.0,0.0,0.0,0.0,0.0,0.0,0.0,0.0,0.0,0.0,0.0,0.0,0.0,0.0,0.0,0.0,0.0,0.0,0.0,0.0,0.0,0.0,0.0,0.0,0.0,0.0,0.0,0.0,0.0,0.0,0.0,0.0,0.0,0.0,0.0,0.0,0.0,0.0,0.0,0.0,0.0,0.0,0.0,0.0,0.0,0.0,0.0,0.0,0.0,0.0,0.0,0.0,0.0,0.0,0.0,0.0,0.0,0.0,0.0,0.0,0.0,0.0,0.0,0.0,0.0,0.0,0.0,0.0,0.0,0.0,0.0,0.0,0.0,0.0,0.0,0.0,0.0,0.0,0.0,0.0,0.0,0.0,0.0,0.0,2.5062,2.6703,2.5235,2.5315,2.5374,2.5115,2.5071,2.3957,2.1364,1.9974,0.0,0.0,0.0,0.0,0.0,0.0,0.0,0.0,0.0,0.0,0.0,0.0,0.0,0.0,0.0,0.0,0.0,0.0,0.0,0.0,0.0,0.0,0.0,0.0,0.0,0.0,0.0,0.0,0.0,0.0,0.0,0.0,0.0,0.0,0.0,0.0,0.0,0.0,0.0,0.0,0.0,0.0,0.0,0.0,0.0,0.0,0.0,0.0,0.0,0.0,0.0,0.0,0.0,0.0,0.0,0.0,0.0,0.0,0.0,0.0,0.0,0.0,0.0,0.0,0.0,0.0,0.0,0.0,0.0,0.0,0.0,0.0,0.0,0.0,0.0,0.0,0.0,0.0,0.0,0.0,0.0,0.0,0.0,0.0,0.0,0.0,0.0,0.0,0.0,0.0,0.0,0.0,0.0,0.0,0.0,0.0,0.0,0.0,0.0,0.0,0.0,0.0,2.3745,2.5255,2.5633,2.5769,2.5696,2.5374,2.5359,2.4174,2.1379,0.0,0.0,0.0,0.0,0.0,0.0,0.0,0.0,0.0,0.0,0.0,0.0,0.0,0.0,0.0,0.0,0.0,0.0,0.0,0.0,0.0,0.0,0.0,0.0,0.0,0.0,0.0,0.0,0.0,0.0,0.0,0.0,0.0,0.0,0.0,0.0,0.0,0.0,0.0,0.0,0.0,0.0,0.0,0.0,0.0,0.0,0.0,0.0,0.0,0.0,0.0,0.0,0.0,0.0,0.0,0.0,0.0,0.0,0.0,0.0,0.0,0.0,0.0,0.0,0.0,0.0,0.0,0.0,0.0,0.0,0.0,0.0,0.0,0.0,0.0,0.0,0.0,0.0,0.0,0.0,0.0,0.0,0.0,0.0,0.0,0.0,0.0,0.0,0.0,0.0,0.0,0.0,0.0,0.0,0.0,0.0,0.0,0.0,0.0,0.0,0.0,0.0,2.1437,2.3354,2.4905,2.59,2.6105,2.6012,2.5676,2.5559,2.4302,2.154,0.0,0.0,0.0,0.0,0.0,0.0,0.0,0.0,0.0,0.0,0.0,0.0,0.0,0.0,0.0,0.0,0.0,0.0,0.0,0.0,0.0,0.0,0.0,0.0,0.0,0.0,0.0,0.0,0.0,0.0,0.0,0.0,0.0,0.0,0.0,0.0,0.0,0.0,0.0,0.0,0.0,0.0,0.0,0.0,0.0,0.0,0.0,0.0,0.0,0.0,0.0,0.0,0.0,0.0,0.0,0.0,0.0,0.0,0.0,0.0,0.0,0.0,0.0,0.0,0.0,0.0,0.0,0.0,0.0,0.0,0.0,0.0,0.0,0.0,0.0,0.0,0.0,0.0,0.0,0.0,0.0,0.0,0.0,0.0,0.0,0.0,0.0,0.0,0.0,0.0,0.0,0.0,0.0,0.0,0.0,0.0,0.0,0.0,0.0,0.0,0.0,0.0,2.1628,2.4525,2.6398,2.6076,2.6325,2.6383,2.6061,2.569,2.4404,0.0,0.0,0.0,0.0,0.0,0.0,0.0,0.0,0.0,0.0,0.0,0.0,0.0,0.0,0.0,0.0,0.0,0.0,0.0,0.0,0.0,0.0,0.0,0.0,0.0,0.0,0.0,0.0,0.0,0.0,0.0,0.0,0.0,0.0,0.0,0.0,0.0,0.0,0.0,0.0,0.0,0.0,0.0,0.0,0.0,0.0,0.0,0.0,0.0,0.0,0.0,0.0,0.0,0.0,0.0,0.0,0.0,0.0,0.0,0.0,0.0,0.0,0.0,0.0,0.0,0.0,0.0,0.0,0.0,0.0,0.0,0.0,0.0,0.0,0.0,0.0,0.0,0.0,0.0,0.0,0.0,0.0,0.0,0.0,0.0,0.0,0.0,0.0,0.0,0.0,0.0,0.0,0.0,0.0,0.0,0.0,0.0,0.0,0.0,0.0,0.0,0.0,0.0,2.255,2.533,2.7247,2.7327,2.7261,2.7056,2.6735,2.6398,2.492,2.1891,0.0,0.0,0.0,0.0,0.0,0.0,0.0,0.0,0.0,0.0,0.0,0.0,0.0,0.0,0.0,0.0,0.0,0.0,0.0,0.0,0.0,0.0,0.0,0.0,0.0,0.0,0.0,0.0,0.0,0.0,0.0,0.0,0.0,0.0,0.0,0.0,0.0,0.0,0.0,0.0,0.0,0.0,0.0,0.0,0.0,0.0,0.0,0.0,0.0,0.0,0.0,0.0,0.0,0.0,0.0,0.0,0.0,0.0,0.0,0.0,0.0,0.0,0.0,0.0,0.0,0.0,0.0,0.0,0.0,0.0,0.0,0.0,0.0,0.0,0.0,0.0,0.0,0.0,0.0,0.0,0.0,0.0,0.0,0.0,0.0,0.0,0.0,0.0,0.0,0.0,0.0,0.0,0.0,0.0,0.0,0.0,0.0,0.0,0.0,0.0,0.0,0.0,2.2974,2.5769,2.7744,2.7897,2.7751,2.7539,2.7217,2.6881,2.5593,2.3003,0.0,0.0,0.0,0.0,0.0,0.0,0.0,0.0,0.0,0.0,0.0,0.0,0.0,0.0,0.0,0.0,0.0,0.0,0.0,0.0,0.0,0.0,0.0,0.0,0.0,0.0,0.0,0.0,0.0,0.0,0.0,0.0,0.0,0.0,0.0,0.0,0.0,0.0,0.0,0.0,0.0,0.0,0.0,0.0,0.0,0.0,0.0,0.0,0.0,0.0,0.0,0.0,0.0,0.0,0.0,0.0,0.0,0.0,0.0,0.0,0.0,0.0,0.0,0.0,0.0,0.0,0.0,0.0,0.0,0.0,0.0,0.0,0.0,0.0,0.0,0.0,0.0,0.0,0.0,0.0,0.0,0.0,0.0,0.0,0.0,0.0,0.0,0.0,0.0,0.0,0.0,0.0,0.0,0.0,0.0,0.0,0.0,0.0,0.0,0.0,0.0,0.0,2.3193,2.6055,2.8057,2.8087,2.8028,2.7882,2.7627,2.7276,2.6455,2.5026,0.0,0.0,0.0,0.0,0.0,0.0,0.0,0.0,0.0,0.0,0.0,0.0,0.0,0.0,0.0,0.0,0.0,0.0,0.0,0.0,0.0,0.0,0.0,0.0,0.0,0.0,0.0,0.0,0.0,0.0,0.0,0.0,0.0,0.0,0.0,0.0,0.0,0.0,0.0,0.0,0.0,0.0,0.0,0.0,0.0,0.0,0.0,0.0,0.0,0.0,0.0,0.0,0.0,0.0,0.0,0.0,0.0,0.0,0.0,0.0,1.985,1.743,0.0,0.0,0.0,0.0,0.0,0.0,0.0,0.0,0.0,0.0,0.0,0.0,0.0,0.0,0.0,0.0,0.0,0.0,0.0,0.0,0.0,0.0,0.0,0.0,0.0,0.0,0.0,0.0,0.0,0.0,0.0,0.0,0.0,0.0,0.0,0.0,0.0,0.0,0.0,0.0,2.4499,2.7232,2.9178,2.9467,2.8988,2.8666,2.8593,2.8066,2.7589,2.7295,2.5849,0.0,0.0,0.0,0.0,0.0,0.0,0.0,0.0,0.0,0.0,0.0,0.0,0.0,0.0,0.0,0.0,0.0,0.0,0.0,0.0,0.0,0.0,0.0,0.0,0.0,0.0,0.0,0.0,0.0,0.0,0.0,0.0,0.0,0.0,0.0,0.0,0.0,0.0,0.0,0.0,0.0,0.0,0.0,0.0,0.0,0.0,0.0,0.0,0.0,0.0,0.0,0.0,0.0,0.0,0.0,0.0,0.0,0.0,0.0,2.2377,2.0579,0.0,0.0,0.0,0.0,0.0,0.0,0.0,0.0,0.0,0.0,0.0,0.0,0.0,0.0,0.0,0.0,0.0,0.0,0.0,0.0,0.0,0.0,0.0,0.0,0.0,0.0,0.0,0.0,0.0,0.0,0.0,0.0,0.0,0.0,0.0,0.0,0.0,0.0,0.0,0.0,2.5096,2.7855,2.9716,2.9892,2.9599,2.9335,2.9134,2.8681,2.8341,2.8202,2.7363,0.0,0.0,0.0,0.0,0.0,0.0,0.0,0.0,0.0,0.0,0.0,0.0,0.0,0.0,0.0,0.0,0.0,0.0,0.0,0.0,0.0,0.0,0.0,0.0,0.0,0.0,0.0,0.0,0.0,0.0,0.0,0.0,0.0,0.0,0.0,0.0,0.0,0.0,0.0,0.0,0.0,0.0,0.0,0.0,0.0,0.0,0.0,0.0,0.0,0.0,0.0,0.0,0.0,2.3596,2.3523,2.2775,2.4444,2.5038,2.47,2.4718,2.3885,2.2402,2.1009,0.0,0.0,0.0,0.0,0.0,0.0,0.0,0.0,0.0,0.0,0.0,0.0,0.0,0.0,0.0,0.0,0.0,0.0,0.0,0.0,0.0,0.0,0.0,0.0,2.3738,2.372,2.173,0.0,0.0,0.0,0.0,0.0,0.0,0.0,0.0,0.0,0.0,0.0,2.588,2.8461,3.0185,3.0229,3.0185,3.0024,2.9661,2.9325,2.9135,2.9082,2.8817,2.8774,0.0,0.0,0.0,0.0,0.0,0.0,0.0,0.0,0.0,0.0,0.0,0.0,0.0,0.0,0.0,0.0,0.0,0.0,0.0,0.0,0.0,0.0,0.0,0.0,0.0,0.0,0.0,0.0,0.0,0.0,0.0,0.0,1.9188,1.9062,0.0,0.0,0.0,0.0,0.0,0.0,0.0,0.0,0.0,0.0,0.0,0.0,0.0,2.0771,2.2224,2.357,2.4474,2.5026,2.6819,2.7622,2.7534,2.8452,2.8227,2.7108,2.8012,0.0,2.3278,2.28,0.0,0.0,0.0,0.0,0.0,0.0,0.0,0.0,0.0,0.0,0.0,0.0,0.0,0.0,0.0,0.0,0.0,0.0,0.0,0.0,0.0,0.0,2.6676,2.68,2.6917,2.7027,0.0,2.4437,2.1891,2.1979,2.192,0.0,0.0,0.0,0.0,0.0,0.0,0.0,2.8139,3.0012,3.1227,3.1505,3.1285,3.0993,3.0656,3.0334,3.0659,3.1747,3.2764,3.3135,3.2708,3.3071,0.0,0.0,0.0,0.0,0.0,0.0,0.0,0.0,0.0,0.0,0.0,0.0,0.0,0.0,0.0,0.0,0.0,0.0,0.0,0.0,0.0,0.0,0.0,0.0,0.0,0.0,0.0,0.0,0.0,1.8838,2.0236,2.0684,1.9315,1.8103,0.0,0.0,0.0,0.0,0.0,0.0,0.0,0.0,0.0,2.5134,2.4029,2.476,2.7581,2.6715,2.6502,2.6922,2.7585,2.7598,2.7019,2.7952,2.7699,2.6523,2.6848,2.6141,2.4772,2.3968,2.2294,2.0208,0.0,0.0,0.0,0.0,2.1101,2.1235,2.2837,2.3039,2.2386,2.1331,0.0,0.0,0.0,0.0,0.0,0.0,0.0,0.0,0.0,0.0,2.811,2.8461,2.8719,2.8939,2.9178,2.7934,2.6478,0.0,2.4481,2.3415,2.1481,0.0,0.0,0.0,0.0,2.7349,2.9232,3.07,3.1637,3.1783,3.1666,3.152,3.1388,3.1081,3.115,3.1703,3.3925,3.499,3.4541,3.5207,3.4153,0.0,0.0,0.0,0.0,0.0,0.0,0.0,0.0,0.0,0.0,0.0,0.0,0.0,0.0,0.0,0.0,0.0,0.0,0.0,0.0,0.0,0.0,0.0,0.0,0.0,0.0,0.0,0.0,2.0521,2.1958,2.2479,2.1402,2.0329,0.0,0.0,0.0,0.0,0.0,0.0,2.3737,2.3788,2.4932,2.7392,2.6339,2.7196,3.0206,2.8109,2.7192,2.7457,2.7266,2.6772,2.6025,2.6851,2.6772,2.595,2.5657,2.5741,2.6012,2.4892,2.3793,2.277,2.2169,2.1628,2.148,2.3673,2.4224,2.4086,2.5929,2.6246,2.5664,2.4387,2.377,2.331,2.2104,0.0,0.0,0.0,0.0,2.651,2.7955,2.8754,2.9256,2.9764,3.0097,3.0317,3.0492,3.0522,3.0009,0.0,2.7298,2.6082,2.4115,0.0,0.0,0.0,2.6939,2.893,3.0346,3.1402,3.2046,3.2046,3.2046,3.2017,3.1929,3.1695,3.152,3.1446,3.4487,3.6166,3.5851,3.7222,3.7148,3.5391,0.0,0.0,0.0,0.0,0.0,0.0,0.0,0.0,0.0,0.0,0.0,0.0,0.0,0.0,0.0,0.0,0.0,0.0,0.0,0.0,0.0,0.0,0.0,0.0,0.0,0.0,0.0,0.0,0.0,2.441,2.5348,0.0,0.0,0.0,0.0,2.3473,2.3938,2.4695,2.5684,2.4859,2.53,2.7345,2.6053,2.5532,2.5985,2.5853,2.5794,2.5808,2.6103,2.6257,2.621,2.6551,2.6691,2.6616,2.6285,2.635,2.6579,2.5691,2.4998,2.4543,2.5033,2.4715,2.4118,2.5765,2.6146,2.6014,2.7078,2.7225,2.6865,2.6442,2.56,2.4872,2.5741,2.5116,0.0,0.0,2.7511,2.8468,3.0197,3.0905,3.1168,3.1212,3.1227,3.1402,3.2032,3.1446,3.0773,0.0,3.0832,3.0378,2.8423,0.0,2.9042,2.8666,2.932,3.039,3.1959,3.2485,3.2764,3.2764,3.2764,3.2646,3.228,3.2237,3.2105,3.1798,3.5087,3.7056,3.7039,3.993,4.0156,3.7226,3.6211,0.0,0.0,0.0,0.0,0.0,0.0,0.0,0.0,0.0,0.0,0.0,0.0,0.0,0.0,0.0,0.0,0.0,0.0,0.0,0.0,0.0,0.0,0.0,0.0,0.0,0.0,0.0,0.0,2.452,2.4113,0.0,2.2528,2.317,2.3957,2.4718,2.6252,2.7084,2.6858,2.6672,2.7065,2.8097,2.6825,2.6762,2.8064,2.7311,2.6927,2.6927,2.6768,2.6804,2.6957,2.7062,2.7174,2.7337,2.7052,2.7103,2.7408,2.671,2.6234,2.5923,2.6347,2.6418,2.6418,2.7381,2.7664,2.766,2.8353,2.8189,2.7632,2.7519,2.7397,2.7392,2.7858,2.7748,2.7806,2.8946,2.9606,3.0213,3.1296,3.1453,3.1395,3.1858,3.183,3.1859,3.2237,3.2178,3.2076,3.2076,3.149,3.0642,2.9544,3.0232,3.0612,2.9701,3.0639,3.1753,3.2544,3.2749,3.2822,3.2822,3.2822,3.2764,3.2602,3.2646,3.2588,3.2427,3.4741,3.5942,3.5688,3.8985,4.0088,3.8476,3.9316,3.7226,0.0,0.0,0.0,0.0,0.0,0.0,0.0,0.0,0.0,0.0,0.0,0.0,0.0,0.0,0.0,0.0,0.0,0.0,0.0,0.0,0.0,0.0,0.0,0.0,0.0,2.3229,2.453,2.4317,2.4055,2.3676,2.314,2.419,2.5246,2.6038,2.7416,2.7834,2.6872,2.7063,2.7382,2.7792,2.7056,2.7325,2.8676,2.7883,2.7547,2.7643,2.7254,2.7242,2.7487,2.735,2.7416,2.7549,2.7389,2.7431,2.769,2.7256,2.713,2.715,2.7465,2.7669,2.7906,2.8533,2.8756,2.8838,2.914,2.8917,2.8491,2.8741,2.8934,2.9088,2.9369,2.9462,2.9556,3.0269,3.0578,3.0805,3.157,3.1552,3.1479,3.2191,3.2291,3.2272,3.266,3.2939,3.31,3.31,3.231,3.1462,3.1081,3.1812,3.209,3.1049,3.1944,3.2778,3.2822,3.2954,3.31,3.31,3.2997,3.2968,3.3085,3.2602,3.2471,3.291,3.426,3.5317,3.5987,3.7802,3.9036,3.954,4.0471,3.873,3.4316,0.0,0.0,0.0,0.0,0.0,0.0,0.0,0.0,0.0,0.0,0.0,0.0,0.0,0.0,0.0,0.0,0.0,0.0,0.0,0.0,0.0,0.0,0.0,2.277,2.3456,2.4089,2.397,2.558,2.6471,2.5817,2.7,2.7664,2.7352,2.7217,2.6723,2.5681,2.5909,2.6172,2.6413,2.6694,2.6987,2.7322,2.7322,2.7483,2.7709,2.7469,2.7483,2.7709,2.7483,2.7362,2.7376,2.7376,2.7389,2.7403,2.7376,2.771,2.8263,2.8441,2.8532,2.8616,2.9272,2.9537,2.9495,2.9425,2.9425,2.9565,3.0194,3.0087,2.9806,3.0393,3.0069,2.9641,3.0355,3.0424,3.0362,3.1081,3.1299,3.1472,3.229,3.2496,3.2717,3.352,3.3684,3.3684,3.3684,3.3435,3.3231,3.3216,3.3479,3.3524,3.2939,3.3334,0.0,3.288,3.3349,3.3684,3.3654,3.3377,3.3318,3.3625,3.2251,3.19,3.3128,3.3769,3.5278,3.7964,3.6607,3.7324,4.051,3.9689,3.8633,3.7383,0.0,0.0,0.0,0.0,0.0,0.0,0.0,0.0,0.0,0.0,0.0,0.0,0.0,0.0,0.0,0.0,0.0,0.0,0.0,0.0,0.0,2.1133,2.2759,2.3308,2.5248,2.6296,2.5446,2.5092,2.4855,2.4652,2.5388,2.5824,2.5737,2.6284,2.6479,2.6181,2.6666,2.6988,2.7068,2.7308,2.7495,2.7575,2.7831,2.7978,2.8058,2.7978,2.7991,2.8072,2.839,2.8671,2.8915,2.8915,2.9155,2.9503,2.8818,2.8898,2.9396,2.8807,2.8839,2.9258,2.9636,2.9991,3.0255,2.9873,3.0074,3.0429,3.0114,3.0012,2.9978,3.0061,2.9949,2.9806,3.0021,3.0187,3.0488,3.1021,3.1063,3.1163,3.2081,3.2324,3.252,3.3076,3.3456,3.3684,3.3684,3.3801,3.383,3.3596,3.3625,3.3625,3.3495,3.3567,0.0,3.3495,3.3581,3.3554,3.3085,3.2954,3.2939,3.3027,3.2632,3.2719,3.3494,3.3695,3.4141,3.489,3.5796,3.7989,4.1588,4.0662,3.9844,0.0,0.0,0.0,0.0,0.0,0.0,0.0,0.0,0.0,0.0,0.0,0.0,0.0,0.0,0.0,0.0,0.0,0.0,0.0,0.0,0.0,0.0,2.2448,2.3812,2.4249,2.5366,2.6006,2.561,2.4961,2.4623,2.4743,2.517,2.5543,2.5663,2.6213,2.6627,2.6747,2.7242,2.7483,2.7483,2.7856,2.8016,2.7924,2.8232,2.8379,2.8379,2.8379,2.8513,2.8754,2.9072,2.9392,2.9659,2.9659,2.986,3.014,2.9619,2.9562,0.0,0.0,0.0,0.0,0.0,3.0012,3.0096,2.9963,3.015,3.0427,3.0039,3.0052,3.0231,3.0137,3.0194,3.0314,3.0434,3.0501,3.066,3.1056,3.1123,3.1329,3.2191,3.2587,3.3027,3.3761,3.4144,3.4329,3.4329,3.4592,0.0,3.4402,3.4227,3.4005,3.3727,3.3963,3.4036,3.3727,3.3978,3.3993,3.3627,3.3466,3.3436,3.3568,3.2954,0.0,0.0,0.0,3.2997,3.2734,3.5153,0.0,0.0,0.0,0.0,0.0,0.0,0.0,0.0,3.7187,3.7363,0.0,0.0,0.0,0.0,0.0,0.0,0.0,0.0,0.0,0.0,0.0,0.0,0.0,0.0,0.0,0.0,2.4335,2.604,2.5221,2.469,2.4583,2.5077,2.5195,2.5277,2.5545,2.5865,2.6198,2.6413,2.6734,2.7041,2.7349,2.7629,0.0,0.0,0.0,2.847,2.8232,2.8497,2.8657,2.8657,2.8724,2.9018,2.9486,2.9513,2.9673,2.9913,2.9913,2.9953,3.0007,2.994,2.9913,2.986,2.9295,2.9415,2.9913,2.9913,2.9753,2.9579,2.99,0.0,0.0,3.0047,3.0221,3.0453,3.0453,3.0581,3.0849,3.1102,3.1022,3.0902,3.1196,3.1428,3.1784,3.2599,3.3196,3.3852,3.4948,3.5207,3.5255,3.5255,3.5489,3.5606,3.5295,3.5002,3.4607,3.4036,3.4446,3.4607,3.4022,3.4446,3.4783,3.471,0.0,0.0,3.468,3.3393,3.3085,3.43,3.3305,3.2412,3.1827,3.5045,3.6227,3.4981,3.6718,3.8554,4.0362,4.2216,4.309,4.2972,4.0155,4.0156,0.0,0.0,0.0,0.0,0.0,0.0,0.0,0.0,0.0,0.0,0.0,0.0,0.0,0.0,0.0,2.2505,2.4188,2.5317,2.5139,2.5422,2.5571,2.5451,2.5677,2.585,2.5904,2.6346,2.668,2.6734,2.7228,2.7549,2.7615,2.8136,2.843,2.843,2.8551,2.8577,2.8524,2.8804,2.8908,2.8921,2.9432,0.0,2.9486,2.9726,2.986,2.9913,2.9913,3.0181,3.0595,3.0114,2.9913,2.99,2.9793,2.982,2.9913,2.9913,2.9887,2.9913,3.0434,3.0474,3.0354,3.0822,3.0849,3.0715,3.0715,3.0755,0.0,3.0862,3.1009,3.1209,3.1503,3.1812,3.2204,3.2982,3.358,3.4137,3.4794,3.5304,3.5592,3.5592,3.565,3.5665,3.5606,3.5548,3.5474,3.5343,3.543,3.546,3.5343,3.543,3.5313,3.4753,3.4651,3.4636,3.4695,3.4417,3.4563,3.5372,3.5181,3.4991,3.4859,3.7009,3.8107,3.783,3.9869,4.1059,4.1266,4.2146,4.2442,4.2173,4.3871,4.5312,0.0,0.0,0.0,0.0,0.0,0.0,0.0,0.0,0.0,0.0,0.0,1.9423,2.0481,0.0,2.2899,2.3634,2.4743,2.5556,2.5556,2.5931,2.6105,2.5772,2.6119,2.6386,2.6386,2.6787,2.7108,2.7255,2.7669,2.8031,2.815,2.8577,2.8764,2.8604,2.8898,2.8978,2.8775,2.9215,2.9428,2.9442,2.978,2.9913,2.9972,3.0074,3.0221,3.0354,3.0354,3.0608,3.0982,3.0688,3.0662,3.0768,3.0474,3.0354,3.0354,3.0354,3.0541,3.0795,3.0795,3.0795,3.0822,3.0969,3.1009,3.1009,3.1009,3.1116,3.1289,3.1631,3.1664,3.177,3.2211,3.2705,3.3181,3.3609,3.4329,3.5,3.54,3.5735,3.588,3.588,3.6061,3.6119,3.5909,3.6061,3.6061,3.5738,3.5694,3.5694,3.5694,3.5694,3.5577,3.5255,3.531,3.5412,3.5412,3.5558,3.5792,3.6148,3.6178,3.6178,3.6178,3.7072,3.7681,3.7849,3.8913,3.9494,3.9543,4.0854,4.1407,4.1324,4.4948,4.6722,0.0,0.0,0.0,0.0,0.0,0.0,0.0,1.7528,1.8304,1.9519,2.0397,2.1277,2.2311,2.318,2.3959,2.4733,2.5491,2.6038,2.6145,2.6319,2.6413,2.6265,2.6573,2.6841,2.6907,2.7269,2.7576,2.7762,2.8152,2.8473,2.8684,2.8921,2.9001,2.8871,2.9325,2.9486,2.9255,2.982,3.006,3.0007,3.0114,3.0234,3.04,3.04,3.0533,3.0715,3.0768,3.0929,3.1142,3.1142,3.1289,3.1497,3.0982,3.0862,3.0955,3.0835,3.1089,3.1436,3.1022,3.1036,3.1196,3.1022,3.1156,3.1349,3.1349,3.161,3.1992,3.246,3.242,3.2353,3.2987,3.3584,3.4102,3.4352,3.5095,3.5798,3.6109,3.6261,3.6305,3.6305,3.6568,3.6714,3.6451,3.6626,3.6568,3.5973,3.5929,3.5973,3.5973,3.6031,3.6061,3.6061,3.6246,3.6407,3.6407,3.6641,3.6787,3.6787,3.6787,3.6787,3.6787,3.6787,3.6919,3.7183,3.7256,3.7373,3.7578,3.9322,4.0143,4.0231,4.4075,4.6132,1.5899,1.5872,1.6444,1.7422,1.7903,1.8731,0.0,2.1149,2.1082,2.2505,2.3292,2.3875,2.4239,2.4813,2.5384,2.5784,2.5931,2.6172,2.6653,2.6747,2.6854,2.7135,2.6947,2.6921,2.7229,2.7764,2.8098,2.8138,2.8617,2.8908,2.8948,2.9272,2.9539,2.9766,2.9833,2.998,3.0253,3.0528,3.0568,3.036,3.0835,3.0822,3.04,3.04,3.0426,3.0467,3.0675,3.0808,3.0835,3.0835,3.0862,3.0889,3.0822,3.1116,3.1503,3.0982,3.0835,3.0915,3.1116,3.1149,3.1263,3.149,3.177,3.1998,3.1998,3.2211,3.2514,3.2581,3.2567,3.2718,3.3533,3.3784,3.412,3.5337,3.5705,3.5903,3.644,3.6773,3.6978,3.6978,3.7241,3.7461,3.7417,3.7446,3.7256,3.6597,3.6744,3.6934,3.6934,3.7183,3.7409,3.7409,3.7387,3.7417,3.7417,3.7446,3.7475,3.7475,3.7475,3.7475,3.7475,3.7475,3.749,3.7519,3.7863,3.7877,3.7578,3.8354,3.859,3.8412,4.1108,4.4226,1.8597,1.8611,1.8784,1.9583,2.0187,2.0815,2.1911,2.2151,2.2498,2.3785,2.4422,2.4796,2.5053,2.5491,2.585,2.5971,2.6239,2.6547,2.6787,2.6974,2.7188,2.7482,2.7603,2.7684,2.7804,2.8205,2.8417,2.8417,2.8804,2.9001,2.9001,2.9486,2.9793,2.9913,3.0247,3.0488,3.0608,3.0902,3.0982,3.0862,3.0942,3.0849,3.0654,3.048,3.0493,3.0621,3.0915,3.1049,3.1062,3.1236,3.1396,3.1557,3.1557,3.181,3.2139,3.133,3.137,3.1858,3.1757,3.1851,3.2059,3.2193,3.2313,3.2407,3.2407,3.25,3.2634,3.2795,3.2969,3.3129,3.3498,3.4045,3.4757,3.5441,3.597,3.65,3.7068,3.727,3.7373,3.7373,3.749,3.7578,3.7578,3.7578,3.749,3.7212,3.7285,3.7373,3.7373,3.749,3.7651,3.7892,3.7907,3.7943,3.8119,3.8134,3.8134,3.8134,3.8134,3.8134,3.8134,3.8134,3.8134,3.8134,3.8265,3.8265,3.8134,3.836,3.8418,3.839,4.0749,4.2642,1.9933,2.0267,2.0521,2.1189,2.1977,2.2592,2.2592,2.2993,2.3621,2.4569,2.4997,2.5291,2.5585,2.5917,2.6145,2.6225,2.6547,2.6881,2.7,2.7255,2.7522,2.7909,2.8112,2.8286,2.8526,2.8644,2.8764,2.8845,2.9125,2.9268,2.9392,2.9887,3.0194,3.0274,3.0688,3.0955,3.1036,3.1156,3.1176,3.1223,3.0929,3.0795,3.0795,3.0662,3.0715,3.0929,3.1223,3.1343,3.137,3.1664,3.1904,3.2104,3.2185,3.2407,3.2527,3.1917,3.2064,3.2567,3.2291,3.2474,3.2714,3.2714,3.2822,3.2969,3.2969,3.3022,3.3129,3.3293,3.3494,3.3705,3.4007,3.4687,3.5433,3.5958,3.6528,3.7055,3.7527,3.7651,3.776,3.776,3.7782,3.7841,3.7841,3.7841,3.7841,3.7841,3.7841,3.7812,3.7775,3.7782,3.7929,3.8163,3.8192,3.8295,3.8462,3.8491,3.8491,3.8491,3.8491,3.8491,3.8491,3.8491,3.8491,3.8491,3.8491,3.8491,3.8491,3.8491,3.8491,3.8543,4.0157,4.1269,1.8863,1.98,2.09,2.177,2.306,2.4128,2.4128,2.4332,2.4639,2.4997,2.5291,2.5585,2.5931,2.6225,2.6466,2.6747,2.6774,2.7014,2.7589,2.7682,2.7909,2.8511,2.8366,2.8526,2.9396,2.9192,2.9108,2.9432,2.9726,3.002,3.0346,3.0608,3.0889,3.1136,3.1162,3.1356,3.1684,3.137,3.1176,3.1223,3.0929,3.0795,3.0808,3.1076,3.1162,3.1236,3.153,3.1698,3.1724,3.1971,3.2091,3.2131,3.2474,3.2581,3.2621,3.2875,3.2808,3.2594,3.2581,3.2768,3.3009,3.3009,3.336,3.3841,3.3841,3.4042,3.4269,3.4282,3.4282,3.4488,3.5549,3.5856,3.619,3.7259,3.7578,3.7578,3.7578,3.7877,3.8097,3.8097,3.8295,3.8462,3.8462,3.8462,3.8462,3.8462,3.8462,3.8397,3.8141,3.8324,3.8462,3.8477,3.8477,3.8477,3.8491,3.8491,3.8491,3.8491,3.8491,3.8491,3.8491,3.8491,3.8491,3.8491,3.8491,3.8491,3.8491,3.8491,3.8491,3.8491,3.8595,3.9925,2.0512,2.1422,2.2372,2.3233,2.3981,2.4452,2.4452,2.4532,2.4679,2.5024,2.4997,2.5024,2.5355,2.581,2.6172,2.6265,2.6894,2.7468,2.7669,2.7911,2.8192,2.8551,2.8511,2.8724,2.9419,2.9392,2.9459,2.9753,3.0047,3.0293,3.04,3.0493,3.0635,3.0929,3.1129,3.1276,3.137,3.1476,3.1423,3.1176,3.133,3.1417,3.143,3.1677,3.1704,3.153,3.1671,3.1784,3.1971,3.2064,3.2211,3.25,3.2933,3.312,3.3187,3.3681,3.3801,3.3694,3.3507,3.336,3.3334,3.3734,3.4002,3.4175,3.4175,3.4242,3.4322,3.4322,3.4456,3.477,3.5209,3.5676,3.6197,3.7174,3.7546,3.7742,3.8104,3.8309,3.8382,3.8382,3.847,3.8491,3.8491,3.8491,3.8491,3.8491,3.8491,3.8448,3.8397,3.8418,3.8491,3.8491,3.8491,3.8491,3.8491,3.8491,3.8491,3.8491,3.8491,3.8491,3.8491,3.8491,3.8491,3.8491,3.8491,3.8491,3.8491,3.8711,3.8813,3.8813,3.9085,3.9602,2.1729,2.2465,2.3134,2.4102,2.4466,2.4599,2.4599,2.4599,2.4679,2.5024,2.4756,2.4596,2.501,2.5516,2.5877,2.5971,2.6894,2.7575,2.7682,2.7911,2.8179,2.8551,2.8604,2.8885,2.9566,2.974,2.9873,3.006,3.0386,3.056,3.056,3.0608,3.0755,3.0942,3.1129,3.1276,3.1383,3.1463,3.1463,3.1383,3.1677,3.1824,3.1824,3.1904,3.1851,3.1724,3.1938,3.2024,3.2131,3.2452,3.2625,3.2795,3.3227,3.3414,3.3467,3.3975,3.4095,3.3988,3.3908,3.3814,3.3788,3.4068,3.4242,3.4336,3.4442,3.4482,3.4496,3.4603,3.4933,3.5288,3.5641,3.6149,3.6817,3.7555,3.7864,3.806,3.8439,3.8491,3.8491,3.8491,3.8491,3.8491,3.8491,3.8491,3.8491,3.8491,3.8491,3.8491,3.8491,3.8491,3.8491,3.8491,3.8491,3.8491,3.8491,3.8491,3.8491,3.8491,3.8491,3.8491,3.8491,3.8491,3.8491,3.8491,3.8491,3.855,3.8667,3.8871,3.9085,3.9202,3.9421,3.9568,2.2452,2.296,2.3255,2.4319,2.4599,2.4599,2.4599,2.4599,2.4666,2.4943,2.4543,2.4315,2.4847,2.5224,2.5585,2.5891,2.6747,2.7469,2.7682,2.7736,2.7963,2.8564,2.8631,2.8978,2.986,3.0207,3.044,3.0453,3.0675,3.0835,3.0808,3.1076,3.1176,3.1162,3.1176,3.1356,3.1684,3.1396,3.1423,3.1791,3.1998,3.2131,3.2118,3.1837,3.1764,3.1791,3.2367,3.246,3.2238,3.3043,3.3267,3.3026,3.332,3.344,3.3467,3.3788,3.3721,3.3521,3.3814,3.4095,3.4282,3.4015,3.4135,3.4416,3.4696,3.4842,3.4895,3.5124,3.5559,3.6138,3.6701,3.7277,3.78,3.8269,3.8439,3.8439,3.8439,3.8439,3.8439,3.8439,3.8491,3.8491,3.8491,3.8491,3.8491,3.8491,3.8491,3.8491,3.8491,3.8491,3.8491,3.8491,3.8491,3.8491,3.8491,3.8491,3.8491,3.8491,3.8491,3.8491,3.8491,3.8491,3.8491,3.8491,3.8506,3.8667,3.9026,3.9003,3.9231,3.9538,3.9553,3.9729,2.2966,2.3688,2.4262,2.4519,2.4599,2.4599,2.4599,2.4599,2.4439,2.3888,2.3661,2.3327,2.2626,2.3991,2.5144,2.4997,2.6827,2.8203,2.8098,2.823,2.8511,2.8841,2.8881,2.9272,3.0167,3.0515,3.0768,3.0982,3.1276,3.1356,3.1129,3.1136,3.1129,3.0902,3.1116,3.1263,3.1343,3.1704,3.2131,3.2688,3.2554,3.2474,3.2474,3.2407,3.2367,3.2393,3.2755,3.2946,3.3093,3.332,3.3374,3.3334,3.3641,3.3761,3.3801,3.4095,3.4295,3.4402,3.4255,3.4255,3.4349,3.4496,3.4736,3.499,3.5057,3.5084,3.5097,3.5177,3.5559,3.6033,3.6191,3.6963,3.7643,3.7382,3.7591,3.78,3.7382,3.7643,3.7904,3.7904,3.8217,3.8491,3.8491,3.8491,3.8491,3.8491,3.8491,3.8491,3.8491,3.8491,3.8491,3.8491,3.8491,3.8491,3.8491,3.8491,3.8491,3.8491,3.8491,3.8491,3.8491,3.8491,3.8491,3.8491,3.8725,3.8886,3.9026,3.9509,3.9787,3.9875,4.0124,4.0285,2.3665,2.4226,2.4599,2.4599,2.4599,2.4492,2.4119,2.4026,2.3745,2.2766,2.2445,2.2151,2.1515,2.3193,2.4636,2.4476,2.6667,2.8339,2.8031,2.8323,2.8711,2.8961,2.9228,2.9726,3.0474,3.0808,3.1102,3.1396,3.145,3.1396,3.1236,3.1102,3.1022,3.0982,3.1142,3.1356,3.161,3.2064,3.2532,3.2973,3.2607,3.2474,3.2594,3.2594,3.2594,3.2634,3.3267,3.3507,3.3427,3.3694,3.3654,3.3427,3.3614,3.3681,3.3721,3.4015,3.4242,3.4376,3.4336,3.4402,3.4523,3.4563,3.4683,3.483,3.4963,3.5004,3.503,3.5164,3.5559,3.598,3.598,3.6663,3.7277,3.6963,3.712,3.7277,3.6963,3.712,3.7434,3.7643,3.8112,3.8491,3.8491,3.8491,3.8491,3.8491,3.8491,3.8491,3.8491,3.8491,3.8491,3.8491,3.8491,3.8491,3.8491,3.8491,3.8491,3.8491,3.8491,3.855,3.8696,3.8696,3.8769,3.8968,3.9143,3.9304,3.9451,3.9816,4.0065,4.0212,4.0402,4.049,2.4386,2.4599,2.4599,2.4599,2.4599,2.4372,2.3492,2.3265,2.2913,2.1676,2.1234,2.1015,2.0895,2.2605,2.4062,2.4182,2.6426,2.8058,2.7843,2.8377,2.8871,2.9081,2.9628,3.0247,3.0795,3.1116,3.1396,3.1698,3.1396,3.1176,3.1176,3.1022,3.1049,3.133,3.1343,3.161,3.2158,3.246,3.2728,3.2969,3.2412,3.2318,3.2648,3.2688,3.2755,3.2888,3.3921,3.4055,3.3574,3.4095,3.3961,3.3414,3.3414,3.3414,3.344,3.3721,3.3881,3.3975,3.4229,3.4536,3.4829,3.4469,3.4402,3.4482,3.475,3.4869,3.4922,3.5124,3.5559,3.598,3.5928,3.6401,3.6859,3.6701,3.6754,3.6754,3.6701,3.6754,3.6963,3.7591,3.806,3.8439,3.8491,3.8491,3.8491,3.8491,3.8491,3.8491,3.8491,3.8491,3.8491,3.8491,3.8491,3.8491,3.8491,3.8521,3.855,3.855,3.8594,3.874,3.9017,3.9085,3.9217,3.9509,3.9553,3.9714,3.9992,4.0036,4.0212,4.049,4.049,4.049,2.4492,2.4599,2.4599,2.4599,2.4599,2.4372,2.3492,2.3126,2.2505,2.0802,2.0615,2.0565,1.9829,2.1582,2.3375,2.4088,2.6213,2.7936,2.839,2.9165,2.9713,2.9753,3.0287,3.0768,3.1116,3.1423,3.1657,3.1711,3.1396,3.1176,3.1176,3.141,3.165,3.1944,3.1944,3.2118,3.2514,3.2567,3.2621,3.2661,3.2567,3.2674,3.2955,3.3146,3.3534,3.4042,3.4496,0.0,3.4175,3.4282,3.3961,3.3414,3.3414,3.3414,3.3414,3.3467,3.3814,3.4255,3.4295,3.467,3.507,3.4776,3.4843,3.5057,3.511,3.5124,3.5137,3.5177,3.5559,3.5875,3.5454,3.6138,3.6649,3.5717,3.5823,3.6033,3.5612,3.5823,3.6453,3.7486,3.78,3.7956,3.8439,3.8491,3.8491,3.8491,3.8491,3.8491,3.8491,3.8491,3.8491,3.8491,3.8491,3.8491,3.8491,3.8725,3.8886,3.8886,3.9187,3.9363,3.9421,3.9421,3.9451,3.9509,3.9773,3.9948,3.9992,4.027,4.0446,4.049,4.049,4.049,2.4559,2.4599,2.4599,2.4599,2.4599,2.4252,2.2939,2.2425,2.1676,1.972,1.9559,1.9586,1.904,2.086,2.2592,2.318,2.5504,2.7402,2.7843,2.9072,2.998,3.0127,3.0662,3.1129,3.1423,3.1631,3.1711,3.1711,3.153,3.145,3.145,3.1597,3.1797,3.2091,3.2104,3.2251,3.2594,3.2433,3.2514,3.2808,3.2514,3.2625,3.3213,3.3521,3.3895,3.4349,3.479,3.4736,3.4322,3.4322,3.3961,3.3414,3.3414,3.3414,3.3427,3.3601,3.3935,3.4336,3.4496,3.483,3.5177,3.503,3.5084,3.5191,3.5191,3.5191,3.5191,3.5191,3.5401,3.5507,3.5243,3.5612,3.5875,3.5349,3.5415,3.5507,3.5243,3.5612,3.6243,3.712,3.7486,3.7852,3.8425,3.8491,3.8491,3.8491,3.8491,3.8491,3.8491,3.8491,3.8491,3.8491,3.8638,3.874,3.874,3.9085,3.9275,3.9275,3.9421,3.9582,3.9758,3.9758,3.9846,4.0021,4.0168,4.0255,4.0255,4.0402,4.049,4.049,4.049,4.049,2.4506,2.4559,2.4599,2.4599,2.4599,2.4132,2.2392,2.1743,2.0927,1.8905,1.8677,1.8784,1.8611,2.0241,2.1804,2.2418,2.4623,2.652,2.7296,2.8778,2.998,3.0453,3.0969,3.141,3.165,3.1711,3.1711,3.1711,3.1711,3.1711,3.1711,3.173,3.1904,3.2185,3.2198,3.2305,3.2594,3.2251,3.2332,3.2786,3.2452,3.2719,3.3521,3.3895,3.4229,3.4536,3.4937,3.4803,3.4322,3.4255,3.3908,3.3414,3.3414,3.3454,3.3547,3.3801,3.4108,3.4442,3.4735,3.495,3.5191,3.5191,3.5191,3.5191,3.5191,3.5191,3.5191,3.5191,3.5191,3.5191,3.5191,3.5191,3.5191,3.5191,3.5191,3.5191,3.5191,3.5507,3.598,3.6597,3.7068,3.7539,3.8217,3.8217,3.8217,3.8321,3.8321,3.8321,3.8321,3.8439,3.8521,3.8579,3.8813,3.9056,3.9129,3.9421,3.9612,3.9612,3.9685,3.9831,4.0095,4.0109,4.0226,4.049,4.049,4.049,4.049,4.049,4.049,4.049,4.049,4.049,2.4249,2.4399,2.4599,2.4599,2.4599,2.4132,2.2392,2.155,2.0641,1.8865,1.8517,1.8597,1.881,1.9677,2.0891,2.2586,2.3741,2.5197,2.7362,2.8738,2.9833,3.0662,3.1276,3.1684,3.1711,3.1711,3.1711,3.1711,3.1711,3.1711,3.1711,3.1917,3.2198,3.2541,3.2554,3.2567,3.2594,3.2251,3.2131,3.2185,3.2666,3.3227,3.3855,3.4429,3.4843,3.511,3.4949,3.4616,0.0,3.4042,3.3721,3.3414,3.3414,3.3587,3.3841,3.3881,3.4242,3.4775,3.4802,3.495,3.5191,3.5191,3.5191,3.5191,3.5191,3.5191,3.5191,3.5191,3.5191,3.5191,3.5191,3.5191,3.5191,3.5191,3.5191,3.5191,3.5191,3.5257,3.5401,3.598,3.6138,3.6506,3.7591,3.7382,3.7225,3.7695,3.7747,3.7747,3.7747,3.8217,3.8594,3.8901,3.8959,3.9143,3.9436,3.9773,3.9948,3.9948,4.0241,4.0402,4.0446,4.0446,4.0446,4.049,4.049,4.049,4.049,4.049,4.049,4.049,4.049,4.049,2.4102,2.4422,2.4599,2.4599,2.4199,2.3492,2.2271,2.1122,1.9973,1.8744,1.849,1.8531,1.8637,1.9386,2.0374,2.1603,2.2733,2.3968,2.5625,2.7335,2.8738,2.9633,3.0568,3.1276,3.1684,3.1711,3.1711,3.1711,3.1711,3.1791,3.1917,3.2038,3.2318,3.2835,3.2514,3.242,3.2594,3.2251,3.2278,3.2639,3.3053,3.3668,3.4481,3.4656,3.4923,3.5177,3.4949,3.4589,0.0,3.4002,3.3694,3.3414,3.3414,3.3601,3.3881,3.3881,3.4255,3.4815,3.4815,3.495,3.5191,3.5191,3.5191,3.5191,3.5191,3.5191,3.5191,3.5191,3.5191,3.5191,3.5191,3.5191,3.5191,3.5191,3.5191,3.5191,3.5191,3.5191,3.5349,3.5875,3.598,3.6243,3.7068,3.7016,3.7068,3.7643,3.7695,3.78,3.8127,3.8548,3.8953,3.929,3.9319,3.9451,3.9773,4.0109,4.0285,4.0285,4.0402,4.049,4.049,4.049,4.049,4.049,4.049,4.049,4.049,4.049,4.049,4.049,4.049,4.049,2.3754,2.4186,2.4479,2.4479,2.3879,2.3038,2.2117,2.0788,1.9573,1.8784,1.8557,1.8517,1.8597,1.9265,2.0094,2.0962,2.1951,2.3174,2.4676,2.6293,2.7709,2.8735,2.9793,3.0635,3.1269,3.1564,3.1751,3.1797,3.1845,3.1957,3.2345,3.2358,3.2505,3.2888,3.2532,3.2425,3.2594,3.2425,3.2612,3.3106,3.3507,3.4068,3.4763,3.4791,3.5004,3.5177,3.4803,3.4509,0.0,3.3908,3.3614,3.3414,3.3414,3.3654,3.4015,3.4015,3.4389,3.4949,3.4949,3.503,3.5191,3.5191,3.5191,3.5191,3.5191,3.5191,3.5191,3.5191,3.5191,3.5191,3.5191,3.5191,3.5191,3.5191,3.5191,3.5191,3.5191,3.5191,3.5296,3.5665,3.577,3.5928,3.6544,3.6649,3.6754,3.712,3.733,3.7619,3.8086,3.8512,3.8976,3.9558,3.9656,3.9787,4.0109,4.0358,4.049,4.049,4.049,4.049,4.049,4.049,4.049,4.049,4.049,4.049,4.049,4.049,4.049,4.049,4.049,4.0534,2.3052,2.3768,2.4209,2.4209,2.3768,2.302,2.1863,2.0672,1.9626,1.901,1.8691,1.8584,1.8836,1.9399,2.0094,2.0962,2.1603,2.2819,2.517,2.6026,2.6947,2.843,2.9138,2.9726,3.036,3.1203,3.1784,3.2078,3.2104,3.2358,3.2933,3.2973,3.2888,3.2607,3.2875,3.2888,3.2594,3.2875,3.312,3.3414,3.4015,3.4417,3.4711,3.5057,3.5191,3.5164,3.4576,3.4322,0.0,3.3668,3.3414,3.3414,3.3414,3.3788,3.4322,3.4322,3.4683,3.5191,3.5191,3.5191,3.5191,3.5191,3.5191,3.5191,3.5191,3.5191,3.5191,3.5191,3.5191,3.5191,3.5191,3.5191,3.5191,3.5191,3.5191,3.5191,3.5191,3.5191,3.5191,3.5204,3.5204,3.5401,3.5928,3.598,3.598,3.6033,3.6558,3.7023,3.7265,3.785,3.8677,3.9865,3.9992,4.0124,4.0446,4.049,4.049,4.049,4.049,4.049,4.049,4.049,4.049,4.049,4.049,4.049,4.049,4.049,4.049,4.049,4.049,4.0705,2.1683,2.2392,2.2886,2.2532,2.1984,2.1363,2.0788,1.9746,1.8798,1.8383,1.841,1.8517,1.8611,1.9105,2.0017,2.147,2.1871,2.2672,2.4599,2.6106,2.7349,2.8232,2.9918,3.1095,3.1283,3.169,3.2011,3.2091,3.2291,3.2621,3.2959,3.2973,3.2982,3.2888,3.2982,3.2888,3.2594,3.304,3.344,3.3748,3.4336,3.4776,3.5057,3.5151,3.5191,3.5164,3.4576,3.4322,3.4269,3.3668,3.3414,3.3414,3.3414,3.3788,3.4322,3.4322,3.4696,3.5191,3.5191,3.5191,3.5191,3.5191,3.5191,3.5191,3.5191,3.5191,3.5191,3.5191,3.5191,3.5191,3.5191,3.5191,3.5191,3.5191,3.5191,3.5191,3.5191,3.5191,3.5191,3.5191,3.5191,3.5243,3.5401,3.5454,3.5559,3.5928,3.6492,3.7128,3.7808,3.858,3.931,3.9948,4.0197,4.0373,4.049,4.049,4.049,4.049,4.049,4.049,4.049,4.049,4.049,4.049,4.049,4.049,4.049,4.049,4.049,4.049,4.049,4.0768,2.0681,2.143,2.1857,2.1649,2.106,2.0428,2.0104,1.913,1.8303,1.8196,1.8357,1.8517,1.8637,1.9132,1.999,2.1315,2.1716,2.2552,2.4639,2.6012,2.7282,2.854,3.0186,3.1269,3.133,3.1797,3.2144,3.2265,3.2594,3.2888,3.3133,3.304,3.2933,3.2875,3.3026,3.3,3.2755,3.3414,3.3921,3.428,3.4696,3.5017,3.5191,3.5191,3.5191,3.5164,3.4576,3.4322,0.0,3.3668,3.3414,3.3427,3.3547,3.3895,3.4336,3.4442,3.479,3.5191,3.5191,3.5191,3.5191,3.5191,3.5191,3.5191,3.5191,3.5191,3.5191,3.5191,3.5191,3.5191,3.5191,3.5191,3.5191,3.5191,3.5191,3.5191,3.5191,3.5191,3.5191,3.5191,3.5191,3.5191,3.5191,3.5349,3.5559,3.5665,3.6484,3.7297,3.7939,3.884,3.9601,4.0138,4.0358,4.049,4.049,4.049,4.049,4.049,4.049,4.049,4.049,4.049,4.049,4.049,4.049,4.049,4.049,4.049,4.049,4.049,4.049,4.0841,0.0,2.0668,2.0989,2.1274,2.0695,1.9997,1.9746,1.881,0.0,1.837,1.8464,1.8584,1.8876,1.9399,2.0,2.0712,2.1288,2.2572,2.5197,2.6011,2.7135,2.9339,3.0159,3.06,3.0795,3.1623,3.2251,3.2567,3.2888,3.3133,3.34,3.3133,3.2888,3.2607,3.3093,3.3253,3.2986,3.3868,3.4469,3.4815,3.5057,3.5191,3.5191,3.5191,3.5191,0.0,3.4576,3.4322,3.4269,3.3668,3.3414,3.344,3.3761,3.4068,3.4362,3.4708,3.495,3.5191,3.5191,3.5191,3.5191,3.5191,3.5191,3.5191,3.5191,3.5191,3.5191,3.5191,3.5191,3.5191,3.5191,3.5191,3.5191,3.5191,3.5191,3.5191,3.5191,3.5191,3.5191,3.5191,3.5191,3.5191,3.5191,3.5612,3.577,3.5243,3.6385,3.7419,3.7741,3.8657,3.9582,4.0376,4.049,4.049,4.049,4.049,4.049,4.049,4.049,4.049,4.049,4.049,4.049,4.049,4.049,4.049,4.049,4.049,4.049,4.049,4.0519,4.0841,1.7755,0.0,1.9065,1.8876,1.885,1.8824,0.0,1.8195,1.7969,1.7836,1.817,1.8651,1.9201,1.9401,2.0027,2.1737,2.2124,2.314,2.5812,2.8031,2.9744,3.0702,3.1142,3.1303,3.1142,3.1917,3.2527,3.2594,3.3026,3.3334,3.3414,3.3133,3.2888,3.2607,3.2942,3.3053,3.2973,3.3868,3.4469,3.4815,3.5057,3.5191,3.5191,3.5191,3.5191,3.5164,3.4576,3.4322,3.4269,3.3668,3.3414,3.344,3.3761,3.4068,3.4362,3.4708,3.495,3.5191,3.5191,3.5191,3.5191,3.5191,3.5191,3.5191,3.5191,3.5191,3.5191,3.5191,3.5191,3.5191,3.5191,3.5191,3.5191,3.5191,3.5191,3.5191,3.5191,3.5191,3.5191,3.5191,3.5191,3.5191,3.5191,3.5296,3.5362,3.5191,3.6385,3.7419,3.7741,3.898,4.0015,4.0446,4.049,4.049,4.049,4.049,4.049,4.049,4.049,4.049,4.049,4.049,4.049,4.049,4.049,4.049,4.049,4.049,4.049,4.049,4.0779,4.109,1.6444,1.7395,1.8249,1.8236,1.837,1.845,1.8263,1.8009,1.7782,1.7622,1.809,1.8624,1.9078,1.9963,2.0913,2.189,2.3046,2.4676,2.7068,2.9155,3.0627,3.1156,3.137,3.1503,3.161,3.2233,3.2648,3.2781,3.316,3.3414,3.3414,3.3013,3.2755,3.2594,3.2607,3.2706,3.2973,3.3868,3.4469,3.4815,3.5057,3.5191,3.5191,3.5191,3.5191,3.5164,3.4576,3.4322,3.4269,3.3668,3.3414,3.3454,3.3908,3.4189,3.4376,3.4803,3.5057,3.5191,3.5191,3.5191,3.5191,3.5191,3.5191,3.5191,3.5191,3.5191,3.5191,3.5191,3.5191,3.5191,3.5191,3.5191,3.5191,3.5191,3.5191,3.5191,3.5191,3.5191,3.5191,3.5191,3.5191,3.5191,3.5191,3.5191,3.5191,3.5191,3.6385,3.7419,3.7741,3.9088,4.0124,4.0446,4.049,4.049,4.049,4.049,4.049,4.049,4.049,4.049,4.049,4.049,4.049,4.049,4.049,4.049,4.049,4.049,4.049,4.049,4.0705,4.1002,1.5821,1.7022,1.8169,1.8263,1.8384,1.8477,1.8437,1.8063,1.7742,1.7742,1.817,1.8731,1.9263,2.0735,2.1911,2.2104,2.4249,2.6587,2.8537,2.982,3.0774,3.1169,3.1263,3.149,3.1984,3.2393,3.2714,3.2959,3.3253,3.3414,3.3414,3.2915,3.2594,3.2594,3.2251,3.2358,3.2906,3.3801,3.4429,3.4815,3.5057,3.5191,3.5191,3.5191,3.5191,3.5164,3.4576,0.0,3.4269,3.3668,3.344,3.3534,3.4095,3.4349,3.4456,3.499,3.5191,3.5191,3.5191,3.5191,3.5191,3.5191,3.5191,3.5191,3.5191,3.5191,3.5191,3.5191,3.5191,3.5191,3.5191,3.5191,3.5191,3.5191,3.5191,3.5191,3.5191,3.5191,3.5191,3.5191,3.5191,3.5191,3.5191,3.5191,3.5243,3.5296,3.6438,3.7472,3.7901,3.9142,4.0124,4.0446,4.049,4.049,4.049,4.049,4.049,4.049,4.049,4.049,4.049,4.049,4.049,4.049,4.049,4.049,4.049,4.049,4.049,4.049,4.0534,4.0885,1.6286,1.7636,1.8529,1.7622,1.7956,1.8424,1.8143,1.8209,1.8357,1.8357,1.8624,1.9399,2.1189,2.1363,2.1964,2.4218,2.6372,2.8245,2.9526,3.0728,3.141,3.1203,3.145,3.1684,3.173,3.2273,3.2714,3.2959,3.3253,3.3414,3.3414,3.2915,3.2594,3.2594,3.2251,3.2265,3.2661,3.3557,3.4229,3.4815,3.5057,3.5191,3.5191,3.5191,3.5191,3.5164,0.0,3.4322,3.4269,3.3668,3.3574,3.3841,3.4189,3.4469,3.4736,3.507,3.5191,3.5191,3.5191,3.5191,3.5191,3.5191,3.5191,3.5191,3.5191,3.5191,3.5191,3.5191,3.5191,3.5191,3.5191,3.5191,3.5191,3.5191,3.5191,3.5191,3.5191,3.5191,3.5191,3.5191,3.5191,3.5191,3.5191,3.5191,3.5349,3.5823,3.6702,3.7592,3.8437,3.9411,4.0124,4.0446,4.049,4.049,4.049,4.049,4.049,4.049,4.049,4.049,4.049,4.049,4.049,4.049,4.049,4.049,4.049,4.049,4.049,4.049,4.0768,4.109,1.5641,1.6872,1.7983,1.8117,1.916,2.0177,2.0174,2.016,2.0137,1.9933,2.0134,2.0775,2.2224,2.302,2.4462,2.7455,2.8323,2.9045,3.0221,3.0715,3.1022,3.1162,3.1343,3.161,3.2139,3.2433,3.2781,3.3187,3.3334,3.3347,3.3187,3.2822,3.2527,3.2367,3.2024,3.2091,3.2594,3.3267,3.3935,3.4536,3.4977,3.5191,3.5191,3.5191,3.5191,3.5164,0.0,3.4322,3.4269,3.3668,3.3601,3.3921,3.4202,3.4496,3.4855,3.5084,3.5191,3.5191,3.5191,3.5191,3.5191,3.5191,3.5191,3.5191,3.5191,3.5191,3.5191,3.5191,3.5191,3.5191,3.5191,3.5191,3.5191,3.5191,3.5191,3.5191,3.5191,3.5191,3.5191,3.5191,3.5191,3.5191,3.5191,3.5191,3.5401,3.5928,3.6616,3.7448,3.8529,3.932,3.9934,4.0446,4.049,4.049,4.049,4.049,4.049,4.049,4.049,4.049,4.049,4.049,4.049,4.049,4.049,4.049,4.049,4.049,4.049,4.049,4.0651,4.0885,1.545,1.6496,1.7769,1.8903,2.0147,2.1261,2.1924,2.1836,2.1596,2.1617,2.1871,2.2372,2.3255,2.489,2.6987,2.9619,2.9713,2.9775,3.0849,3.0855,3.0881,3.1276,3.133,3.165,3.2514,3.2594,3.2835,3.3374,3.3414,3.332,3.3093,3.2795,3.2487,3.2211,3.1864,3.2005,3.2581,3.312,3.3721,3.4322,3.491,3.5191,3.5191,3.5191,3.5191,3.5164,3.4576,3.4322,3.4282,3.3748,3.3708,3.4015,3.4309,3.4603,3.4949,3.511,3.5191,3.5191,3.5191,3.5191,3.5191,3.5191,3.5191,3.5191,3.5191,3.5191,3.5191,3.5191,3.5191,3.5191,3.5191,3.5191,3.5191,3.5191,3.5191,3.5191,3.5191,3.5191,3.5191,3.5191,3.5191,3.5191,3.5191,3.5191,3.5401,3.6086,3.6597,3.7399,3.8729,3.9242,3.9758,4.0402,4.049,4.049,4.049,4.049,4.049,4.049,4.049,4.049,4.049,4.049,4.049,4.049,4.049,4.049,4.049,4.049,4.049,4.049,4.049,4.0705,1.675,1.7702,1.8677,1.9823,1.9826,2.0057,2.1951,2.1984,2.189,2.2939,2.3407,2.391,2.4793,2.6626,2.8259,2.8961,2.9993,3.0889,3.1564,3.1631,3.1631,3.1684,3.1684,3.1925,3.2541,3.2594,3.2835,3.3374,3.3414,3.34,3.3387,3.2902,3.2581,3.2567,3.2019,3.2005,3.2581,3.3146,3.3684,3.4322,3.491,3.5191,3.5191,3.5191,3.5191,3.5164,3.4576,3.4322,3.4295,3.3975,3.4028,3.4322,3.4616,3.491,3.5164,3.5191,3.5191,3.5191,3.5191,3.5191,3.5191,3.5191,3.5191,3.5191,3.5191,3.5191,3.5191,3.5191,3.5191,3.5191,3.5191,3.5191,3.5191,3.5191,3.5191,3.5191,3.5191,3.5191,3.5191,3.5191,3.5191,3.5191,3.5191,3.5191,3.5559,3.6649,3.6859,3.7504,3.9208,3.9456,3.9758,4.0402,4.049,4.049,4.049,4.049,4.049,4.049,4.049,4.049,4.049,4.049,4.049,4.049,4.049,4.049,4.049,4.049,4.049,4.049,4.049,4.0705,1.6152,1.7248,1.8463,1.9666,2.0347,2.1248,2.31,2.3781,2.4142,2.4596,2.5064,2.5558,2.6066,2.815,2.974,2.9606,3.0568,3.1457,3.1684,3.1711,3.1711,3.1711,3.1711,3.1952,3.2541,3.2594,3.2835,3.3374,3.3414,3.3253,3.2942,3.2714,3.2433,3.2059,3.1957,3.2179,3.2594,3.3133,3.367,3.4322,3.491,3.5191,3.5191,3.5191,3.5191,3.5164,3.4576,3.4322,3.4295,3.4002,3.4055,3.4362,3.4843,3.5097,3.5191,3.5191,3.5191,3.5191,3.5191,3.5191,3.5191,3.5191,3.5191,3.5191,3.5191,3.5191,3.5191,3.5191,3.5191,3.5191,3.5191,3.5191,3.5191,3.5191,3.5191,3.5191,3.5191,3.5191,3.5191,3.5191,3.5191,3.5191,3.5191,3.5454,3.598,3.6754,3.7173,3.7853,3.9038,3.9392,3.9685,4.0138,4.0358,4.049,4.049,4.049,4.049,4.049,4.049,4.049,4.049,4.049,4.049,4.049,4.049,4.049,4.049,4.049,4.049,4.049,4.049,4.0563,1.6462,1.7449,1.8743,2.004,2.106,2.2211,2.4048,2.4877,2.5386,2.6066,2.6453,2.6841,2.7374,2.9005,3.0194,3.0074,3.0969,3.1711,3.1711,3.1711,3.1711,3.1711,3.1711,3.1952,3.2541,3.2594,3.2835,3.3374,3.3414,3.32,3.2755,3.2648,3.2367,3.1824,3.1998,3.2251,3.2594,3.3133,3.3721,3.4322,3.4817,3.511,3.5191,3.5191,3.5191,3.5164,3.4576,3.4322,3.4309,3.4108,3.4255,3.4643,3.5044,3.5191,3.5191,3.5191,3.5191,3.5191,3.5191,3.5191,3.5191,3.5191,3.5191,3.5191,3.5191,3.5191,3.5191,3.5191,3.5191,3.5191,3.5191,3.5191,3.5191,3.5191,3.5191,3.5191,3.5191,3.5191,3.5191,3.5191,3.5191,3.5191,3.5191,3.5612,3.6191,3.6806,3.7382,3.8019,3.8877,3.9304,3.9685,4.0109,4.0358,4.049,4.049,4.049,4.049,4.049,4.049,4.049,4.049,4.049,4.049,4.049,4.049,4.049,4.049,4.049,4.049,4.049,4.049,4.049,1.8063,1.8664,1.9749,2.1208,2.181,2.2552,2.466,2.4863,2.5199,2.7281,2.7482,2.7642,2.8775,2.9001,2.9295,3.0266,3.1149,3.1711,3.1711,3.1711,3.1711,3.1711,3.1711,3.1952,3.2541,3.2594,3.2835,3.336,3.3414,3.328,3.2986,3.2741,3.246,3.2104,3.2104,3.2251,3.2594,3.3146,3.3697,3.4322,3.4629,3.491,3.5191,3.5191,3.5191,3.5164,3.4576,3.4322,3.4322,3.4322,3.467,3.5191,3.5191,3.5191,3.5191,3.5191,3.5191,3.5191,3.5191,3.5191,3.5191,3.5191,3.5191,3.5191,3.5191,3.5191,3.5191,3.5191,3.5191,3.5191,3.5191,3.5191,3.5191,3.5191,3.5191,3.5191,3.5191,3.5191,3.5191,3.5191,3.5191,3.5191,3.5204,3.5665,3.6191,3.6806,3.7382,3.8019,3.8877,3.9304,3.9758,4.0402,4.049,4.049,4.049,4.049,4.049,4.049,4.049,4.049,4.049,4.049,4.049,4.049,4.049,4.049,4.049,4.049,4.049,4.049,4.049,4.049,1.6846,1.8196,1.9826,2.0468,2.2405,2.4436,2.5503,2.5785,2.6346,2.7989,2.843,2.8617,2.8935,2.9668,3.0287,3.04,3.1149,3.1711,3.1711,3.1711,3.1711,3.1711,3.1711,3.1952,3.2541,3.2594,3.2755,3.308,3.3106,3.2893,3.2385,3.2278,3.2104,3.181,3.2246,3.25,3.2594,3.3347,3.3948,3.4322,3.4629,3.491,3.5191,3.5191,3.5084,3.4922,3.4482,3.4202,3.4028,3.4242,3.467,3.5191,3.5191,3.5191,3.5191,3.5191,3.5191,3.5191,3.5191,3.5191,3.5191,3.5191,3.5191,3.5191,3.5191,3.5191,3.5191,3.5191,3.5191,3.5191,3.5191,3.5191,3.5191,3.5191,3.5191,3.5191,3.5191,3.5191,3.5191,3.5191,3.5191,3.5309,3.5717,3.6243,3.6806,3.7382,3.7904,3.8452,3.893,3.9304,3.967,4.0095,4.0343,4.049,4.049,4.049,4.049,4.049,4.049,4.049,4.049,4.049,4.049,4.049,4.049,4.049,4.049,4.049,4.049,4.049,4.049,4.049,1.8411,1.984,2.1376,2.2105,2.3714,2.5396,2.6453,2.6974,2.7562,2.8564,2.8868,2.9135,2.9646,3.0221,3.0675,3.0895,3.1376,3.1711,3.1711,3.1711,3.1711,3.1711,3.1711,3.1952,3.2541,3.2594,3.2768,3.312,3.304,3.2772,3.2305,3.2171,3.2024,3.1851,3.2353,3.2648,3.2768,3.3494,3.4028,3.4322,3.4629,3.491,3.5191,3.5191,3.5044,3.4802,3.4456,3.4215,3.4082,3.4376,3.4776,3.5191,3.5191,3.5191,3.5191,3.5191,3.5191,3.5191,3.5191,3.5191,3.5191,3.5191,3.5191,3.5191,3.5191,3.5191,3.5191,3.5191,3.5191,3.5191,3.5191,3.5191,3.5191,3.5191,3.5191,3.5191,3.5191,3.5191,3.5243,3.5454,3.5507,3.5717,3.6243,3.6859,3.733,3.7643,3.8164,3.8608,3.8982,3.9304,3.9641,3.9963,4.0285,4.049,4.049,4.049,4.049,4.049,4.049,4.049,4.049,4.049,4.049,4.049,4.049,4.049,4.049,4.049,4.049,4.049,4.049,4.049,2.1269,2.2432,2.3585,2.501,2.5317,2.5757,2.7402,2.823,2.8724,2.8948,2.9055,2.9455,3.0595,3.0595,3.0761,3.1577,3.1711,3.1711,3.1711,3.1711,3.1711,3.1711,3.1711,3.1952,3.2541,3.2594,3.2822,3.3334,3.3133,3.2888,3.2567,3.2251,3.2104,3.2104,3.2433,3.2741,3.2973,3.3614,3.4055,3.4322,3.4643,3.4937,3.5191,3.5191,3.5017,3.4762,3.4416,3.4295,3.4349,3.4643,3.4989,3.5191,3.5191,3.5191,3.5191,3.5191,3.5191,3.5191,3.5191,3.5191,3.5191,3.5191,3.5191,3.5191,3.5191,3.5191,3.5191,3.5191,3.5191,3.5191,3.5191,3.5191,3.5191,3.5191,3.5191,3.5191,3.5191,3.5257,3.5401,3.5928,3.6033,3.6296,3.6859,3.7382,3.7695,3.7747,3.8179,3.8594,3.8939,3.926,3.9597,3.9919,4.0241,4.0446,4.049,4.049,4.049,4.049,4.049,4.049,4.049,4.049,4.049,4.049,4.049,4.049,4.049,4.049,4.049,4.049,4.049,4.049,1.877,2.0882,2.3188,2.3991,2.5516,2.7122,2.8163,2.8684,2.8921,2.8988,2.9593,3.0221,3.0702,3.0929,3.1183,3.1644,3.1711,3.1711,3.1711,3.1711,3.1711,3.1711,3.1711,3.1952,3.2541,3.2594,3.2741,3.304,3.3013,3.2746,3.2225,3.2131,3.2104,3.2104,3.2433,3.2741,3.2973,3.3814,3.4255,3.4322,3.4857,3.5137,3.5191,3.5191,3.491,3.4402,3.4108,3.4108,3.4349,3.4643,3.4989,3.5191,3.5191,3.5191,3.5191,3.5191,3.5191,3.5191,3.5191,3.5191,3.5191,3.5191,3.5191,3.5191,3.5191,3.5191,3.5191,3.5191,3.5191,3.5191,3.5191,3.5191,3.5191,3.5191,3.5191,3.5191,3.5191,3.5507,3.5875,3.598,3.6401,3.6859,3.7434,3.7643,3.7852,3.8269,3.8439,3.8506,3.8579,3.8871,3.926,3.9582,3.9904,4.0212,4.05,4.049,4.049,4.049,4.049,4.049,4.049,4.049,4.049,4.049,4.049,4.049,4.049,4.049,4.049,4.049,4.049,4.049,1.9853,2.1683,2.346,2.5088,2.6399,2.7536,2.8404,2.8831,2.9041,2.9219,2.9726,3.0274,3.0715,3.0915,3.1156,3.1597,3.1711,3.1711,3.1711,3.1711,3.1711,3.1711,3.1711,3.1952,3.2541,3.2594,3.2768,3.316,3.3053,3.2839,3.2532,3.2251,3.2225,3.2505,3.2581,3.2795,3.3187,3.3935,3.4322,3.4322,3.491,3.5124,3.4977,3.4843,3.4603,3.4309,3.4162,3.4175,3.4349,3.479,3.5057,3.5191,3.5191,3.5191,3.5191,3.5191,3.5191,3.5191,3.5191,3.5191,3.5191,3.5191,3.5191,3.5191,3.5191,3.5191,3.5191,3.5191,3.5191,3.5191,3.5191,3.5191,3.5191,3.5191,3.5191,3.5191,3.5191,3.5612,3.6086,3.6401,3.6911,3.7434,3.8008,3.806,3.8164,3.8439,3.8491,3.8491,3.8491,3.8769,3.9158,3.948,3.9802,4.0138,4.0446,4.049,4.049,4.049,4.049,4.049,4.049,4.049,4.049,4.049,4.049,4.049,4.049,4.049,4.049,4.049,4.049,4.049,2.1248,2.2739,2.4022,2.6653,2.7309,2.7563,2.847,2.8828,2.9095,2.9486,2.9793,3.0154,3.0688,3.0835,3.1049,3.1631,3.1711,3.1711,3.1711,3.1711,3.1711,3.1711,3.1711,3.1952,3.2541,3.2594,3.2835,3.3374,3.3187,3.3026,3.2986,3.2465,3.2425,3.2959,3.2741,3.2875,3.34,3.4015,3.4322,3.4322,3.491,3.5044,3.4802,3.4456,3.4295,3.4242,3.4295,3.4322,3.4362,3.495,3.5191,3.5191,3.5191,3.5191,3.5191,3.5191,3.5191,3.5191,3.5191,3.5191,3.5191,3.5191,3.5191,3.5191,3.5191,3.5191,3.5191,3.5191,3.5191,3.5191,3.5191,3.5191,3.5191,3.5191,3.5191,3.5191,3.5191,3.5717,3.6296,3.6806,3.7434,3.7956,3.8439,3.8491,3.8491,3.8491,3.8491,3.8491,3.8491,3.8725,3.907,3.9392,3.9714,4.0051,4.0373,4.0446,4.049,4.049,4.049,4.049,4.049,4.049,4.049,4.049,4.049,4.049,4.049,4.049,4.049,4.049,4.049,4.049,1.8826,2.1349,2.4325,2.6707,2.7309,2.7603,2.8681,2.8961,2.9148,2.974,3.01,3.0453,3.0728,3.0996,3.1276,3.1657,3.1711,3.1711,3.1711,3.1711,3.1711,3.1711,3.1711,3.1952,3.2541,3.2594,3.2835,3.3374,3.3374,3.324,3.2986,3.2714,3.2688,3.2973,3.2741,3.2875,3.34,3.4015,3.4322,3.4322,3.491,3.5044,3.4802,3.4456,3.4189,3.3961,3.4215,3.4322,3.4362,3.495,3.5191,3.5191,3.5191,3.5191,3.5191,3.5191,3.5191,3.5191,3.5191,3.5191,3.5191,3.5191,3.5191,3.5191,3.5191,3.5191,3.5191,3.5191,3.5191,3.5191,3.5191,3.5191,3.5191,3.5191,3.5191,3.5191,3.5191,3.6033,3.6806,3.6859,3.7695,3.8439,3.8491,3.8491,3.8491,3.8491,3.8491,3.8491,3.8491,3.8521,3.8681,3.9056,3.9377,3.9714,4.0036,4.0329,4.049,4.049,4.049,4.049,4.049,4.049,4.049,4.049,4.049,4.049,4.049,4.049,4.049,4.049,4.049,4.049,1.9535,2.2104,2.4543,2.676,2.7309,2.7617,2.8721,2.9001,2.9161,2.9793,3.0154,3.0493,3.0742,3.1036,3.1316,3.1671,3.1711,3.1711,3.1711,3.1711,3.1711,3.1711,3.1711,3.1952,3.2541,3.2594,3.2835,3.3374,3.3253,3.3106,3.2986,3.2545,3.2505,3.3009,3.2741,3.2875,3.34,3.3855,3.4242,3.4511,3.499,3.495,3.4509,3.4376,3.4255,3.4135,3.4269,3.4416,3.4603,3.5017,3.5191,3.5191,3.5191,3.5191,3.5191,3.5191,3.5191,3.5191,3.5191,3.5191,3.5191,3.5191,3.5191,3.5191,3.5191,3.5191,3.5191,3.5191,3.5191,3.5191,3.5191,3.5191,3.5191,3.5191,3.5191,3.5191,3.5191,3.5823,3.6611,3.7225,3.7956,3.8491,3.8491,3.8491,3.8491,3.8491,3.8491,3.8491,3.8491,3.8491,3.8608,3.893,3.9319,3.9641,3.9977,4.0299,4.049,4.049,4.049,4.049,4.049,4.049,4.049,4.049,4.049,4.049,4.049,4.049,4.049,4.049,4.049,4.049,1.9936,2.1964,2.3674,2.6145,2.68,2.7215,2.8655,2.9001,2.9161,2.9793,3.0207,3.0587,3.0755,3.1036,3.1316,3.1671,3.1711,3.1711,3.1711,3.1711,3.1711,3.1711,3.1711,3.1952,3.2541,3.2594,3.2835,3.3374,3.3146,3.2973,3.2973,3.2425,3.2372,3.2959,3.2741,3.2875,3.34,3.3801,3.4255,3.4711,3.4977,3.4817,3.4322,3.4242,3.4255,3.4322,3.4322,3.4496,3.4842,3.5084,3.5191,3.5191,3.5191,3.5191,3.5191,3.5191,3.5191,3.5191,3.5191,3.5191,3.5191,3.5191,3.5191,3.5191,3.5191,3.5191,3.5191,3.5191,3.5191,3.5191,3.5191,3.5191,3.5191,3.5191,3.5191,3.5296,3.5559,3.5928,3.6558,3.7695,3.8217,3.8491,3.8491,3.8491,3.8491,3.8491,3.8491,3.8491,3.8491,3.8491,3.8579,3.888,3.9275,3.9612,3.9846,4.0255,4.049,4.049,4.049,4.049,4.049,4.049,4.049,4.049,4.049,4.049,4.049,4.049,4.049,4.049,4.049,4.049,1.8436,1.9533,2.0855,2.4365,2.5398,2.6213,2.8468,2.9001,2.9161,2.9793,3.0368,3.0768,3.0795,3.1036,3.1316,3.1671,3.1711,3.1711,3.1711,3.1711,3.1711,3.1711,3.1711,3.1952,3.2541,3.2594,3.2835,3.3374,3.3146,3.2973,3.2973,3.2425,3.2372,3.2959,3.2741,3.2875,3.34,3.4002,3.4456,3.4815,3.4829,3.4629,3.4309,3.4042,3.4055,3.4322,3.4322,3.4496,3.4842,3.5084,3.5191,3.5191,3.5191,3.5191,3.5191,3.5191,3.5191,3.5191,3.5191,3.5191,3.5191,3.5191,3.5191,3.5191,3.5191,3.5191,3.5191,3.5191,3.5191,3.5191,3.5191,3.5191,3.5191,3.5191,3.5191,3.5507,3.6597,3.6806,3.7173,3.8269,3.8491,3.8491,3.8491,3.8491,3.8491,3.8491,3.8491,3.8491,3.8491,3.8491,3.8491,3.8506,3.9129,3.9524,3.9538,4.0124,4.049,4.049,4.049,4.049,4.049,4.049,4.049,4.049,4.049,4.049,4.049,4.049,4.049,4.049,4.049,4.049,1.7876,1.9036,2.0374,2.2779,2.4315,2.5651,2.7214,2.8308,2.9161,2.9793,3.0381,3.0795,3.0795,3.1183,3.1543,3.1698,3.1711,3.1711,3.1711,3.1711,3.1711,3.1711,3.1711,3.1872,3.2225,3.2487,3.2755,3.3106,3.2915,3.2755,3.2755,3.2193,3.2011,3.2398,3.2554,3.2875,3.34,3.4015,3.4376,3.4482,3.4721,3.4603,3.4309,3.4015,3.4042,3.4322,3.4322,3.4589,3.5044,3.5151,3.5191,3.5191,3.5191,3.5191,3.5191,3.5191,3.5191,3.5191,3.5191,3.5191,3.5191,3.5191,3.5191,3.5191,3.5191,3.5191,3.5191,3.5191,3.5191,3.5191,3.5191,3.5191,3.5191,3.5191,3.5191,3.5401,3.6138,3.6649,3.712,3.7852,3.8269,3.8491,3.8491,3.8491,3.8491,3.8491,3.8491,3.8491,3.8491,3.8491,3.8491,3.8491,3.9129,3.9509,3.9509,4.0109,4.049,4.049,4.049,4.049,4.049,4.049,4.049,4.049,4.049,4.049,4.049,4.049,4.049,4.049,4.049,4.049,1.6835,1.7943,1.9279,2.1443,2.2726,2.4075,2.644,2.7589,2.8457,2.9553,3.0234,3.0675,3.0768,3.1196,3.1557,3.1698,3.1711,3.1711,3.1711,3.1711,3.1711,3.1711,3.1711,3.1831,3.2078,3.242,3.2674,3.2875,3.2701,3.2554,3.2447,3.1979,3.1851,3.2238,3.2581,3.2969,3.3414,3.4015,3.4322,3.4322,3.4523,3.4509,3.4309,3.3908,3.3948,3.4322,3.4322,3.4656,3.5191,3.5191,3.5191,3.5191,3.5191,3.5191,3.5191,3.5191,3.5191,3.5191,3.5191,3.5191,3.5191,3.5191,3.5191,3.5191,3.5191,3.5191,3.5191,3.5191,3.5191,3.5191,3.5191,3.5191,3.5191,3.5191,3.5191,3.5349,3.5875,3.6453,3.7068,3.7591,3.8112,3.8491,3.8491,3.8491,3.8491,3.8491,3.8491,3.8491,3.8491,3.8491,3.8491,3.8491,3.9026,3.9392,3.9509,4.0007,4.0373,4.049,4.049,4.049,4.049,4.049,4.049,4.049,4.049,4.049,4.049,4.049,4.049,4.049,4.049,4.0912,0.0,0.0,0.0,2.0281,2.057,2.1398,2.6078,2.6734,2.6907,2.8991,2.9931,3.044,3.0728,3.1036,3.1316,3.1671,3.1711,3.1711,3.1711,3.1711,3.1711,3.1711,3.1711,3.1784,3.2064,3.242,3.2594,3.2594,3.2594,3.2474,3.2131,3.1837,3.1992,3.2581,3.2875,3.3106,3.3414,3.4015,3.4322,3.4309,3.4322,3.4322,3.4282,3.3681,3.3748,3.4322,3.4322,3.4656,3.5191,3.5191,3.5191,3.5191,3.5191,3.5191,3.5191,3.5191,3.5191,3.5191,3.5191,3.5191,3.5191,3.5191,3.5191,3.5191,3.5191,3.5191,3.5191,3.5191,3.5191,3.5191,3.5191,3.5191,3.5191,3.5191,3.5191,3.5349,3.5875,3.6453,3.7068,3.7591,3.8112,3.8491,3.8491,3.8491,3.8491,3.8491,3.8491,3.8491,3.8491,3.8491,3.8491,3.8491,3.8784,3.9158,3.948,3.9816,4.0138,4.05,4.049,4.049,4.049,4.049,4.049,4.049,4.049,4.049,4.049,4.049,4.049,4.049,4.049,4.1698,1.5146,0.0,0.0,0.0,0.0,0.0,2.2679,2.4008,2.5398,2.7496,2.8393,2.9222,3.0541,3.1036,3.1316,3.1671,3.1711,3.1711,3.1711,3.1711,3.1711,3.1711,3.1711,3.1751,3.1784,3.23,3.2594,0.0,3.2594,3.2554,3.2474,3.1992,3.1992,3.2581,3.2674,3.2906,3.3414,3.4015,3.4215,3.4015,3.4215,3.4215,3.3988,3.3587,3.3748,3.4322,3.4322,3.4656,3.5191,3.5191,3.5191,3.5191,3.5191,3.5191,3.5191,3.5191,3.5191,3.5191,3.5191,3.5191,3.5191,3.5191,3.5191,3.5191,3.5191,3.5191,3.5191,3.5191,3.5191,3.5191,3.5191,3.5191,3.5191,3.5191,3.5191,3.5349,3.5875,3.6453,3.7068,3.7591,3.8112,3.8491,3.8491,3.8491,3.8491,3.8491,3.8491,3.8491,3.8491,3.8491,3.8491,3.8491,3.8784,3.9158,3.948,3.9816,4.0138,4.05,4.049,4.049,4.049,4.049,4.049,4.049,4.049,4.049,4.049,4.049,4.049,4.049,4.049,4.1698,1.5404,1.6005,1.686,1.7568,0.0,0.0,2.2091,2.3273,2.4596,2.7268,2.8339,2.9102,3.0207,3.0768,3.1142,3.1436,3.1583,3.1711,3.1711,3.1711,3.1711,3.1711,3.1711,3.1711,3.1711,3.2246,3.2541,3.242,3.2527,3.2487,3.2246,3.1898,3.1992,3.2581,3.2594,3.2875,3.34,3.4015,3.4175,3.3895,3.4189,3.4162,3.3881,3.3561,3.3748,3.4322,3.4322,3.4656,3.5191,3.5191,3.5191,3.5191,3.5191,3.5191,3.5191,3.5191,3.5191,3.5191,3.5191,3.5191,3.5191,3.5191,3.5191,3.5191,3.5191,3.5191,3.5191,3.5191,3.5191,3.5191,3.5191,3.5191,3.5191,3.5191,3.5191,3.5349,3.5875,3.6453,3.7068,3.7591,3.8112,3.8491,3.8491,3.8491,3.8491,3.8491,3.8491,3.8491,3.8491,3.8491,3.8491,3.8491,3.8652,3.8953,3.9275,3.9612,3.9934,4.0255,4.0402,4.049,4.049,4.049,4.049,4.049,4.049,4.049,4.049,4.049,4.049,4.049,4.049,4.2226,1.6194,1.6568,1.7338,1.8157,1.7942,0.0,2.2599,2.3193,2.3821,2.7094,2.8243,2.8791,2.9245,2.9833,3.0341,3.0595,3.1089,3.1537,3.1698,3.1711,3.1711,3.1711,3.1711,3.1711,3.1711,3.2219,3.2447,3.2171,3.2447,3.234,3.1751,3.1751,3.2005,3.2527,3.2607,3.2902,3.3414,3.4015,3.4175,3.3895,3.4189,3.4148,3.3828,3.3534,3.3748,3.4322,3.4322,3.4656,3.5191,3.5191,3.5191,3.5191,3.5191,3.5191,3.5191,3.5191,3.5191,3.5191,3.5191,3.5191,3.5191,3.5191,3.5191,3.5191,3.5191,3.5191,3.5191,3.5191,3.5191,3.5191,3.5191,3.5191,3.5191,3.5191,3.5191,3.5349,3.598,3.6492,3.7068,3.7643,3.8164,3.8491,3.8491,3.8491,3.8491,3.8491,3.8491,3.8491,3.8491,3.8491,3.8491,3.8491,3.8491,3.8623,3.8944,3.9319,3.9656,3.9977,4.0299,4.049,4.049,4.049,4.049,4.049,4.049,4.049,4.049,4.049,4.049,4.049,4.049,4.2767,1.812,1.8624,1.9471,1.786,1.8581,0.0,1.9292,1.9706,2.0632,2.2231,2.3033,2.3901,2.536,2.6346,2.6961,2.7015,2.8631,3.0327,3.155,3.1711,3.1711,3.1711,3.1711,3.1711,3.1711,3.1984,3.2265,3.25,3.2567,3.234,3.1751,3.1891,3.2064,3.2185,3.2652,3.3066,3.3414,3.4015,3.4175,3.3895,3.4189,3.4028,3.3507,3.344,3.3748,3.4322,3.4322,3.4656,3.5191,3.5191,3.5191,3.5191,3.5191,3.5191,3.5191,3.5191,3.5191,3.5191,3.5191,3.5191,3.5191,3.5191,3.5191,3.5191,3.5191,3.5191,3.5191,3.5191,3.5191,3.5191,3.5191,3.5191,3.5191,3.5191,3.5191,3.5454,3.6492,3.6806,3.7173,3.8164,3.8439,3.8491,3.8491,3.8491,3.8491,3.8491,3.8491,3.8491,3.8491,3.8491,3.8491,3.8491,3.8491,3.8623,3.8944,3.9319,3.9656,3.9977,4.0299,4.049,4.049,4.049,4.049,4.049,4.049,4.049,4.049,4.049,4.049,4.049,4.049,4.197,1.9831,2.0087,2.0775,1.9642,1.9699,0.0,0.0,2.0392,2.0406,2.2609,2.2835,2.2979,2.4008,2.481,2.5344,2.5529,2.7416,2.8915,2.9062,3.06,3.1711,3.1711,3.1711,3.1711,3.1711,3.1931,3.2171,3.2367,3.2514,3.234,3.1751,3.181,3.2024,3.2367,3.2661,3.2973,3.3414,3.3868,3.3948,3.3654,3.3961,3.3855,3.3414,3.3414,3.3748,3.4322,3.4322,3.4656,3.5191,3.5191,3.5191,3.5191,3.5191,3.5191,3.5191,3.5191,3.5191,3.5191,3.5191,3.5191,3.5191,3.5191,3.5191,3.5191,3.5191,3.5191,3.5191,3.5191,3.5191,3.5191,3.5191,3.5191,3.5191,3.5191,3.5191,3.5507,3.6649,3.6911,3.7225,3.8283,3.8491,3.8491,3.8491,3.8491,3.8491,3.8491,3.8491,3.8491,3.8491,3.8491,3.8491,3.8491,3.8491,3.855,3.8711,3.9085,3.9334,3.9509,3.9977,4.0241,4.0241,4.0402,4.049,4.049,4.049,4.049,4.049,4.049,4.049,4.049,4.049,4.1698,2.1876,2.1648,2.2044,2.1439,2.0914,2.0941,0.0,0.0,0.0,2.313,2.3076,2.2626,2.2767,2.3233,2.3688,2.3861,2.5757,2.68,2.5692,2.839,3.0541,3.0761,3.1236,3.1503,3.131,3.1463,3.1717,3.1998,3.2032,3.1925,3.1724,3.1764,3.1992,3.2407,3.2594,3.2875,3.324,3.3668,3.3721,3.3414,3.3734,3.3721,3.3414,3.3414,3.3748,3.4322,3.4322,3.4656,3.5191,3.5191,3.5191,3.5191,3.5191,3.5191,3.5191,3.5191,3.5191,3.5191,3.5191,3.5191,3.5191,3.5191,3.5191,3.5191,3.5191,3.5191,3.5191,3.5191,3.5191,3.5191,3.5191,3.5191,3.5191,3.5191,3.5191,3.5507,3.6649,3.6911,3.7225,3.8283,3.8491,3.8491,3.8491,3.8491,3.8491,3.8491,3.8491,3.8491,3.8491,3.8491,3.8491,3.8491,3.8491,3.8491,3.8491,3.8784,3.9026,3.9026,3.9582,3.9934,3.9992,4.0314,4.049,4.049,4.049,4.049,4.049,4.049,4.049,4.049,4.049,4.1496,2.4879,2.4213,2.396,2.1215,2.1902,2.2375,1.9108,0.0,2.1009,1.8878,0.0,1.9904,1.9224,0.0,0.0,1.9666,2.181,2.3268,2.2579,2.4636,2.6493,2.7241,2.9642,3.0875,2.9833,2.9766,3.0327,3.1671,3.0541,3.0368,3.1644,3.1917,3.1971,3.1818,3.2567,3.2888,3.2701,3.3467,3.3721,3.3414,3.3734,3.3721,3.3414,3.3414,3.3748,3.4322,3.4322,3.4656,3.5191,3.5191,3.5191,3.5191,3.5191,3.5191,3.5191,3.5191,3.5191,3.5191,3.5191,3.5191,3.5191,3.5191,3.5191,3.5191,3.5191,3.5191,3.5191,3.5191,3.5191,3.5191,3.5191,3.5191,3.5191,3.5191,3.5191,3.5507,3.6649,3.6911,3.7225,3.8283,3.8491,3.8491,3.8491,3.8491,3.8491,3.8491,3.8491,3.8491,3.8491,3.8491,3.8491,3.8491,3.8491,3.8491,3.8491,3.8784,3.9026,3.9026,3.9363,3.9699,3.9992,4.0314,4.049,4.049,4.049,4.049,4.049,4.049,4.049,4.049,4.049,4.0639,2.5972,2.628,2.6752,2.4268,2.4552,2.4639,2.1496,2.1034,2.0977,1.9968,0.0,0.0,0.0,0.0,0.0,0.0,2.0561,2.1456,2.0361,2.2832,2.5144,2.6199,0.0,0.0,2.8925,2.9285,3.002,0.0,3.0368,3.0301,3.1644,3.1831,3.1877,3.1917,3.2278,3.2541,3.2594,3.3143,3.3293,3.316,3.3467,3.3534,3.3414,3.3414,3.3748,3.4322,3.4322,3.4656,3.5191,3.5191,3.5191,3.5191,3.5191,3.5191,3.5191,3.5191,3.5191,3.5191,3.5191,3.5191,3.5191,3.5191,3.5191,3.5191,3.5191,3.5191,3.5191,3.5191,3.5191,3.5191,3.5191,3.5191,3.5191,3.5191,3.5191,3.5507,3.6649,3.6911,3.7225,3.8283,3.8491,3.8491,3.8491,3.8491,3.8491,3.8491,3.8491,3.8491,3.8491,3.8491,3.8491,3.8491,3.8491,3.8491,3.8491,3.8608,3.8681,3.8681,3.9003,3.9465,3.9977,4.0124,4.0285,4.049,4.049,4.049,4.049,4.049,4.049,4.0544,4.1861,4.1753,2.7536,2.7999,2.8493,2.6136,2.5891,2.5566,2.3067,2.238,2.2103,2.149,2.0786,0.0,0.0,0.0,1.8223,1.8517,0.0,1.984,1.8611,2.0788,2.2953,2.4165,2.4954,0.0,0.0,0.0,0.0,0.0,0.0,2.9793,3.1463,3.1671,3.177,3.1971,3.2144,3.2291,3.2474,3.2866,3.3053,3.2986,3.328,3.3414,3.3414,3.3414,3.3748,3.4322,3.4322,3.4656,3.5191,3.5191,3.5191,3.5191,3.5191,3.5191,3.5191,3.5191,3.5191,3.5191,3.5191,3.5191,3.5191,3.5191,3.5191,3.5191,3.5191,3.5191,3.5191,3.5191,3.5191,3.5191,3.5191,3.5191,3.5191,3.5191,3.5191,3.5454,3.6439,3.6754,3.7173,3.8112,3.8387,3.8491,3.8491,3.8491,3.8491,3.8491,3.8491,3.8491,3.8491,3.8491,3.8491,3.8491,3.8491,3.8491,3.8491,3.8491,3.8491,3.8491,3.8798,3.9231,3.9714,3.9904,4.0109,4.0343,4.0446,4.049,4.049,4.049,4.049,4.0544,4.2859,4.3021,3.0345,2.9413,2.8487,2.5192,2.4712,2.4334,2.1593,2.3505,2.4996,2.2081,2.2277,2.2492,2.0972,1.9487,1.829,1.7742,1.7889,0.0,0.0,1.7809,1.8649,1.9853,2.2271,0.0,0.0,2.5024,0.0,0.0,0.0,0.0,3.1042,3.1517,3.1724,3.1724,3.2286,3.2447,3.2118,3.2973,3.3253,3.2986,3.328,3.3414,3.3414,3.3414,3.3748,3.4322,3.4322,3.4656,3.5191,3.5191,3.5191,3.5191,3.5191,3.5191,3.5191,3.5191,3.5191,3.5191,3.5191,3.5191,3.5191,3.5191,3.5191,3.5191,3.5191,3.5191,3.5191,3.5191,3.5191,3.5191,3.5191,3.5191,3.5191,3.5191,3.5191,3.5349,3.5928,3.6492,3.7068,3.7643,3.8112,3.8491,3.8491,3.8491,3.8491,3.8491,3.8491,3.8491,3.8491,3.8491,3.8491,3.8491,3.8491,3.8491,3.8491,3.8491,3.8491,3.8491,3.8798,3.9026,3.9056,3.9656,4.0007,4.0021,4.0329,4.049,4.049,4.049,4.049,4.0544,4.2859,4.3867,0.0,0.0,3.2618,2.9074,2.8708,2.8091,2.3742,2.4439,2.5341,2.3038,2.2852,2.2847,2.1973,1.9986,1.8424,1.8223,1.8076,1.7742,0.0,1.722,1.7996,1.9374,2.151,2.3073,0.0,0.0,0.0,0.0,0.0,0.0,0.0,3.1316,3.1463,3.1711,3.2051,3.2211,3.2104,3.2786,3.308,3.2986,3.328,3.3414,3.3414,3.3414,3.3748,3.4322,3.4322,3.4656,3.5191,3.5191,3.5191,3.5191,3.5191,3.5191,3.5191,3.5191,3.5191,3.5191,3.5191,3.5191,3.5191,3.5191,3.5191,3.5191,3.5191,3.5191,3.5191,3.5191,3.5191,3.5191,3.5191,3.5191,3.5191,3.5191,3.5191,3.5454,3.6401,3.6754,3.7173,3.806,3.8387,3.8491,3.8491,3.8491,3.8491,3.8491,3.8491,3.8491,3.8491,3.8491,3.8491,3.8491,3.8491,3.8491,3.8491,3.8491,3.8491,3.8491,3.8594,3.874,3.8959,3.9231,3.9553,3.9992,4.0109,4.027,4.049,4.049,4.049,4.0614,4.435,4.5297,3.3873,3.4825,0.0,3.1671,3.1322,0.0,2.6551,2.6685,2.7266,2.5732,2.4839,2.4359,2.4446,2.1624,1.9208,1.9003,1.8263,0.0,0.0,1.6926,1.7594,1.8639,2.0267,2.1657,0.0,0.0,0.0,0.0,0.0,0.0,0.0,0.0,3.1356,3.1711,3.1944,3.2158,3.2251,3.2732,3.3026,3.3133,3.332,3.3414,3.3414,3.3414,3.3748,3.4322,3.4322,3.4656,3.5191,3.5191,3.5191,3.5191,3.5191,3.5191,3.5191,3.5191,3.5191,3.5191,3.5191,3.5191,3.5191,3.5191,3.5191,3.5191,3.5191,3.5191,3.5191,3.5191,3.5191,3.5191,3.5191,3.5191,3.5191,3.5191,3.5362,3.5665,3.6401,3.6911,3.7382,3.806,3.8387,3.8491,3.8491,3.8491,3.8491,3.8491,3.8491,3.8491,3.8491,3.8491,3.8491,3.8491,3.8491,3.8491,3.8491,3.8491,3.8491,3.8491,3.8491,3.8579,3.8784,3.8968,3.9217,3.9641,3.9773,3.9934,4.0138,4.0255,4.0314,4.0423,4.5034,4.6451]},{"header":{"parameterUnit":"m.s-1","parameterCategory":1,"la1":30.6,"la2":29.2853,"lo1":-89.7004,"lo2":-87.6739,"dx":0.0162,"dy":0.0183,"nx":112,"ny":82,"refTime":"2022-11-07T18:00:00:Z","depth":0,"parameterNumber":3,"parameterNumberName":"V-component_of_WINDS"},"data":[0.0,0.0,0.0,0.0,0.0,0.0,0.0,0.0,0.0,0.0,0.0,0.0,0.0,0.0,0.0,0.0,0.0,0.0,0.0,0.0,0.0,0.0,0.0,0.0,0.0,0.0,0.0,0.0,0.0,0.0,0.0,0.0,0.0,0.0,0.0,0.0,0.0,0.0,0.0,0.0,0.0,0.0,0.0,0.0,0.0,0.0,0.0,0.0,0.0,0.0,0.0,0.0,0.0,0.0,0.0,0.0,0.0,0.0,0.0,0.0,0.0,0.0,0.0,0.0,0.0,0.0,0.0,0.0,0.0,0.0,0.0,0.0,0.0,0.0,0.0,0.0,0.0,0.0,0.0,0.0,0.0,0.0,0.0,0.0,0.0,0.0,0.0,0.0,0.0,0.0,4.9315,5.2015,5.6332,5.9038,5.9015,5.888,5.6355,5.0644,0.0,0.0,0.0,0.0,0.0,0.0,0.0,0.0,0.0,0.0,0.0,0.0,0.0,0.0,0.0,0.0,0.0,0.0,0.0,0.0,0.0,0.0,0.0,0.0,0.0,0.0,0.0,0.0,0.0,0.0,0.0,0.0,0.0,0.0,0.0,0.0,0.0,0.0,0.0,0.0,0.0,0.0,0.0,0.0,0.0,0.0,0.0,0.0,0.0,0.0,0.0,0.0,0.0,0.0,0.0,0.0,0.0,0.0,0.0,0.0,0.0,0.0,0.0,0.0,0.0,0.0,0.0,0.0,0.0,0.0,0.0,0.0,0.0,0.0,0.0,0.0,0.0,0.0,0.0,0.0,0.0,0.0,0.0,0.0,0.0,0.0,0.0,0.0,0.0,0.0,0.0,0.0,0.0,0.0,0.0,0.0,0.0,0.0,0.0,0.0,0.0,0.0,0.0,0.0,4.9588,5.769,5.9809,6.0612,6.049,6.0467,5.7768,5.1513,0.0,0.0,0.0,0.0,0.0,0.0,0.0,0.0,0.0,0.0,0.0,0.0,0.0,0.0,0.0,0.0,0.0,0.0,0.0,0.0,0.0,0.0,0.0,0.0,0.0,0.0,0.0,0.0,0.0,0.0,0.0,0.0,0.0,0.0,0.0,0.0,0.0,0.0,0.0,0.0,0.0,0.0,0.0,0.0,0.0,0.0,0.0,0.0,0.0,0.0,0.0,0.0,0.0,0.0,0.0,0.0,0.0,0.0,0.0,0.0,0.0,0.0,0.0,0.0,0.0,0.0,0.0,0.0,0.0,0.0,0.0,0.0,0.0,0.0,0.0,0.0,0.0,0.0,0.0,0.0,0.0,0.0,0.0,0.0,0.0,0.0,0.0,0.0,0.0,0.0,0.0,0.0,0.0,0.0,0.0,0.0,0.0,0.0,0.0,0.0,0.0,0.0,0.0,4.9281,5.346,6.0306,6.1349,6.152,6.1457,6.105,5.8275,5.2347,4.817,0.0,0.0,0.0,0.0,0.0,0.0,0.0,0.0,0.0,0.0,0.0,0.0,0.0,0.0,0.0,0.0,0.0,0.0,0.0,0.0,0.0,0.0,0.0,0.0,0.0,0.0,0.0,0.0,0.0,0.0,0.0,0.0,0.0,0.0,0.0,0.0,0.0,0.0,0.0,0.0,0.0,0.0,0.0,0.0,0.0,0.0,0.0,0.0,0.0,0.0,0.0,0.0,0.0,0.0,0.0,0.0,0.0,0.0,0.0,0.0,0.0,0.0,0.0,0.0,0.0,0.0,0.0,0.0,0.0,0.0,0.0,0.0,0.0,0.0,0.0,0.0,0.0,0.0,0.0,0.0,0.0,0.0,0.0,0.0,0.0,0.0,0.0,0.0,0.0,0.0,0.0,0.0,0.0,0.0,0.0,0.0,0.0,0.0,0.0,0.0,0.0,0.0,5.5494,5.8011,6.1616,6.2173,6.2209,6.2028,6.1448,5.8624,5.2842,4.8894,0.0,0.0,0.0,0.0,0.0,0.0,0.0,0.0,0.0,0.0,0.0,0.0,0.0,0.0,0.0,0.0,0.0,0.0,0.0,0.0,0.0,0.0,0.0,0.0,0.0,0.0,0.0,0.0,0.0,0.0,0.0,0.0,0.0,0.0,0.0,0.0,0.0,0.0,0.0,0.0,0.0,0.0,0.0,0.0,0.0,0.0,0.0,0.0,0.0,0.0,0.0,0.0,0.0,0.0,0.0,0.0,0.0,0.0,0.0,0.0,0.0,0.0,0.0,0.0,0.0,0.0,0.0,0.0,0.0,0.0,0.0,0.0,0.0,0.0,0.0,0.0,0.0,0.0,0.0,0.0,0.0,0.0,0.0,0.0,0.0,0.0,0.0,0.0,0.0,0.0,0.0,0.0,0.0,0.0,0.0,0.0,0.0,0.0,0.0,0.0,0.0,0.0,5.7212,6.1781,6.1973,6.2657,6.2802,6.2064,6.1955,5.9203,5.2878,4.9438,0.0,0.0,0.0,0.0,0.0,0.0,0.0,0.0,0.0,0.0,0.0,0.0,0.0,0.0,0.0,0.0,0.0,0.0,0.0,0.0,0.0,0.0,0.0,0.0,0.0,0.0,0.0,0.0,0.0,0.0,0.0,0.0,0.0,0.0,0.0,0.0,0.0,0.0,0.0,0.0,0.0,0.0,0.0,0.0,0.0,0.0,0.0,0.0,0.0,0.0,0.0,0.0,0.0,0.0,0.0,0.0,0.0,0.0,0.0,0.0,0.0,0.0,0.0,0.0,0.0,0.0,0.0,0.0,0.0,0.0,0.0,0.0,0.0,0.0,0.0,0.0,0.0,0.0,0.0,0.0,0.0,0.0,0.0,0.0,0.0,0.0,0.0,0.0,0.0,0.0,0.0,0.0,0.0,0.0,0.0,0.0,0.0,0.0,0.0,0.0,0.0,0.0,5.6799,6.0782,6.3245,6.378,6.3599,6.2802,6.2766,5.9832,5.2915,0.0,0.0,0.0,0.0,0.0,0.0,0.0,0.0,0.0,0.0,0.0,0.0,0.0,0.0,0.0,0.0,0.0,0.0,0.0,0.0,0.0,0.0,0.0,0.0,0.0,0.0,0.0,0.0,0.0,0.0,0.0,0.0,0.0,0.0,0.0,0.0,0.0,0.0,0.0,0.0,0.0,0.0,0.0,0.0,0.0,0.0,0.0,0.0,0.0,0.0,0.0,0.0,0.0,0.0,0.0,0.0,0.0,0.0,0.0,0.0,0.0,0.0,0.0,0.0,0.0,0.0,0.0,0.0,0.0,0.0,0.0,0.0,0.0,0.0,0.0,0.0,0.0,0.0,0.0,0.0,0.0,0.0,0.0,0.0,0.0,0.0,0.0,0.0,0.0,0.0,0.0,0.0,0.0,0.0,0.0,0.0,0.0,0.0,0.0,0.0,0.0,0.0,5.3059,5.7804,6.1643,6.4106,6.4613,6.4482,6.3649,6.3359,6.0244,5.3313,0.0,0.0,0.0,0.0,0.0,0.0,0.0,0.0,0.0,0.0,0.0,0.0,0.0,0.0,0.0,0.0,0.0,0.0,0.0,0.0,0.0,0.0,0.0,0.0,0.0,0.0,0.0,0.0,0.0,0.0,0.0,0.0,0.0,0.0,0.0,0.0,0.0,0.0,0.0,0.0,0.0,0.0,0.0,0.0,0.0,0.0,0.0,0.0,0.0,0.0,0.0,0.0,0.0,0.0,0.0,0.0,0.0,0.0,0.0,0.0,0.0,0.0,0.0,0.0,0.0,0.0,0.0,0.0,0.0,0.0,0.0,0.0,0.0,0.0,0.0,0.0,0.0,0.0,0.0,0.0,0.0,0.0,0.0,0.0,0.0,0.0,0.0,0.0,0.0,0.0,0.0,0.0,0.0,0.0,0.0,0.0,0.0,0.0,0.0,0.0,0.0,0.0,5.353,6.0701,6.5337,6.4541,6.5156,6.5301,6.4504,6.3685,6.0497,0.0,0.0,0.0,0.0,0.0,0.0,0.0,0.0,0.0,0.0,0.0,0.0,0.0,0.0,0.0,0.0,0.0,0.0,0.0,0.0,0.0,0.0,0.0,0.0,0.0,0.0,0.0,0.0,0.0,0.0,0.0,0.0,0.0,0.0,0.0,0.0,0.0,0.0,0.0,0.0,0.0,0.0,0.0,0.0,0.0,0.0,0.0,0.0,0.0,0.0,0.0,0.0,0.0,0.0,0.0,0.0,0.0,0.0,0.0,0.0,0.0,0.0,0.0,0.0,0.0,0.0,0.0,0.0,0.0,0.0,0.0,0.0,0.0,0.0,0.0,0.0,0.0,0.0,0.0,0.0,0.0,0.0,0.0,0.0,0.0,0.0,0.0,0.0,0.0,0.0,0.0,0.0,0.0,0.0,0.0,0.0,0.0,0.0,0.0,0.0,0.0,0.0,0.0,5.5812,6.2693,6.7438,6.7743,6.7474,6.6967,6.617,6.5337,6.1679,5.4182,0.0,0.0,0.0,0.0,0.0,0.0,0.0,0.0,0.0,0.0,0.0,0.0,0.0,0.0,0.0,0.0,0.0,0.0,0.0,0.0,0.0,0.0,0.0,0.0,0.0,0.0,0.0,0.0,0.0,0.0,0.0,0.0,0.0,0.0,0.0,0.0,0.0,0.0,0.0,0.0,0.0,0.0,0.0,0.0,0.0,0.0,0.0,0.0,0.0,0.0,0.0,0.0,0.0,0.0,0.0,0.0,0.0,0.0,0.0,0.0,0.0,0.0,0.0,0.0,0.0,0.0,0.0,0.0,0.0,0.0,0.0,0.0,0.0,0.0,0.0,0.0,0.0,0.0,0.0,0.0,0.0,0.0,0.0,0.0,0.0,0.0,0.0,0.0,0.0,0.0,0.0,0.0,0.0,0.0,0.0,0.0,0.0,0.0,0.0,0.0,0.0,0.0,5.6862,6.378,6.8669,6.9155,6.8793,6.8162,6.7366,6.6533,6.3345,5.6935,0.0,0.0,0.0,0.0,0.0,0.0,0.0,0.0,0.0,0.0,0.0,0.0,0.0,0.0,0.0,0.0,0.0,0.0,0.0,0.0,0.0,0.0,0.0,0.0,0.0,0.0,0.0,0.0,0.0,0.0,0.0,0.0,0.0,0.0,0.0,0.0,0.0,0.0,0.0,0.0,0.0,0.0,0.0,0.0,0.0,0.0,0.0,0.0,0.0,0.0,0.0,0.0,0.0,0.0,0.0,0.0,0.0,0.0,0.0,0.0,0.0,0.0,0.0,0.0,0.0,0.0,0.0,0.0,0.0,0.0,0.0,0.0,0.0,0.0,0.0,0.0,0.0,0.0,0.0,0.0,0.0,0.0,0.0,0.0,0.0,0.0,0.0,0.0,0.0,0.0,0.0,0.0,0.0,0.0,0.0,0.0,0.0,0.0,0.0,0.0,0.0,0.0,5.7406,6.4591,6.9554,6.9626,6.9481,6.9119,6.838,6.751,6.5272,6.1172,0.0,0.0,0.0,0.0,0.0,0.0,0.0,0.0,0.0,0.0,0.0,0.0,0.0,0.0,0.0,0.0,0.0,0.0,0.0,0.0,0.0,0.0,0.0,0.0,0.0,0.0,0.0,0.0,0.0,0.0,0.0,0.0,0.0,0.0,0.0,0.0,0.0,0.0,0.0,0.0,0.0,0.0,0.0,0.0,0.0,0.0,0.0,0.0,0.0,0.0,0.0,0.0,0.0,0.0,0.0,0.0,0.0,0.0,0.0,0.0,3.549,3.1204,0.0,0.0,0.0,0.0,0.0,0.0,0.0,0.0,0.0,0.0,0.0,0.0,0.0,0.0,0.0,0.0,0.0,0.0,0.0,0.0,0.0,0.0,0.0,0.0,0.0,0.0,0.0,0.0,0.0,0.0,0.0,0.0,0.0,0.0,0.0,0.0,0.0,0.0,0.0,0.0,6.0543,6.7402,7.2219,7.2818,7.1748,7.0951,7.077,6.9466,6.6707,6.2034,5.8573,0.0,0.0,0.0,0.0,0.0,0.0,0.0,0.0,0.0,0.0,0.0,0.0,0.0,0.0,0.0,0.0,0.0,0.0,0.0,0.0,0.0,0.0,0.0,0.0,0.0,0.0,0.0,0.0,0.0,0.0,0.0,0.0,0.0,0.0,0.0,0.0,0.0,0.0,0.0,0.0,0.0,0.0,0.0,0.0,0.0,0.0,0.0,0.0,0.0,0.0,0.0,0.0,0.0,0.0,0.0,0.0,0.0,0.0,0.0,4.0788,3.7853,0.0,0.0,0.0,0.0,0.0,0.0,0.0,0.0,0.0,0.0,0.0,0.0,0.0,0.0,0.0,0.0,0.0,0.0,0.0,0.0,0.0,0.0,0.0,0.0,0.0,0.0,0.0,0.0,0.0,0.0,0.0,0.0,0.0,0.0,0.0,0.0,0.0,0.0,0.0,0.0,6.2114,6.8835,7.3434,7.3868,7.3144,7.2493,7.211,7.0987,6.9059,6.6238,6.2004,0.0,0.0,0.0,0.0,0.0,0.0,0.0,0.0,0.0,0.0,0.0,0.0,0.0,0.0,0.0,0.0,0.0,0.0,0.0,0.0,0.0,0.0,0.0,0.0,0.0,0.0,0.0,0.0,0.0,0.0,0.0,0.0,0.0,0.0,0.0,0.0,0.0,0.0,0.0,0.0,0.0,0.0,0.0,0.0,0.0,0.0,0.0,0.0,0.0,0.0,0.0,0.0,0.0,4.6373,4.7633,4.8772,4.9095,5.0632,5.2745,4.698,4.6005,4.8041,4.2253,0.0,0.0,0.0,0.0,0.0,0.0,0.0,0.0,0.0,0.0,0.0,0.0,0.0,0.0,0.0,0.0,0.0,0.0,0.0,0.0,0.0,0.0,0.0,0.0,5.866,5.8709,5.3699,0.0,0.0,0.0,0.0,0.0,0.0,0.0,0.0,0.0,0.0,0.0,6.4156,7.0444,7.4593,7.4701,7.4593,7.4194,7.3414,7.2581,7.1773,7.0866,6.5589,6.1707,0.0,0.0,0.0,0.0,0.0,0.0,0.0,0.0,0.0,0.0,0.0,0.0,0.0,0.0,0.0,0.0,0.0,0.0,0.0,0.0,0.0,0.0,0.0,0.0,0.0,0.0,0.0,0.0,0.0,0.0,0.0,0.0,3.353,3.3017,0.0,0.0,0.0,0.0,0.0,0.0,0.0,0.0,0.0,0.0,0.0,0.0,0.0,4.4103,4.6527,4.9347,5.1167,5.2028,5.537,5.7108,5.7324,5.8659,5.9849,6.0707,5.8481,0.0,5.1978,5.0394,0.0,0.0,0.0,0.0,0.0,0.0,0.0,0.0,0.0,0.0,0.0,0.0,0.0,0.0,0.0,0.0,0.0,0.0,0.0,0.0,0.0,0.0,6.6025,6.6228,6.6518,6.6895,0.0,6.0484,5.4182,5.4399,5.4339,0.0,0.0,0.0,0.0,0.0,0.0,0.0,6.9647,7.4283,7.7289,7.7977,7.7434,7.671,7.5877,7.508,7.4018,7.2579,7.0363,6.7283,6.3167,5.9738,0.0,0.0,0.0,0.0,0.0,0.0,0.0,0.0,0.0,0.0,0.0,0.0,0.0,0.0,0.0,0.0,0.0,0.0,0.0,0.0,0.0,0.0,0.0,0.0,0.0,0.0,0.0,0.0,0.0,3.3594,3.5451,3.587,3.4446,3.2617,0.0,0.0,0.0,0.0,0.0,0.0,0.0,0.0,0.0,4.8217,4.9473,5.1549,5.4645,5.6805,5.8238,5.899,6.0706,6.1985,6.2793,6.3153,6.3989,6.5034,6.3927,6.2148,5.9714,5.4877,5.1813,5.0017,0.0,0.0,0.0,0.0,4.8456,4.8909,5.26,5.3704,5.3302,5.2302,0.0,0.0,0.0,0.0,0.0,0.0,0.0,0.0,0.0,0.0,6.9575,7.0444,7.0972,7.1515,7.2219,6.914,6.5432,0.0,6.0593,5.7864,5.3084,0.0,0.0,0.0,0.0,6.7692,7.2239,7.5985,7.8303,7.8666,7.8376,7.8014,7.7688,7.6927,7.614,7.5488,7.3484,7.1246,6.8809,6.4091,5.9081,0.0,0.0,0.0,0.0,0.0,0.0,0.0,0.0,0.0,0.0,0.0,0.0,0.0,0.0,0.0,0.0,0.0,0.0,0.0,0.0,0.0,0.0,0.0,0.0,0.0,0.0,0.0,0.0,3.6502,3.8516,3.8983,3.856,3.7055,0.0,0.0,0.0,0.0,0.0,0.0,4.7221,4.8504,5.1119,5.5394,5.6808,5.8908,6.1932,6.3041,6.3866,6.439,6.4726,6.5438,6.6494,6.625,6.6787,6.7822,6.7056,6.6731,6.6248,5.9452,5.6567,5.627,5.487,5.3614,5.2916,5.5939,5.6554,5.6485,6.0625,6.1552,6.0738,5.9703,5.9111,5.8243,5.5317,0.0,0.0,0.0,0.0,6.6134,6.93,7.1168,7.2524,7.3667,7.4375,7.4919,7.5353,7.5426,7.4158,0.0,6.7459,6.4454,5.9687,0.0,0.0,0.0,6.6677,7.1603,7.4991,7.7724,7.9318,7.9318,7.9318,7.9245,7.9028,7.8448,7.8014,7.7833,7.5676,7.415,7.3608,6.8554,6.4343,6.1298,0.0,0.0,0.0,0.0,0.0,0.0,0.0,0.0,0.0,0.0,0.0,0.0,0.0,0.0,0.0,0.0,0.0,0.0,0.0,0.0,0.0,0.0,0.0,0.0,0.0,0.0,0.0,0.0,0.0,4.2333,4.4632,0.0,0.0,0.0,0.0,4.5031,4.7557,5.0843,5.5002,5.7429,6.0425,6.4226,6.5097,6.5974,6.6929,6.7022,6.7087,6.7123,6.7889,6.829,6.8392,6.9056,6.942,6.9449,6.8698,6.8756,6.9129,6.5535,6.2658,6.0652,6.2055,6.1172,5.9602,6.3571,6.4512,6.4186,6.6706,6.7068,6.6286,6.5446,6.4269,6.3548,6.5557,6.4795,0.0,0.0,7.0066,7.204,7.5093,7.6492,7.7144,7.7253,7.7289,7.7724,7.9281,7.7833,7.6167,0.0,7.6311,7.5189,7.046,0.0,7.1768,7.0951,7.2456,7.51,7.91,8.0404,8.0966,8.0966,8.0966,8.0676,7.9897,7.9788,7.9462,7.8702,7.6991,7.5976,7.5941,7.3351,6.9553,6.4478,6.2719,0.0,0.0,0.0,0.0,0.0,0.0,0.0,0.0,0.0,0.0,0.0,0.0,0.0,0.0,0.0,0.0,0.0,0.0,0.0,0.0,0.0,0.0,0.0,0.0,0.0,0.0,0.0,0.0,4.704,4.9302,0.0,4.6641,4.9407,5.1669,5.2262,5.59,5.9174,6.1586,6.3026,6.4641,6.6495,6.7775,6.8597,6.8919,6.9892,7.0376,7.0376,7.0771,7.1216,7.1743,7.2621,7.3288,7.3728,7.2959,7.2731,7.27,7.05,6.8341,6.666,6.7752,6.7934,6.7934,7.041,7.1138,7.1014,7.1749,7.1562,7.0941,7.065,7.0111,6.9986,7.1985,7.2404,7.2674,7.504,7.6502,7.7691,7.9197,7.9849,7.9956,7.9225,7.9531,7.9982,7.9915,7.9643,7.939,7.939,7.7941,7.5841,7.3124,7.4826,7.5768,7.3398,7.5715,7.8467,8.0423,8.0929,8.1111,8.1111,8.1111,8.0966,8.0694,8.0676,8.0531,8.0259,7.9072,7.8189,7.7747,7.5796,7.3354,7.0496,6.9403,6.4478,0.0,0.0,0.0,0.0,0.0,0.0,0.0,0.0,0.0,0.0,0.0,0.0,0.0,0.0,0.0,0.0,0.0,0.0,0.0,0.0,0.0,0.0,0.0,0.0,0.0,4.8428,5.1573,5.0982,5.3557,5.445,5.2126,5.5717,5.841,5.9002,6.2493,6.5079,6.6199,6.7301,6.831,6.9113,7.0368,7.1185,7.1537,7.2519,7.3191,7.3447,7.3259,7.3596,7.438,7.4764,7.5197,7.5689,7.5124,7.4859,7.468,7.3633,7.2805,7.2255,7.2136,7.2434,7.3054,7.4697,7.528,7.5249,7.5175,7.4842,7.4587,7.5119,7.5254,7.553,7.7263,7.8021,7.8528,7.9762,8.0313,8.0645,8.1313,8.1529,8.1474,8.0943,8.1324,8.1667,8.1218,8.1527,8.1925,8.1925,7.9969,7.7995,7.6927,7.8738,7.9426,7.6729,7.9064,8.1128,8.1111,8.1563,8.1925,8.1925,8.1672,8.1599,8.1889,8.0694,8.0368,8.1454,7.9622,7.8516,7.8512,7.6131,7.4096,7.2541,7.1442,6.7083,5.9438,0.0,0.0,0.0,0.0,0.0,0.0,0.0,0.0,0.0,0.0,0.0,0.0,0.0,0.0,0.0,0.0,0.0,0.0,0.0,0.0,0.0,0.0,0.0,4.9464,5.207,5.4183,5.4236,5.7539,5.9194,5.7647,6.1182,6.4004,6.5028,6.6944,6.8277,6.8801,7.0466,7.1784,7.2569,7.334,7.4147,7.494,7.494,7.538,7.613,7.5344,7.538,7.613,7.538,7.505,7.5087,7.5087,7.5124,7.516,7.5087,7.6004,7.7258,7.5317,7.4572,7.479,7.638,7.6947,7.6963,7.7032,7.7032,7.7271,7.8787,7.9413,7.9853,8.1426,8.1505,8.1163,8.1732,8.1373,8.0938,8.1501,8.1669,8.1853,8.25,8.2628,8.2793,8.3356,8.3501,8.3501,8.3501,8.2885,8.2378,8.2342,8.2994,8.2976,8.14,8.2505,0.0,8.1382,8.2541,8.3501,8.3428,8.274,8.2595,8.3356,7.9825,7.8955,8.2124,7.86,7.7076,7.8488,7.4848,7.2082,7.0521,6.883,6.6914,6.4749,0.0,0.0,0.0,0.0,0.0,0.0,0.0,0.0,0.0,0.0,0.0,0.0,0.0,0.0,0.0,0.0,0.0,0.0,0.0,0.0,0.0,5.3055,5.6865,5.5838,5.8154,6.0297,6.1337,6.3294,6.4435,6.4011,6.603,6.7494,6.782,6.9951,7.1296,7.1448,7.3017,7.4023,7.4243,7.5028,7.5542,7.5763,7.6335,7.6738,7.6959,7.6738,7.6775,7.6995,7.8002,7.8772,7.9307,7.9307,7.9968,8.0922,7.9176,7.9396,8.0629,7.8348,7.817,7.9306,8.0332,8.0617,8.0519,8.0703,8.017,7.9659,8.0947,8.0943,8.0581,8.1758,8.2007,8.1893,8.2064,8.2378,8.2641,8.2693,8.322,8.3766,8.3711,8.366,8.3626,8.3701,8.3593,8.3501,8.3501,8.3791,8.3863,8.3284,8.3356,8.3356,8.2903,8.3211,0.0,8.2903,8.3247,8.3048,8.1889,8.1563,8.1527,8.1744,8.0766,8.0984,8.303,8.2105,8.1666,8.2071,8.0399,7.8649,7.6896,7.2053,6.9011,0.0,0.0,0.0,0.0,0.0,0.0,0.0,0.0,0.0,0.0,0.0,0.0,0.0,0.0,0.0,0.0,0.0,0.0,0.0,0.0,0.0,0.0,5.8288,6.2032,6.2659,6.3479,6.4569,6.6069,6.6985,6.765,6.7981,6.9155,7.0059,7.0389,7.2018,7.3156,7.3487,7.472,7.538,7.538,7.6533,7.6974,7.6592,7.7436,7.7839,7.7839,7.7839,7.8206,7.8867,7.9874,8.0755,8.1489,8.1489,8.2039,8.281,8.1379,8.1358,0.0,0.0,0.0,0.0,0.0,8.1901,8.1578,8.2043,8.1725,8.1247,8.1974,8.2011,8.1945,8.252,8.2957,8.3287,8.3618,8.3801,8.3951,8.418,8.4364,8.4496,8.4548,8.4479,8.4518,8.5027,8.5042,8.4968,8.4968,8.5619,0.0,8.5149,8.4714,8.4298,8.361,8.4062,8.4243,8.361,8.4098,8.4135,8.3229,8.2831,8.2758,8.3084,8.1563,0.0,0.0,0.0,8.1672,8.102,8.0128,0.0,0.0,0.0,0.0,0.0,0.0,0.0,0.0,6.5311,6.4715,0.0,0.0,0.0,0.0,0.0,0.0,0.0,0.0,0.0,0.0,0.0,0.0,0.0,0.0,0.0,0.0,6.3086,6.6531,6.8596,6.7834,6.754,6.8898,6.9105,6.9449,7.0183,7.1064,7.1857,7.2569,7.345,7.4294,7.5014,7.5909,0.0,0.0,0.0,7.8222,7.7436,7.8295,7.8736,7.8736,7.8919,7.9727,8.1012,8.1085,8.1525,8.2186,8.2186,8.2296,8.2443,8.226,8.2186,8.2039,8.0624,8.0954,8.2186,8.2186,8.1746,8.1269,8.215,0.0,0.0,8.2553,8.303,8.3528,8.3528,8.4022,8.4756,8.5453,8.5233,8.4903,8.571,8.5334,8.4868,8.5479,8.5501,8.5663,8.6908,8.7141,8.7121,8.7121,8.7701,8.799,8.7358,8.6634,8.5656,8.4243,8.5257,8.5656,8.4207,8.5257,8.609,8.5909,0.0,0.0,8.5837,8.265,8.1889,8.4895,8.2432,8.0223,7.8774,7.791,7.7799,7.8453,7.8518,8.0155,8.3446,8.2743,8.2336,8.2001,7.1978,6.9553,0.0,0.0,0.0,0.0,0.0,0.0,0.0,0.0,0.0,0.0,0.0,0.0,0.0,0.0,0.0,6.1728,6.5563,6.8394,6.8834,6.9729,7.0257,6.9926,7.0426,7.0903,7.105,7.2386,7.3303,7.345,7.4808,7.5689,7.5873,7.7304,7.8112,7.8112,7.8442,7.8516,7.8369,7.914,7.9559,7.9596,8.0865,0.0,8.1012,8.1672,8.2039,8.2186,8.2186,8.292,8.4058,8.2737,8.2186,8.215,8.1856,8.1929,8.2186,8.2186,8.2113,8.2186,8.3618,8.3728,8.3398,8.4682,8.4756,8.4389,8.4389,8.4499,0.0,8.4792,8.5196,8.5747,8.6554,8.7107,8.7587,8.8215,8.8198,8.8068,8.8189,8.807,8.7954,8.7954,8.8099,8.8135,8.799,8.7846,8.7665,8.7339,8.7556,8.7628,8.7339,8.7556,8.7266,8.6018,8.5764,8.5728,8.5873,8.5185,8.5547,8.7411,8.694,8.647,8.6144,8.5242,8.4842,8.4967,8.4893,8.4888,8.4961,8.6054,8.63,8.5518,7.9967,7.8483,0.0,0.0,0.0,0.0,0.0,0.0,0.0,0.0,0.0,0.0,0.0,5.3455,5.6271,0.0,6.2915,6.4934,6.7981,7.0096,7.0096,7.1123,7.16,7.0807,7.1762,7.2496,7.2496,7.3597,7.4478,7.4882,7.6019,7.6885,7.7341,7.8516,7.9029,7.8589,7.9396,7.9617,7.9192,8.0404,8.0991,8.1028,8.1819,8.2186,8.2207,8.2627,8.303,8.3398,8.3398,8.4095,8.5123,8.4315,8.4242,8.4535,8.3728,8.3398,8.3398,8.3398,8.3911,8.4609,8.4609,8.4609,8.4682,8.5086,8.5196,8.5196,8.5196,8.549,8.5967,8.6757,8.6995,8.7288,8.85,8.8652,8.86,8.8856,8.8706,8.8569,8.8873,8.8865,8.8807,8.8807,8.9113,8.9258,8.8879,8.9113,8.9113,8.8316,8.8208,8.8208,8.8208,8.8208,8.7918,8.7121,8.7394,8.7648,8.7648,8.801,8.8589,8.933,8.9403,8.9403,8.9403,8.8951,8.8907,8.9302,8.9227,8.9228,8.9207,8.9516,8.9434,8.8999,8.5772,8.4506,0.0,0.0,0.0,0.0,0.0,0.0,0.0,4.8159,5.0205,5.3628,5.6136,5.8559,6.13,6.3686,6.5938,6.8068,7.0036,7.1417,7.1711,7.2312,7.2569,7.2041,7.301,7.3744,7.3927,7.4793,7.5637,7.6276,7.7215,7.8096,7.8809,7.9596,7.9816,7.9323,8.0571,8.1012,8.0514,8.1929,8.259,8.2443,8.2737,8.3067,8.3381,8.3381,8.3748,8.4389,8.4535,8.4976,8.5563,8.5563,8.5967,8.639,8.5123,8.4792,8.5049,8.4719,8.5416,8.6371,8.5233,8.527,8.571,8.5233,8.56,8.6278,8.6278,8.6848,8.7748,8.9033,8.8923,8.8739,9.0171,8.9825,8.9128,8.92,8.8952,8.8882,8.9514,8.9748,8.9857,8.9857,9.0509,9.0871,9.0219,9.0654,9.0509,8.8896,8.8787,8.8896,8.8896,8.9041,8.9113,8.9113,8.9712,9.011,9.011,9.069,9.1052,9.1052,9.1052,9.1052,9.1052,9.1052,9.1378,9.203,9.2211,9.2501,9.3008,9.2496,9.2185,9.1976,9.0241,8.8855,4.3681,4.3608,4.5104,4.7948,4.9187,5.1463,0.0,5.8107,5.7923,6.1936,6.4103,6.5595,6.6709,6.8288,6.9743,7.072,7.1123,7.1784,7.323,7.3487,7.378,7.4426,7.4037,7.3964,7.4683,7.6151,7.7069,7.7179,7.8626,7.9559,7.9669,8.0424,8.1158,8.1782,8.1966,8.237,8.2977,8.3875,8.3985,8.3271,8.4719,8.4682,8.3381,8.3381,8.3454,8.3564,8.4278,8.4646,8.4719,8.4719,8.4792,8.4866,8.4682,8.549,8.6554,8.5123,8.4719,8.4939,8.549,8.5727,8.5894,8.6518,8.7288,8.7912,8.7912,8.85,8.9179,8.9363,8.9326,8.9437,9.0136,9.0209,9.0208,9.0577,9.0643,9.0565,9.0476,9.1016,9.1523,9.1523,9.2175,9.2718,9.261,9.2682,9.2211,9.0581,9.0943,9.1414,9.1414,9.203,9.2444,9.2444,9.2537,9.261,9.261,9.2682,9.2754,9.2754,9.2754,9.2754,9.2754,9.2754,9.2791,9.2863,9.3567,9.3603,9.3008,9.4337,9.4621,9.3892,9.3426,9.1818,5.1096,5.1132,5.161,5.3896,5.5464,5.7189,6.0199,6.086,6.1814,6.5461,6.71,6.8128,6.8949,7.0036,7.0903,7.1233,7.2092,7.2936,7.3597,7.4111,7.4698,7.5506,7.5711,7.5931,7.6261,7.7362,7.8075,7.8075,7.914,7.9816,7.9816,8.1012,8.1856,8.2186,8.3104,8.3765,8.4095,8.4903,8.5123,8.4792,8.5013,8.4756,8.4078,8.3601,8.3638,8.4132,8.4939,8.5306,8.5343,8.582,8.6261,8.6701,8.6701,8.7399,8.8152,8.6077,8.6187,8.7381,8.7252,8.7509,8.7932,8.8299,8.8629,8.8886,8.8886,8.9143,8.951,8.995,9.0427,9.0868,9.1107,9.1821,9.2347,9.1878,9.205,9.2219,9.2034,9.2247,9.2501,9.2501,9.2791,9.3008,9.3008,9.3008,9.2791,9.2102,9.2284,9.2501,9.2501,9.2791,9.3189,9.3639,9.3675,9.3913,9.4348,9.4384,9.4384,9.4384,9.4384,9.4384,9.4384,9.4384,9.4384,9.4384,9.471,9.471,9.4384,9.5093,9.5238,9.487,9.4137,9.3166,5.4766,5.5684,5.6381,5.8217,6.0382,6.2071,6.2071,6.3172,6.4897,6.7504,6.8678,6.9486,7.0293,7.1087,7.1711,7.1931,7.2936,7.3854,7.4309,7.4882,7.5616,7.668,7.7105,7.7582,7.8243,7.8699,7.9029,7.925,8.0021,8.055,8.0755,8.2113,8.2957,8.3177,8.4315,8.5049,8.527,8.56,8.58,8.5783,8.4976,8.4609,8.4609,8.4242,8.4389,8.4976,8.5783,8.6114,8.6187,8.6995,8.7655,8.8206,8.8426,8.8886,8.9216,8.7692,8.8096,8.9326,8.872,8.9069,8.973,8.973,9.0024,9.0427,9.0427,9.0574,9.0868,9.1473,9.2024,9.2446,9.2335,9.3083,9.3679,9.2767,9.288,9.3175,9.3028,9.3189,9.3313,9.3313,9.3515,9.366,9.366,9.366,9.366,9.366,9.366,9.3587,9.335,9.3515,9.3877,9.4457,9.4529,9.4783,9.5347,9.5419,9.5419,9.5419,9.5419,9.5419,9.5419,9.5419,9.5419,9.5419,9.5419,9.5419,9.5419,9.5419,9.5419,9.5398,9.4603,9.4209,5.1914,5.4399,5.7324,5.971,6.3356,6.6292,6.6292,6.6966,6.7811,6.8678,6.9486,7.0293,7.1123,7.1931,7.2716,7.3487,7.3685,7.4221,7.5799,7.6056,7.668,7.8332,7.7803,7.8243,8.0629,8.0204,8.011,8.0865,8.1672,8.248,8.3234,8.4095,8.4866,8.569,8.5764,8.6151,8.6904,8.6187,8.58,8.5783,8.4976,8.4609,8.4646,8.538,8.5764,8.582,8.6628,8.6941,8.7014,8.7839,8.8169,8.828,8.9069,8.9363,8.9473,9.017,8.9987,8.94,8.9363,8.9877,9.0537,9.0537,9.1657,9.2978,9.2978,9.3529,9.4153,9.4189,9.4189,9.4114,9.3677,9.356,9.3515,9.3094,9.3008,9.3008,9.3008,9.3603,9.4146,9.4146,9.4783,9.5347,9.5347,9.5347,9.5347,9.5347,9.5347,9.5036,9.4255,9.4855,9.5347,9.5383,9.5383,9.5383,9.5419,9.5419,9.5419,9.5419,9.5419,9.5419,9.5419,9.5419,9.5419,9.5419,9.5419,9.5419,9.5419,9.5419,9.5419,9.5419,9.5377,9.521,5.626,5.8756,6.1361,6.3833,6.5888,6.7297,6.7297,6.7517,6.7921,6.8752,6.8678,6.8752,6.9545,7.0793,7.1784,7.2041,7.3891,7.5469,7.6019,7.6555,7.7326,7.8442,7.8332,7.8919,8.0828,8.0755,8.0938,8.1746,8.2553,8.3087,8.3381,8.3638,8.4168,8.4976,8.5527,8.593,8.6187,8.6481,8.6334,8.58,8.6077,8.617,8.6207,8.7031,8.7105,8.6628,8.6867,8.7325,8.7839,8.8096,8.85,8.9143,9.0482,9.0996,9.1179,9.2537,9.2868,9.2574,9.206,9.1657,9.1583,9.2684,9.3418,9.3896,9.3896,9.4079,9.4299,9.4299,9.4666,9.4884,9.4014,9.4631,9.5227,9.4221,9.4409,9.4752,9.4607,9.4819,9.5,9.5,9.5217,9.5419,9.5419,9.5419,9.5419,9.5419,9.5419,9.5311,9.5036,9.5238,9.5419,9.5419,9.5419,9.5419,9.5419,9.5419,9.5419,9.5419,9.5419,9.5419,9.5419,9.5419,9.5419,9.5419,9.5419,9.5419,9.5419,9.5963,9.6216,9.6216,9.6738,9.695,5.96,6.1618,6.3453,6.6219,6.7333,6.77,6.77,6.77,6.7921,6.8752,6.8017,6.7577,6.8715,6.9986,7.0977,7.1233,7.3766,7.5763,7.6056,7.6555,7.7289,7.8442,7.8589,7.936,8.1232,8.1709,8.2076,8.259,8.3344,8.3821,8.3821,8.4095,8.4499,8.5013,8.5527,8.593,8.6224,8.6444,8.6444,8.6224,8.7031,8.7435,8.7435,8.7655,8.7509,8.7014,8.7601,8.7986,8.828,8.916,8.9638,8.995,9.1289,9.1803,9.195,9.3345,9.3675,9.3382,9.3161,9.2905,9.2831,9.3602,9.4079,9.4336,9.463,9.474,9.4777,9.507,9.549,9.5651,9.4853,9.5413,9.5911,9.5036,9.5208,9.555,9.544,9.5419,9.5419,9.5419,9.5419,9.5419,9.5419,9.5419,9.5419,9.5419,9.5419,9.5419,9.5419,9.5419,9.5419,9.5419,9.5419,9.5419,9.5419,9.5419,9.5419,9.5419,9.5419,9.5419,9.5419,9.5419,9.5419,9.5419,9.5419,9.5564,9.5854,9.6361,9.6738,9.7028,9.7571,9.7934,6.1582,6.2976,6.3783,6.693,6.77,6.77,6.77,6.77,6.7884,6.8531,6.743,6.6806,6.8151,6.9302,7.0293,7.1013,7.3362,7.5344,7.6056,7.6203,7.6827,7.8479,7.8662,7.9617,8.2039,8.2994,8.3491,8.3528,8.4278,8.4719,8.4646,8.538,8.58,8.5764,8.58,8.6151,8.6904,8.6261,8.6334,8.7198,8.7912,8.828,8.8243,8.7472,8.7124,8.7198,8.8776,8.9033,8.8573,9.094,9.14,9.0739,9.1546,9.1877,9.195,9.2831,9.2648,9.2097,9.2905,9.3675,9.4189,9.3455,9.3786,9.4556,9.5327,9.5565,9.5712,9.6502,9.655,9.6335,9.608,9.5858,9.5654,9.5467,9.544,9.544,9.544,9.544,9.544,9.544,9.5419,9.5419,9.5419,9.5419,9.5419,9.5419,9.5419,9.5419,9.5419,9.5419,9.5419,9.5419,9.5419,9.5419,9.5419,9.5419,9.5419,9.5419,9.5419,9.5419,9.5419,9.5419,9.5419,9.5419,9.5456,9.5854,9.6593,9.6687,9.7101,9.7861,9.7897,9.8332,6.3099,6.5081,6.6659,6.748,6.77,6.77,6.77,6.77,6.726,6.5632,6.5007,6.409,6.2059,6.5802,6.9082,6.8678,7.3707,7.7488,7.7069,7.7561,7.8332,7.9376,7.9486,8.0424,8.2884,8.3838,8.4535,8.5123,8.593,8.6151,8.5527,8.569,8.5527,8.4903,8.549,8.5894,8.6114,8.7105,8.828,8.9657,8.929,8.9069,8.9069,8.8886,8.8776,8.8849,8.984,9.0519,9.0922,9.1546,9.1693,9.1583,9.2427,9.2758,9.2868,9.3675,9.4226,9.452,9.4116,9.4116,9.4373,9.4777,9.5437,9.6135,9.6318,9.6392,9.6428,9.6649,9.655,9.6375,9.6315,9.598,9.5715,9.5818,9.5736,9.5654,9.5818,9.5715,9.5612,9.5612,9.5488,9.5419,9.5419,9.5419,9.5419,9.5419,9.5419,9.5419,9.5419,9.5419,9.5419,9.5419,9.5419,9.5419,9.5419,9.5419,9.5419,9.5419,9.5419,9.5419,9.5419,9.5419,9.5419,9.5419,9.5999,9.6397,9.6593,9.7789,9.8477,9.8694,9.931,9.9708,6.5131,6.6673,6.77,6.77,6.77,6.7407,6.6379,6.6122,6.5351,6.2548,6.1667,6.086,5.9013,6.3723,6.7687,6.7247,7.3266,7.7729,7.6885,7.7818,7.8883,7.9706,8.044,8.1672,8.3728,8.4646,8.5453,8.6261,8.6407,8.6261,8.582,8.5453,8.5233,8.5123,8.5563,8.6151,8.6848,8.8096,8.9381,9.0592,8.9436,8.9069,8.94,8.94,8.94,8.951,9.14,9.206,9.184,9.2574,9.2464,9.184,9.2354,9.2537,9.2648,9.3455,9.4079,9.4446,9.4336,9.452,9.485,9.496,9.529,9.5694,9.6061,9.6171,9.6245,9.6612,9.655,9.6394,9.6394,9.6137,9.5858,9.598,9.5919,9.5858,9.598,9.5919,9.5797,9.5715,9.5529,9.5419,9.5419,9.5419,9.5419,9.5419,9.5419,9.5419,9.5419,9.5419,9.5419,9.5419,9.5419,9.5419,9.5419,9.5419,9.5419,9.5419,9.5419,9.5564,9.5926,9.5926,9.6108,9.6449,9.6883,9.7282,9.7644,9.8549,9.9165,9.9527,9.9998,10.0215,6.7113,6.77,6.77,6.77,6.77,6.7076,6.4653,6.4029,6.2952,5.9453,5.8242,5.774,5.7409,6.2108,6.6109,6.6439,7.2481,7.6959,7.6497,7.7965,7.9323,8.0036,8.1542,8.3104,8.4609,8.549,8.6261,8.6941,8.6261,8.58,8.58,8.5233,8.5306,8.6077,8.6114,8.6848,8.8353,8.9033,8.9767,9.0427,8.905,8.8793,8.9546,8.9657,8.984,9.0207,9.3198,9.3565,9.2244,9.3675,9.3308,9.1803,9.1803,9.1803,9.1877,9.2648,9.3088,9.3345,9.4042,9.4887,9.5528,9.4703,9.452,9.474,9.5474,9.5639,9.5785,9.6502,9.655,9.6394,9.6414,9.6236,9.602,9.608,9.606,9.606,9.608,9.606,9.598,9.5736,9.555,9.544,9.5419,9.5419,9.5419,9.5419,9.5419,9.5419,9.5419,9.5419,9.5419,9.5419,9.5419,9.5419,9.5419,9.5492,9.5564,9.5564,9.5673,9.6035,9.6723,9.6738,9.7064,9.7789,9.7897,9.8296,9.8984,9.9093,9.9527,10.0215,10.0215,10.0215,6.7407,6.77,6.77,6.77,6.77,6.7076,6.4653,6.3539,6.1728,5.7152,5.6638,5.6407,5.4388,5.9196,6.4114,6.6182,7.2018,7.6754,7.8002,8.0131,8.1636,8.1746,8.3214,8.4535,8.549,8.6334,8.6831,8.6978,8.6261,8.58,8.58,8.6297,8.6958,8.7766,8.7766,8.8243,8.9179,8.9326,8.9473,8.9583,8.9326,8.962,9.0391,9.1069,9.2134,9.3529,9.4777,0.0,9.3896,9.4189,9.3308,9.1803,9.1803,9.1803,9.1803,9.195,9.2905,9.4116,9.4226,9.5254,9.6355,9.5547,9.5731,9.6318,9.6465,9.6502,9.6539,9.6649,9.655,9.6433,9.6589,9.6335,9.61,9.6492,9.6453,9.6375,9.6531,9.6453,9.6216,9.5777,9.5654,9.5592,9.544,9.5419,9.5419,9.5419,9.5419,9.5419,9.5419,9.5419,9.5419,9.5419,9.5419,9.5419,9.5419,9.5999,9.6397,9.6397,9.6992,9.7427,9.7571,9.7571,9.7644,9.7789,9.8441,9.8875,9.8984,9.9672,10.0107,10.0215,10.0215,10.0215,6.759,6.77,6.77,6.77,6.77,6.6746,6.3025,6.1508,5.9453,5.4179,5.3739,5.3812,5.2223,5.7214,6.2071,6.3686,7.0073,7.5285,7.6497,7.9874,8.237,8.2774,8.4242,8.5527,8.6334,8.6757,8.6978,8.6978,8.6628,8.6407,8.6407,8.6811,8.7362,8.8169,8.8206,8.861,8.94,8.8959,8.9179,8.9987,8.9179,8.9638,9.1253,9.2097,9.3125,9.4373,9.5584,9.5437,9.4299,9.4299,9.3308,9.1803,9.1803,9.1803,9.184,9.2317,9.3235,9.4336,9.4777,9.5694,9.6649,9.6245,9.6392,9.6685,9.6685,9.6685,9.6685,9.6685,9.6608,9.657,9.6666,9.6531,9.6433,9.6628,9.6645,9.657,9.6666,9.6531,9.6296,9.5919,9.5777,9.5633,9.5404,9.5419,9.5419,9.5419,9.5419,9.5419,9.5419,9.5419,9.5419,9.5419,9.5782,9.6035,9.6035,9.6738,9.7209,9.7209,9.7571,9.797,9.8404,9.8404,9.8622,9.9056,9.9419,9.9636,9.9636,9.9998,10.0215,10.0215,10.0215,10.0215,6.7444,6.759,6.77,6.77,6.77,6.6416,6.152,5.9636,5.7398,5.194,5.1316,5.161,5.1132,5.5611,5.9905,6.1594,6.765,7.2863,7.4867,7.9066,8.237,8.3528,8.5086,8.6297,8.6958,8.6978,8.6978,8.6978,8.6978,8.6978,8.6978,8.7178,8.7655,8.8426,8.8463,8.8757,8.94,8.861,8.883,9.0078,8.916,8.9895,9.2097,9.3125,9.4042,9.4887,9.5988,9.5621,9.4299,9.4116,9.3161,9.1803,9.1803,9.1913,9.217,9.2868,9.3712,9.463,9.5272,9.6025,9.6685,9.6685,9.6685,9.6685,9.6685,9.6685,9.6685,9.6685,9.6685,9.6685,9.6685,9.6685,9.6685,9.6685,9.6685,9.6685,9.6685,9.657,9.6394,9.612,9.5939,9.5756,9.5488,9.5488,9.5488,9.5446,9.5446,9.5446,9.5446,9.544,9.5492,9.5637,9.6216,9.6666,9.6847,9.7571,9.8042,9.8042,9.8223,9.8585,9.9237,9.9274,9.9563,10.0215,10.0215,10.0215,10.0215,10.0215,10.0215,10.0215,10.0215,10.0215,6.6623,6.715,6.77,6.77,6.77,6.6416,6.152,5.9208,5.6712,5.183,5.0875,5.1096,5.1767,5.4153,5.7494,6.1949,6.5228,6.9229,7.5175,7.8956,8.1966,8.4242,8.593,8.6904,8.6978,8.6978,8.6978,8.6978,8.6978,8.6978,8.6978,8.7692,8.8463,8.9253,8.929,8.9326,8.94,8.861,8.828,8.8426,8.9748,9.1289,9.3015,9.4593,9.5731,9.6465,9.5859,9.5107,0.0,9.3529,9.2648,9.1803,9.1803,9.2281,9.2978,9.3088,9.4079,9.5382,9.5455,9.6025,9.6685,9.6685,9.6685,9.6685,9.6685,9.6685,9.6685,9.6685,9.6685,9.6685,9.6685,9.6685,9.6685,9.6685,9.6685,9.6685,9.6685,9.6703,9.6608,9.6394,9.6335,9.6197,9.5736,9.5818,9.5879,9.5695,9.5674,9.5674,9.5674,9.5488,9.5673,9.6434,9.6579,9.6883,9.7608,9.8441,9.8875,9.8875,9.96,9.9998,10.0107,10.0107,10.0107,10.0215,10.0215,10.0215,10.0215,10.0215,10.0215,10.0215,10.0215,10.0215,6.6219,6.71,6.77,6.77,6.6599,6.4653,6.119,5.8033,5.4876,5.1499,5.0802,5.0912,5.1206,5.3261,5.5978,5.9355,6.2352,6.5852,7.0403,7.5102,7.8956,8.1415,8.3985,8.593,8.6904,8.6978,8.6978,8.6978,8.6978,8.7198,8.7692,8.8023,8.8793,9.006,8.9179,8.8923,8.94,8.861,8.8683,8.9674,9.0812,9.2501,9.4574,9.5217,9.5951,9.6649,9.5859,9.5034,0.0,9.3418,9.2574,9.1803,9.1803,9.2317,9.3088,9.3088,9.4116,9.5492,9.5492,9.6025,9.6685,9.6685,9.6685,9.6685,9.6685,9.6685,9.6685,9.6685,9.6685,9.6685,9.6685,9.6685,9.6685,9.6685,9.6685,9.6685,9.6685,9.6685,9.6628,9.6433,9.6394,9.6296,9.5939,9.596,9.5939,9.5715,9.5695,9.5654,9.5566,9.586,9.6412,9.7245,9.7318,9.7644,9.8441,9.9274,9.9708,9.9708,9.9998,10.0215,10.0215,10.0215,10.0215,10.0215,10.0215,10.0215,10.0215,10.0215,10.0215,10.0215,10.0215,10.0215,6.5264,6.6562,6.737,6.737,6.5718,6.3405,6.0664,5.7116,5.3775,5.161,5.0986,5.0875,5.1096,5.2931,5.5207,5.7593,6.0309,6.3563,6.7797,7.2239,7.613,7.9082,8.1856,8.4168,8.5766,8.6574,8.7088,8.7362,8.7344,8.7802,8.8867,8.8904,8.9307,9.0207,8.9381,8.9087,8.94,8.9087,8.9601,9.0959,9.206,9.3602,9.5511,9.575,9.6171,9.6649,9.5621,9.4813,0.0,9.3161,9.2354,9.1803,9.1803,9.2464,9.3455,9.3455,9.4483,9.5859,9.5859,9.6245,9.6685,9.6685,9.6685,9.6685,9.6685,9.6685,9.6685,9.6685,9.6685,9.6685,9.6685,9.6685,9.6685,9.6685,9.6685,9.6685,9.6685,9.6685,9.6647,9.6511,9.6472,9.6414,9.614,9.61,9.606,9.5919,9.5838,9.5808,9.5918,9.6379,9.7077,9.8064,9.8151,9.8477,9.9274,9.9889,10.0215,10.0215,10.0215,10.0215,10.0215,10.0215,10.0215,10.0215,10.0215,10.0215,10.0215,10.0215,10.0215,10.0215,10.0215,10.0324,6.3442,6.5301,6.6512,6.6512,6.5301,6.3246,5.9967,5.6701,5.3922,5.2317,5.1353,5.1059,5.184,5.3298,5.5207,5.7593,5.9355,6.2695,6.9155,7.1505,7.4037,7.8112,8.0057,8.1672,8.3271,8.5583,8.7325,8.8133,8.8206,8.8904,9.0482,9.0592,9.0207,8.9436,9.017,9.0207,8.94,9.017,9.0996,9.1803,9.3455,9.4722,9.553,9.6318,9.6685,9.6612,9.4997,9.4299,0.0,9.2501,9.1803,9.1803,9.1803,9.2831,9.4299,9.4299,9.529,9.6685,9.6685,9.6685,9.6685,9.6685,9.6685,9.6685,9.6685,9.6685,9.6685,9.6685,9.6685,9.6685,9.6685,9.6685,9.6685,9.6685,9.6685,9.6685,9.6685,9.6685,9.6685,9.6722,9.6722,9.6608,9.6414,9.6394,9.6394,9.6375,9.6177,9.6292,9.7078,9.7018,9.7407,9.8825,9.8984,9.931,10.0107,10.0215,10.0215,10.0215,10.0215,10.0215,10.0215,10.0215,10.0215,10.0215,10.0215,10.0215,10.0215,10.0215,10.0215,10.0215,10.0215,10.0592,5.9575,6.152,6.2879,6.1802,6.0297,5.8694,5.7116,5.4252,5.1646,5.0592,5.0582,5.0875,5.1132,5.2491,5.4902,5.8988,6.0089,6.2291,6.77,7.1725,7.5014,7.7436,8.206,8.5289,8.5803,8.7068,8.7949,8.8169,8.872,8.9473,9.0555,9.0592,9.0464,9.0207,9.0464,9.0207,8.94,9.0776,9.1877,9.2721,9.4336,9.5547,9.6318,9.6575,9.6685,9.6612,9.4997,9.4299,9.4153,9.2501,9.1803,9.1803,9.1803,9.2831,9.4299,9.4299,9.5327,9.6685,9.6685,9.6685,9.6685,9.6685,9.6685,9.6685,9.6685,9.6685,9.6685,9.6685,9.6685,9.6685,9.6685,9.6685,9.6685,9.6685,9.6685,9.6685,9.6685,9.6685,9.6685,9.6685,9.6685,9.6666,9.6608,9.6589,9.655,9.6414,9.616,9.6251,9.6909,9.7319,9.7911,9.8875,9.9491,9.9926,10.0215,10.0215,10.0215,10.0215,10.0215,10.0215,10.0215,10.0215,10.0215,10.0215,10.0215,10.0215,10.0215,10.0215,10.0215,10.0215,10.0215,10.0903,5.6822,5.8877,6.0052,5.938,5.7765,5.6124,5.5328,5.2648,5.0288,5.0078,5.0435,5.0875,5.1206,5.2564,5.4829,5.8462,5.9563,6.1961,6.7811,7.1468,7.483,7.828,8.2794,8.5766,8.6077,8.7362,8.8316,8.8647,8.94,9.0207,9.1033,9.0776,9.0482,9.017,9.0739,9.0665,8.984,9.1803,9.3198,9.4024,9.5327,9.6208,9.6685,9.6685,9.6685,9.6612,9.4997,9.4299,0.0,9.2501,9.1803,9.184,9.217,9.3125,9.4336,9.463,9.5584,9.6685,9.6685,9.6685,9.6685,9.6685,9.6685,9.6685,9.6685,9.6685,9.6685,9.6685,9.6685,9.6685,9.6685,9.6685,9.6685,9.6685,9.6685,9.6685,9.6685,9.6685,9.6685,9.6685,9.6685,9.6685,9.6685,9.6628,9.655,9.6511,9.6456,9.6688,9.7403,9.7973,9.8636,9.9346,9.9889,10.0215,10.0215,10.0215,10.0215,10.0215,10.0215,10.0215,10.0215,10.0215,10.0215,10.0215,10.0215,10.0215,10.0215,10.0215,10.0215,10.0215,10.0215,10.1085,0.0,5.6785,5.7666,5.8352,5.6859,5.5034,5.4252,5.1767,0.0,5.0472,5.0729,5.1059,5.195,5.3298,5.495,5.6811,5.8389,6.1912,6.9229,7.1344,7.4426,8.0608,8.272,8.3931,8.4609,8.6885,8.861,8.9326,9.0207,9.1033,9.1767,9.1033,9.0207,8.9436,9.0922,9.1363,9.0629,9.3051,9.4703,9.5492,9.6318,9.6685,9.6685,9.6685,9.6685,0.0,9.4997,9.4299,9.4153,9.2501,9.1803,9.1877,9.2758,9.3602,9.441,9.5198,9.6025,9.6685,9.6685,9.6685,9.6685,9.6685,9.6685,9.6685,9.6685,9.6685,9.6685,9.6685,9.6685,9.6685,9.6685,9.6685,9.6685,9.6685,9.6685,9.6685,9.6685,9.6685,9.6685,9.6685,9.6685,9.6685,9.6685,9.6531,9.6472,9.6666,9.6994,9.7479,9.8317,9.8926,9.9527,10.0092,10.0215,10.0215,10.0215,10.0215,10.0215,10.0215,10.0215,10.0215,10.0215,10.0215,10.0215,10.0215,10.0215,10.0215,10.0215,10.0215,10.0215,10.0215,10.0288,10.1085,4.87,0.0,5.238,5.195,5.1877,5.172,0.0,5.0161,4.9454,4.9003,4.9921,5.1242,5.2664,5.3214,5.5023,5.9722,6.0786,6.3576,7.0917,7.6885,8.1583,8.4352,8.5563,8.6004,8.5563,8.7692,8.9216,8.94,9.0739,9.1583,9.1803,9.1033,9.0207,8.9436,9.0354,9.0812,9.0592,9.3051,9.4703,9.5492,9.6318,9.6685,9.6685,9.6685,9.6685,9.6612,9.4997,9.4299,9.4153,9.2501,9.1803,9.1877,9.2758,9.3602,9.441,9.5198,9.6025,9.6685,9.6685,9.6685,9.6685,9.6685,9.6685,9.6685,9.6685,9.6685,9.6685,9.6685,9.6685,9.6685,9.6685,9.6685,9.6685,9.6685,9.6685,9.6685,9.6685,9.6685,9.6685,9.6685,9.6685,9.6685,9.6685,9.6647,9.6664,9.6685,9.6994,9.7479,9.8317,9.8799,9.9354,10.0107,10.0215,10.0215,10.0215,10.0215,10.0215,10.0215,10.0215,10.0215,10.0215,10.0215,10.0215,10.0215,10.0215,10.0215,10.0215,10.0215,10.0215,10.0215,10.0773,10.17,4.5104,4.7792,5.0225,5.0188,5.0472,5.0692,5.0261,4.9564,4.8857,4.8416,4.9618,5.1169,5.2417,5.4755,5.7361,6.004,6.3319,6.7797,7.4368,7.9968,8.4005,8.56,8.6187,8.6554,8.6848,8.8409,8.9546,8.9913,9.1106,9.1803,9.1803,9.0702,8.984,8.94,8.9436,8.9858,9.0592,9.3051,9.4703,9.5492,9.6318,9.6685,9.6685,9.6685,9.6685,9.6612,9.4997,9.4299,9.4153,9.2501,9.1803,9.1913,9.3161,9.3932,9.4446,9.5621,9.6318,9.6685,9.6685,9.6685,9.6685,9.6685,9.6685,9.6685,9.6685,9.6685,9.6685,9.6685,9.6685,9.6685,9.6685,9.6685,9.6685,9.6685,9.6685,9.6685,9.6685,9.6685,9.6685,9.6685,9.6685,9.6685,9.6685,9.6685,9.6685,9.6685,9.6994,9.7479,9.8317,9.8756,9.931,10.0107,10.0215,10.0215,10.0215,10.0215,10.0215,10.0215,10.0215,10.0215,10.0215,10.0215,10.0215,10.0215,10.0215,10.0215,10.0215,10.0215,10.0215,10.0215,10.0592,10.1483,4.3543,4.6847,5.0004,5.0178,5.0508,5.0765,5.0655,4.9627,4.8663,4.8663,4.9921,5.1463,5.3015,5.6969,6.0199,6.0627,6.6623,7.3046,7.8405,8.1929,8.4409,8.5637,8.5894,8.6518,8.7876,8.8849,8.973,9.0555,9.1363,9.1803,9.1803,9.028,8.94,8.94,8.861,8.8904,9.0408,9.2868,9.4593,9.5492,9.6318,9.6685,9.6685,9.6685,9.6685,9.6612,9.4997,0.0,9.4153,9.2501,9.1877,9.2134,9.3675,9.4373,9.4666,9.6135,9.6685,9.6685,9.6685,9.6685,9.6685,9.6685,9.6685,9.6685,9.6685,9.6685,9.6685,9.6685,9.6685,9.6685,9.6685,9.6685,9.6685,9.6685,9.6685,9.6685,9.6685,9.6685,9.6685,9.6685,9.6685,9.6685,9.6685,9.6685,9.6666,9.6647,9.6974,9.7458,9.8256,9.8735,9.931,10.0107,10.0215,10.0215,10.0215,10.0215,10.0215,10.0215,10.0215,10.0215,10.0215,10.0215,10.0215,10.0215,10.0215,10.0215,10.0215,10.0215,10.0215,10.0215,10.0324,10.1193,4.4745,4.8536,5.0996,4.8333,4.9251,5.0618,4.9931,5.0115,5.0435,5.0435,5.1169,5.3298,5.8217,5.8694,6.0346,6.6426,7.2334,7.7472,8.1122,8.4425,8.6297,8.5874,8.6407,8.6904,8.7178,8.8519,8.973,9.0555,9.1363,9.1803,9.1803,9.028,8.94,8.94,8.861,8.8647,8.9583,9.2042,9.4042,9.5492,9.6318,9.6685,9.6685,9.6685,9.6685,9.6612,0.0,9.4299,9.4153,9.2501,9.2244,9.2978,9.3932,9.4703,9.5437,9.6355,9.6685,9.6685,9.6685,9.6685,9.6685,9.6685,9.6685,9.6685,9.6685,9.6685,9.6685,9.6685,9.6685,9.6685,9.6685,9.6685,9.6685,9.6685,9.6685,9.6685,9.6685,9.6685,9.6685,9.6685,9.6685,9.6685,9.6685,9.6685,9.6628,9.6453,9.6874,9.7454,9.8047,9.8628,9.931,10.0107,10.0215,10.0215,10.0215,10.0215,10.0215,10.0215,10.0215,10.0215,10.0215,10.0215,10.0215,10.0215,10.0215,10.0215,10.0215,10.0215,10.0215,10.0215,10.0903,10.17,4.2902,4.6278,4.9407,4.9691,5.2553,5.5343,5.5427,5.539,5.5233,5.4766,5.5317,5.7079,6.0958,6.3246,6.721,7.5432,7.7818,7.98,8.303,8.4389,8.5233,8.5764,8.6114,8.6848,8.8152,8.8959,8.9913,9.1179,9.1583,9.162,9.1179,9.0024,8.9216,8.8776,8.7986,8.8169,8.94,9.14,9.3235,9.4887,9.6098,9.6685,9.6685,9.6685,9.6685,9.6612,0.0,9.4299,9.4153,9.2501,9.2317,9.3198,9.3969,9.4777,9.5602,9.6392,9.6685,9.6685,9.6685,9.6685,9.6685,9.6685,9.6685,9.6685,9.6685,9.6685,9.6685,9.6685,9.6685,9.6685,9.6685,9.6685,9.6685,9.6685,9.6685,9.6685,9.6685,9.6685,9.6685,9.6685,9.6685,9.6685,9.6685,9.6685,9.6608,9.6414,9.6489,9.6923,9.7969,9.8244,9.8839,10.0107,10.0215,10.0215,10.0215,10.0215,10.0215,10.0215,10.0215,10.0215,10.0215,10.0215,10.0215,10.0215,10.0215,10.0215,10.0215,10.0215,10.0215,10.0215,10.0614,10.1193,4.2306,4.5168,4.8737,5.2024,5.5354,5.8315,6.0236,5.9893,5.9233,5.9391,6.0089,6.1361,6.3783,6.8385,7.4147,8.1379,8.1636,8.1946,8.4756,8.4629,8.4702,8.593,8.6077,8.6958,8.9179,8.94,9.006,9.1693,9.1803,9.1546,9.0922,8.995,8.9106,8.85,8.7545,8.7785,8.9363,9.0996,9.2648,9.4299,9.5914,9.6685,9.6685,9.6685,9.6685,9.6612,9.4997,9.4299,9.4189,9.2721,9.2611,9.3455,9.4263,9.507,9.5859,9.6465,9.6685,9.6685,9.6685,9.6685,9.6685,9.6685,9.6685,9.6685,9.6685,9.6685,9.6685,9.6685,9.6685,9.6685,9.6685,9.6685,9.6685,9.6685,9.6685,9.6685,9.6685,9.6685,9.6685,9.6685,9.6685,9.6685,9.6685,9.6685,9.6608,9.6355,9.612,9.6482,9.7848,9.7896,9.8404,9.9998,10.0215,10.0215,10.0215,10.0215,10.0215,10.0215,10.0215,10.0215,10.0215,10.0215,10.0215,10.0215,10.0215,10.0215,10.0215,10.0215,10.0215,10.0215,10.0215,10.0592,4.5865,4.8553,5.1316,5.4557,5.4473,5.5012,6.0309,6.0297,6.004,6.3025,6.431,6.5582,6.8004,7.3032,7.7509,7.9706,8.2406,8.4866,8.6574,8.6757,8.6757,8.6904,8.6904,8.7565,8.9253,8.94,9.006,9.1693,9.1803,9.1767,9.173,9.0244,8.9363,8.9326,8.7822,8.7785,8.9363,9.1069,9.2703,9.4299,9.5914,9.6685,9.6685,9.6685,9.6685,9.6612,9.4997,9.4299,9.4226,9.3345,9.3492,9.4299,9.5107,9.5914,9.6612,9.6685,9.6685,9.6685,9.6685,9.6685,9.6685,9.6685,9.6685,9.6685,9.6685,9.6685,9.6685,9.6685,9.6685,9.6685,9.6685,9.6685,9.6685,9.6685,9.6685,9.6685,9.6685,9.6685,9.6685,9.6685,9.6685,9.6685,9.6685,9.6685,9.655,9.61,9.602,9.6441,9.7657,9.781,9.8404,9.9998,10.0215,10.0215,10.0215,10.0215,10.0215,10.0215,10.0215,10.0215,10.0215,10.0215,10.0215,10.0215,10.0215,10.0215,10.0215,10.0215,10.0215,10.0215,10.0215,10.0592,4.4378,4.7388,5.0812,5.4032,5.5904,5.8279,6.3466,6.5338,6.6329,6.7577,6.8862,7.022,7.1615,7.7341,8.1709,8.1342,8.3985,8.628,8.6904,8.6978,8.6978,8.6978,8.6978,8.7638,8.9253,8.94,9.006,9.1693,9.1803,9.1363,9.0354,8.973,8.8959,8.7932,8.7802,8.8262,8.94,9.1033,9.2666,9.4299,9.5914,9.6685,9.6685,9.6685,9.6685,9.6612,9.4997,9.4299,9.4226,9.3418,9.3565,9.441,9.5731,9.6428,9.6685,9.6685,9.6685,9.6685,9.6685,9.6685,9.6685,9.6685,9.6685,9.6685,9.6685,9.6685,9.6685,9.6685,9.6685,9.6685,9.6685,9.6685,9.6685,9.6685,9.6685,9.6685,9.6685,9.6685,9.6685,9.6685,9.6685,9.6685,9.6685,9.6589,9.6394,9.606,9.5899,9.6094,9.6926,9.7499,9.8223,9.9346,9.9889,10.0215,10.0215,10.0215,10.0215,10.0215,10.0215,10.0215,10.0215,10.0215,10.0215,10.0215,10.0215,10.0215,10.0215,10.0215,10.0215,10.0215,10.0215,10.0396,4.5305,4.8022,5.1583,5.506,5.7765,6.0921,6.6072,6.8348,6.9867,7.1615,7.2679,7.3744,7.5337,7.969,8.2957,8.2627,8.5086,8.6978,8.6978,8.6978,8.6978,8.6978,8.6978,8.7638,8.9253,8.94,9.006,9.1693,9.1803,9.1216,8.984,8.9546,8.8776,8.7435,8.7912,8.861,8.94,9.1033,9.2648,9.4299,9.5658,9.6465,9.6685,9.6685,9.6685,9.6612,9.4997,9.4299,9.4263,9.3712,9.4116,9.518,9.6282,9.6685,9.6685,9.6685,9.6685,9.6685,9.6685,9.6685,9.6685,9.6685,9.6685,9.6685,9.6685,9.6685,9.6685,9.6685,9.6685,9.6685,9.6685,9.6685,9.6685,9.6685,9.6685,9.6685,9.6685,9.6685,9.6685,9.6685,9.6685,9.6685,9.6685,9.6531,9.6315,9.604,9.5818,9.5903,9.6527,9.7282,9.8223,9.9274,9.9889,10.0215,10.0215,10.0215,10.0215,10.0215,10.0215,10.0215,10.0215,10.0215,10.0215,10.0215,10.0215,10.0215,10.0215,10.0215,10.0215,10.0215,10.0215,10.0215,4.9711,5.1279,5.4168,5.8168,5.982,6.1961,6.7637,6.8311,6.9353,7.4955,7.5506,7.5946,7.9192,7.9816,8.0624,8.3014,8.5436,8.6978,8.6978,8.6978,8.6978,8.6978,8.6978,8.7638,8.9253,8.94,9.006,9.1657,9.1803,9.1436,9.0629,8.9803,8.9033,8.8206,8.8206,8.861,8.94,9.1069,9.2739,9.4299,9.5144,9.5914,9.6685,9.6685,9.6685,9.6612,9.4997,9.4299,9.4299,9.4299,9.5254,9.6685,9.6685,9.6685,9.6685,9.6685,9.6685,9.6685,9.6685,9.6685,9.6685,9.6685,9.6685,9.6685,9.6685,9.6685,9.6685,9.6685,9.6685,9.6685,9.6685,9.6685,9.6685,9.6685,9.6685,9.6685,9.6685,9.6685,9.6685,9.6685,9.6685,9.6685,9.6722,9.6511,9.6315,9.604,9.5818,9.5903,9.6527,9.7282,9.8404,9.9998,10.0215,10.0215,10.0215,10.0215,10.0215,10.0215,10.0215,10.0215,10.0215,10.0215,10.0215,10.0215,10.0215,10.0215,10.0215,10.0215,10.0215,10.0215,10.0215,10.0215,4.6205,4.9994,5.4473,5.6235,6.1557,6.7136,6.9949,7.0844,7.2386,7.69,7.8112,7.8626,7.9633,8.1652,8.3214,8.3381,8.5436,8.6978,8.6978,8.6978,8.6978,8.6978,8.6978,8.7638,8.9253,8.94,8.984,9.0886,9.0959,9.0372,8.8977,8.8683,8.8206,8.7399,8.8445,8.9143,8.94,9.162,9.3272,9.4299,9.5144,9.5914,9.6685,9.6685,9.6392,9.5785,9.474,9.3969,9.3492,9.4079,9.5254,9.6685,9.6685,9.6685,9.6685,9.6685,9.6685,9.6685,9.6685,9.6685,9.6685,9.6685,9.6685,9.6685,9.6685,9.6685,9.6685,9.6685,9.6685,9.6685,9.6685,9.6685,9.6685,9.6685,9.6685,9.6685,9.6685,9.6685,9.6685,9.6685,9.6685,9.6684,9.6492,9.6296,9.604,9.5818,9.5612,9.5772,9.6506,9.7282,9.8187,9.9237,9.9853,10.0215,10.0215,10.0215,10.0215,10.0215,10.0215,10.0215,10.0215,10.0215,10.0215,10.0215,10.0215,10.0215,10.0215,10.0215,10.0215,10.0215,10.0215,10.0215,5.0498,5.4509,5.8731,6.0835,6.5154,6.9655,7.2555,7.4111,7.5726,7.8479,7.9449,8.0183,8.1452,8.303,8.4278,8.4739,8.606,8.6978,8.6978,8.6978,8.6978,8.6978,8.6978,8.7638,8.9253,8.94,8.9877,9.0996,9.0776,9.0041,8.8757,8.839,8.7986,8.7509,8.8739,8.9546,8.9877,9.2024,9.3492,9.4299,9.5144,9.5914,9.6685,9.6685,9.6282,9.5455,9.4666,9.4006,9.3639,9.4446,9.5547,9.6685,9.6685,9.6685,9.6685,9.6685,9.6685,9.6685,9.6685,9.6685,9.6685,9.6685,9.6685,9.6685,9.6685,9.6685,9.6685,9.6685,9.6685,9.6685,9.6685,9.6685,9.6685,9.6685,9.6685,9.6685,9.6685,9.6685,9.6666,9.6589,9.657,9.6492,9.6296,9.602,9.5838,9.5715,9.5508,9.5709,9.6485,9.7282,9.8115,9.8911,9.9708,10.0215,10.0215,10.0215,10.0215,10.0215,10.0215,10.0215,10.0215,10.0215,10.0215,10.0215,10.0215,10.0215,10.0215,10.0215,10.0215,10.0215,10.0215,10.0215,5.8437,6.163,6.491,6.8715,6.9559,7.0646,7.5285,7.7561,7.8919,7.9669,7.9963,8.1064,8.4058,8.4058,8.4372,8.6611,8.6978,8.6978,8.6978,8.6978,8.6978,8.6978,8.6978,8.7638,8.9253,8.94,9.0024,9.1583,9.1033,9.0207,8.9326,8.861,8.8206,8.8206,8.8959,8.9803,9.0592,9.2354,9.3565,9.4299,9.518,9.5988,9.6685,9.6685,9.6208,9.5345,9.4556,9.4226,9.4373,9.518,9.5969,9.6685,9.6685,9.6685,9.6685,9.6685,9.6685,9.6685,9.6685,9.6685,9.6685,9.6685,9.6685,9.6685,9.6685,9.6685,9.6685,9.6685,9.6685,9.6685,9.6685,9.6685,9.6685,9.6685,9.6685,9.6685,9.6685,9.6703,9.6608,9.6414,9.6375,9.6276,9.602,9.5818,9.5695,9.5674,9.5545,9.5673,9.6376,9.7173,9.8006,9.8803,9.96,10.0107,10.0215,10.0215,10.0215,10.0215,10.0215,10.0215,10.0215,10.0215,10.0215,10.0215,10.0215,10.0215,10.0215,10.0215,10.0215,10.0215,10.0215,10.0215,5.1657,5.7373,6.36,6.5802,6.9986,7.439,7.7378,7.8809,7.9596,7.9779,8.1305,8.303,8.4352,8.4976,8.5673,8.6794,8.6978,8.6978,8.6978,8.6978,8.6978,8.6978,8.6978,8.7638,8.9253,8.94,8.9803,9.0776,9.0702,8.9968,8.8536,8.828,8.8206,8.8206,8.8959,8.9803,9.0592,9.2905,9.4116,9.4299,9.5768,9.6539,9.6685,9.6685,9.5914,9.452,9.3712,9.3712,9.4373,9.518,9.5969,9.6685,9.6685,9.6685,9.6685,9.6685,9.6685,9.6685,9.6685,9.6685,9.6685,9.6685,9.6685,9.6685,9.6685,9.6685,9.6685,9.6685,9.6685,9.6685,9.6685,9.6685,9.6685,9.6685,9.6685,9.6685,9.6685,9.657,9.6433,9.6394,9.6236,9.602,9.5797,9.5715,9.5633,9.5467,9.544,9.5456,9.5637,9.6361,9.7173,9.797,9.8767,9.9527,10.0085,10.0215,10.0215,10.0215,10.0215,10.0215,10.0215,10.0215,10.0215,10.0215,10.0215,10.0215,10.0215,10.0215,10.0215,10.0215,10.0215,10.0215,5.4546,5.9575,6.4457,6.8811,7.2408,7.5527,7.8038,7.9213,7.9926,8.0277,8.1672,8.3177,8.4389,8.4939,8.56,8.6811,8.6978,8.6978,8.6978,8.6978,8.6978,8.6978,8.6978,8.7638,8.9253,8.94,8.9877,9.1106,9.0812,9.0225,8.9381,8.861,8.8536,8.9307,8.9363,8.995,9.1179,9.3235,9.4299,9.4299,9.5914,9.6502,9.6098,9.5731,9.507,9.4263,9.3859,9.3896,9.4373,9.5584,9.6318,9.6685,9.6685,9.6685,9.6685,9.6685,9.6685,9.6685,9.6685,9.6685,9.6685,9.6685,9.6685,9.6685,9.6685,9.6685,9.6685,9.6685,9.6685,9.6685,9.6685,9.6685,9.6685,9.6685,9.6685,9.6685,9.6685,9.6531,9.6355,9.6236,9.6,9.5797,9.5571,9.555,9.5508,9.544,9.5419,9.5419,9.5419,9.6108,9.6919,9.7716,9.8513,9.9346,10.0107,10.0215,10.0215,10.0215,10.0215,10.0215,10.0215,10.0215,10.0215,10.0215,10.0215,10.0215,10.0215,10.0215,10.0215,10.0215,10.0215,10.0215,5.8279,6.2475,6.5999,7.3105,7.4903,7.5601,7.8222,7.9339,8.0073,8.1012,8.1856,8.2847,8.4315,8.4719,8.5306,8.6757,8.6978,8.6978,8.6978,8.6978,8.6978,8.6978,8.6978,8.7638,8.9253,8.94,9.006,9.1693,9.1179,9.0739,9.0629,8.9197,8.9087,9.0555,8.9803,9.017,9.1767,9.3455,9.4299,9.4299,9.5914,9.6282,9.5455,9.4666,9.4226,9.4079,9.4226,9.4299,9.441,9.6025,9.6685,9.6685,9.6685,9.6685,9.6685,9.6685,9.6685,9.6685,9.6685,9.6685,9.6685,9.6685,9.6685,9.6685,9.6685,9.6685,9.6685,9.6685,9.6685,9.6685,9.6685,9.6685,9.6685,9.6685,9.6685,9.6685,9.6685,9.6492,9.6276,9.604,9.5797,9.5592,9.544,9.5419,9.5419,9.5419,9.5419,9.5419,9.5419,9.5999,9.6702,9.7499,9.8296,9.9129,9.9926,10.0107,10.0215,10.0215,10.0215,10.0215,10.0215,10.0215,10.0215,10.0215,10.0215,10.0215,10.0215,10.0215,10.0215,10.0215,10.0215,10.0215,5.1636,5.8657,6.6719,7.3252,7.4903,7.5711,7.8935,7.9706,8.022,8.1709,8.27,8.3528,8.4425,8.5159,8.593,8.6831,8.6978,8.6978,8.6978,8.6978,8.6978,8.6978,8.6978,8.7638,8.9253,8.94,9.006,9.1693,9.1693,9.1326,9.0629,8.973,8.9657,9.0592,8.9803,9.017,9.1767,9.3455,9.4299,9.4299,9.5914,9.6282,9.5455,9.4666,9.3932,9.3308,9.4006,9.4299,9.441,9.6025,9.6685,9.6685,9.6685,9.6685,9.6685,9.6685,9.6685,9.6685,9.6685,9.6685,9.6685,9.6685,9.6685,9.6685,9.6685,9.6685,9.6685,9.6685,9.6685,9.6685,9.6685,9.6685,9.6685,9.6685,9.6685,9.6685,9.6685,9.6375,9.604,9.602,9.5695,9.544,9.5419,9.5419,9.5419,9.5419,9.5419,9.5419,9.5419,9.5492,9.589,9.6666,9.7463,9.8296,9.9093,9.9817,10.0215,10.0215,10.0215,10.0215,10.0215,10.0215,10.0215,10.0215,10.0215,10.0215,10.0215,10.0215,10.0215,10.0215,10.0215,10.0215,5.3581,6.0627,6.743,7.3399,7.4903,7.5747,7.9045,7.9816,8.0257,8.1856,8.2847,8.3638,8.4462,8.527,8.604,8.6867,8.6978,8.6978,8.6978,8.6978,8.6978,8.6978,8.6978,8.7638,8.9253,8.94,9.006,9.1693,9.1363,9.0959,9.0629,8.9417,8.9307,9.0537,8.9803,9.017,9.1767,9.3015,9.4079,9.4979,9.6135,9.6025,9.4813,9.4446,9.4116,9.3786,9.4153,9.4556,9.507,9.6208,9.6685,9.6685,9.6685,9.6685,9.6685,9.6685,9.6685,9.6685,9.6685,9.6685,9.6685,9.6685,9.6685,9.6685,9.6685,9.6685,9.6685,9.6685,9.6685,9.6685,9.6685,9.6685,9.6685,9.6685,9.6685,9.6685,9.6685,9.6453,9.6157,9.5879,9.5592,9.5419,9.5419,9.5419,9.5419,9.5419,9.5419,9.5419,9.5419,9.5419,9.5709,9.6506,9.7318,9.8115,9.8948,9.9744,10.0215,10.0215,10.0215,10.0215,10.0215,10.0215,10.0215,10.0215,10.0215,10.0215,10.0215,10.0215,10.0215,10.0215,10.0215,10.0215,5.4682,6.0346,6.5044,7.1711,7.3509,7.4771,7.8862,7.9816,8.0257,8.1856,8.2994,8.3895,8.4499,8.527,8.604,8.6867,8.6978,8.6978,8.6978,8.6978,8.6978,8.6978,8.6978,8.7638,8.9253,8.94,9.006,9.1693,9.1069,9.0592,9.0592,8.9087,8.894,9.0555,8.9803,9.017,9.1767,9.2868,9.4116,9.553,9.6098,9.5658,9.4299,9.4079,9.4116,9.4299,9.4299,9.4777,9.5565,9.6392,9.6685,9.6685,9.6685,9.6685,9.6685,9.6685,9.6685,9.6685,9.6685,9.6685,9.6685,9.6685,9.6685,9.6685,9.6685,9.6685,9.6685,9.6685,9.6685,9.6685,9.6685,9.6685,9.6685,9.6685,9.6685,9.6647,9.655,9.6414,9.6177,9.5695,9.5488,9.5419,9.5419,9.5419,9.5419,9.5419,9.5419,9.5419,9.5419,9.5419,9.5637,9.6231,9.7209,9.8042,9.8622,9.9636,10.0215,10.0215,10.0215,10.0215,10.0215,10.0215,10.0215,10.0215,10.0215,10.0215,10.0215,10.0215,10.0215,10.0215,10.0215,10.0215,5.0739,5.3665,5.7299,6.683,6.9779,7.2018,7.8348,7.9816,8.0257,8.1856,8.3434,8.4535,8.4609,8.527,8.604,8.6867,8.6978,8.6978,8.6978,8.6978,8.6978,8.6978,8.6978,8.7638,8.9253,8.94,9.006,9.1693,9.1069,9.0592,9.0592,8.9087,8.894,9.0555,8.9803,9.017,9.1767,9.3418,9.4666,9.5492,9.5528,9.5144,9.4263,9.3529,9.3565,9.4299,9.4299,9.4777,9.5565,9.6392,9.6685,9.6685,9.6685,9.6685,9.6685,9.6685,9.6685,9.6685,9.6685,9.6685,9.6685,9.6685,9.6685,9.6685,9.6685,9.6685,9.6685,9.6685,9.6685,9.6685,9.6685,9.6685,9.6685,9.6685,9.6685,9.657,9.612,9.604,9.5899,9.5467,9.5419,9.5419,9.5419,9.5419,9.5419,9.5419,9.5419,9.5419,9.5419,9.5419,9.5419,9.5456,9.6847,9.7825,9.7861,9.931,10.0215,10.0215,10.0215,10.0215,10.0215,10.0215,10.0215,10.0215,10.0215,10.0215,10.0215,10.0215,10.0215,10.0215,10.0215,10.0215,4.9197,5.2391,5.5978,6.2585,6.6806,7.0477,7.4896,7.7907,8.0257,8.1856,8.3471,8.4609,8.4609,8.5673,8.6664,8.6941,8.6978,8.6978,8.6978,8.6978,8.6978,8.6978,8.6978,8.7418,8.8536,8.9106,8.984,9.0959,9.028,8.984,8.984,8.8299,8.7949,8.9014,8.929,9.017,9.1767,9.3455,9.4446,9.474,9.5235,9.507,9.4263,9.3455,9.3529,9.4299,9.4299,9.5034,9.6282,9.6575,9.6685,9.6685,9.6685,9.6685,9.6685,9.6685,9.6685,9.6685,9.6685,9.6685,9.6685,9.6685,9.6685,9.6685,9.6685,9.6685,9.6685,9.6685,9.6685,9.6685,9.6685,9.6685,9.6685,9.6685,9.6685,9.6608,9.6335,9.61,9.5919,9.5633,9.5467,9.5419,9.5419,9.5419,9.5419,9.5419,9.5419,9.5419,9.5419,9.5419,9.5419,9.5419,9.6847,9.7789,9.7789,9.9274,10.0215,10.0215,10.0215,10.0215,10.0215,10.0215,10.0215,10.0215,10.0215,10.0215,10.0215,10.0215,10.0215,10.0215,10.0215,10.0215,4.6333,4.9297,5.2968,5.8914,6.2438,6.6145,7.2642,7.5799,7.8185,8.1195,8.3067,8.4278,8.4535,8.571,8.6701,8.6941,8.6978,8.6978,8.6978,8.6978,8.6978,8.6978,8.6978,8.7308,8.8133,8.8923,8.962,9.017,8.9693,8.929,8.8996,8.7711,8.7509,8.8573,8.9363,9.0427,9.1803,9.3455,9.4299,9.4299,9.485,9.4813,9.4263,9.3161,9.3272,9.4299,9.4299,9.5217,9.6685,9.6685,9.6685,9.6685,9.6685,9.6685,9.6685,9.6685,9.6685,9.6685,9.6685,9.6685,9.6685,9.6685,9.6685,9.6685,9.6685,9.6685,9.6685,9.6685,9.6685,9.6685,9.6685,9.6685,9.6685,9.6685,9.6685,9.6628,9.6433,9.6216,9.5939,9.5736,9.5529,9.5419,9.5419,9.5419,9.5419,9.5419,9.5419,9.5419,9.5419,9.5419,9.5419,9.5419,9.6593,9.7499,9.7789,9.902,9.9926,10.0215,10.0215,10.0215,10.0215,10.0215,10.0215,10.0215,10.0215,10.0215,10.0215,10.0215,10.0215,10.0215,10.0215,10.0002,0.0,0.0,0.0,5.5721,5.6613,5.8889,7.1527,7.3325,7.3927,7.9653,8.2096,8.3491,8.4425,8.527,8.604,8.6867,8.6978,8.6978,8.6978,8.6978,8.6978,8.6978,8.6978,8.7325,8.8096,8.8923,8.94,8.94,8.94,8.9069,8.828,8.7472,8.7748,8.9363,9.017,9.0959,9.1803,9.3455,9.4299,9.4263,9.4299,9.4299,9.4189,9.2537,9.2721,9.4299,9.4299,9.5217,9.6685,9.6685,9.6685,9.6685,9.6685,9.6685,9.6685,9.6685,9.6685,9.6685,9.6685,9.6685,9.6685,9.6685,9.6685,9.6685,9.6685,9.6685,9.6685,9.6685,9.6685,9.6685,9.6685,9.6685,9.6685,9.6685,9.6685,9.6628,9.6433,9.6216,9.5939,9.5736,9.5529,9.5419,9.5419,9.5419,9.5419,9.5419,9.5419,9.5419,9.5419,9.5419,9.5419,9.5419,9.6144,9.6919,9.7716,9.8549,9.9346,10.0085,10.0215,10.0215,10.0215,10.0215,10.0215,10.0215,10.0215,10.0215,10.0215,10.0215,10.0215,10.0215,10.0215,9.9591,4.1544,0.0,0.0,0.0,0.0,0.0,6.2205,6.5962,6.9779,7.5417,7.7876,8.0151,8.3911,8.527,8.604,8.6867,8.6978,8.6978,8.6978,8.6978,8.6978,8.6978,8.6978,8.7088,8.7325,8.8592,8.94,0.0,8.94,8.929,8.9069,8.7748,8.7748,8.9363,8.962,9.0408,9.1803,9.3455,9.4006,9.3455,9.4006,9.4006,9.3382,9.2281,9.2721,9.4299,9.4299,9.5217,9.6685,9.6685,9.6685,9.6685,9.6685,9.6685,9.6685,9.6685,9.6685,9.6685,9.6685,9.6685,9.6685,9.6685,9.6685,9.6685,9.6685,9.6685,9.6685,9.6685,9.6685,9.6685,9.6685,9.6685,9.6685,9.6685,9.6685,9.6628,9.6433,9.6216,9.5939,9.5736,9.5529,9.5419,9.5419,9.5419,9.5419,9.5419,9.5419,9.5419,9.5419,9.5419,9.5419,9.5419,9.6144,9.6919,9.7716,9.8549,9.9346,10.0085,10.0215,10.0215,10.0215,10.0215,10.0215,10.0215,10.0215,10.0215,10.0215,10.0215,10.0215,10.0215,10.0215,9.9591,4.2323,4.3975,4.6324,4.8186,0.0,0.0,6.0591,6.3943,6.7577,7.4918,7.7729,7.9821,8.2994,8.4535,8.5563,8.6371,8.6775,8.6978,8.6978,8.6978,8.6978,8.6978,8.6978,8.6978,8.6978,8.8445,8.9253,8.8923,8.9216,8.9106,8.8445,8.7491,8.7748,8.9363,8.94,9.017,9.1767,9.3455,9.3896,9.3125,9.3932,9.3859,9.3088,9.2207,9.2721,9.4299,9.4299,9.5217,9.6685,9.6685,9.6685,9.6685,9.6685,9.6685,9.6685,9.6685,9.6685,9.6685,9.6685,9.6685,9.6685,9.6685,9.6685,9.6685,9.6685,9.6685,9.6685,9.6685,9.6685,9.6685,9.6685,9.6685,9.6685,9.6685,9.6685,9.6628,9.6433,9.6216,9.5939,9.5736,9.5529,9.5419,9.5419,9.5419,9.5419,9.5419,9.5419,9.5419,9.5419,9.5419,9.5419,9.5419,9.5818,9.6412,9.7209,9.8042,9.8839,9.9636,9.9998,10.0215,10.0215,10.0215,10.0215,10.0215,10.0215,10.0215,10.0215,10.0215,10.0215,10.0215,10.0215,9.9327,4.3822,4.4684,4.6606,4.9634,4.8881,0.0,6.1985,6.3723,6.5448,7.4441,7.7598,7.9103,8.0351,8.1966,8.3361,8.4058,8.5416,8.65,8.6941,8.6978,8.6978,8.6978,8.6978,8.6978,8.6978,8.8372,8.8996,8.839,8.8996,8.8702,8.7088,8.7088,8.7785,8.9216,8.9436,9.0244,9.1803,9.3455,9.3896,9.3125,9.3932,9.3822,9.2941,9.2134,9.2721,9.4299,9.4299,9.5217,9.6685,9.6685,9.6685,9.6685,9.6685,9.6685,9.6685,9.6685,9.6685,9.6685,9.6685,9.6685,9.6685,9.6685,9.6685,9.6685,9.6685,9.6685,9.6685,9.6685,9.6685,9.6685,9.6685,9.6685,9.6685,9.6685,9.6685,9.6628,9.6394,9.616,9.5939,9.5715,9.5508,9.5419,9.5419,9.5419,9.5419,9.5419,9.5419,9.5419,9.5419,9.5419,9.5419,9.5419,9.5419,9.5745,9.6542,9.7318,9.8151,9.8948,9.9744,10.0215,10.0215,10.0215,10.0215,10.0215,10.0215,10.0215,10.0215,10.0215,10.0215,10.0215,10.0215,9.9095,4.4499,4.4756,4.601,4.7453,4.8642,0.0,5.2381,5.4142,5.659,6.108,6.3282,6.5668,6.9793,7.2386,7.3949,7.4096,7.8662,8.3324,8.6537,8.6978,8.6978,8.6978,8.6978,8.6978,8.6978,8.7876,8.8647,8.9143,8.9326,8.8702,8.7088,8.7619,8.8096,8.8426,8.9711,9.0849,9.1803,9.3455,9.3896,9.3125,9.3932,9.3492,9.206,9.1877,9.2721,9.4299,9.4299,9.5217,9.6685,9.6685,9.6685,9.6685,9.6685,9.6685,9.6685,9.6685,9.6685,9.6685,9.6685,9.6685,9.6685,9.6685,9.6685,9.6685,9.6685,9.6685,9.6685,9.6685,9.6685,9.6685,9.6685,9.6685,9.6685,9.6685,9.6685,9.6589,9.616,9.604,9.5899,9.5508,9.544,9.5419,9.5419,9.5419,9.5419,9.5419,9.5419,9.5419,9.5419,9.5419,9.5419,9.5419,9.5419,9.5745,9.6542,9.7318,9.8151,9.8948,9.9744,10.0215,10.0215,10.0215,10.0215,10.0215,10.0215,10.0215,10.0215,10.0215,10.0215,10.0215,10.0215,9.9477,4.5814,4.5787,4.6936,4.7421,4.8453,0.0,0.0,5.347,5.5592,5.9773,6.1482,6.3135,6.5962,6.8164,6.9633,7.0022,7.5197,7.9307,7.9711,8.3931,8.6978,8.6978,8.6978,8.6978,8.6978,8.7729,8.839,8.8776,8.9179,8.8702,8.7088,8.7399,8.7986,8.8776,8.9583,9.0592,9.1803,9.3051,9.3272,9.2464,9.3308,9.3015,9.1803,9.1803,9.2721,9.4299,9.4299,9.5217,9.6685,9.6685,9.6685,9.6685,9.6685,9.6685,9.6685,9.6685,9.6685,9.6685,9.6685,9.6685,9.6685,9.6685,9.6685,9.6685,9.6685,9.6685,9.6685,9.6685,9.6685,9.6685,9.6685,9.6685,9.6685,9.6685,9.6685,9.657,9.61,9.6,9.5879,9.5503,9.5419,9.5419,9.5419,9.5419,9.5419,9.5419,9.5419,9.5419,9.5419,9.5419,9.5419,9.5419,9.5419,9.5564,9.5963,9.6738,9.7354,9.7789,9.8948,9.96,9.96,9.9998,10.0215,10.0215,10.0215,10.0215,10.0215,10.0215,10.0215,10.0215,10.0215,9.9591,4.7725,4.7571,4.8722,4.8436,4.9047,5.0477,0.0,0.0,0.0,5.9574,6.0808,6.1434,6.234,6.3833,6.5081,6.5558,7.0646,7.3509,7.0587,7.8002,8.3911,8.4372,8.582,8.6554,8.5877,8.6444,8.7142,8.7912,8.7858,8.7565,8.7014,8.7124,8.7748,8.8886,8.94,9.017,9.1326,9.2501,9.2648,9.1803,9.2684,9.2648,9.1803,9.1803,9.2721,9.4299,9.4299,9.5217,9.6685,9.6685,9.6685,9.6685,9.6685,9.6685,9.6685,9.6685,9.6685,9.6685,9.6685,9.6685,9.6685,9.6685,9.6685,9.6685,9.6685,9.6685,9.6685,9.6685,9.6685,9.6685,9.6685,9.6685,9.6685,9.6685,9.6685,9.657,9.61,9.6,9.5879,9.5503,9.5419,9.5419,9.5419,9.5419,9.5419,9.5419,9.5419,9.5419,9.5419,9.5419,9.5419,9.5419,9.5419,9.5419,9.5419,9.6144,9.6593,9.6593,9.797,9.8839,9.8984,9.9781,10.0215,10.0215,10.0215,10.0215,10.0215,10.0215,10.0215,10.0215,10.0215,9.9718,5.0449,5.0339,5.1237,4.998,5.1598,5.2713,4.9779,0.0,5.0025,4.9992,0.0,5.0937,5.2197,0.0,0.0,5.4032,5.982,6.382,6.2034,6.7687,7.2789,7.497,8.1578,8.4829,8.1966,8.1782,8.3324,8.6867,8.3911,8.3434,8.6794,8.7692,8.7839,8.7271,8.9326,9.0207,8.9693,9.195,9.2648,9.1803,9.2684,9.2648,9.1803,9.1803,9.2721,9.4299,9.4299,9.5217,9.6685,9.6685,9.6685,9.6685,9.6685,9.6685,9.6685,9.6685,9.6685,9.6685,9.6685,9.6685,9.6685,9.6685,9.6685,9.6685,9.6685,9.6685,9.6685,9.6685,9.6685,9.6685,9.6685,9.6685,9.6685,9.6685,9.6685,9.657,9.61,9.6,9.5879,9.5503,9.5419,9.5419,9.5419,9.5419,9.5419,9.5419,9.5419,9.5419,9.5419,9.5419,9.5419,9.5419,9.5419,9.5419,9.5419,9.6144,9.6593,9.6593,9.7427,9.826,9.8984,9.9781,10.0215,10.0215,10.0215,10.0215,10.0215,10.0215,10.0215,10.0215,10.0215,10.0113,5.0159,5.1231,5.2788,4.9965,5.1692,5.2989,4.871,4.7803,4.7957,4.8132,0.0,0.0,0.0,0.0,0.0,0.0,5.6492,5.8951,5.5941,6.2732,6.9082,7.1982,0.0,0.0,7.947,8.0461,8.248,0.0,8.3434,8.3251,8.6794,8.7308,8.7582,8.7692,8.8683,8.9253,8.94,9.0904,9.1473,9.1106,9.195,9.2134,9.1803,9.1803,9.2721,9.4299,9.4299,9.5217,9.6685,9.6685,9.6685,9.6685,9.6685,9.6685,9.6685,9.6685,9.6685,9.6685,9.6685,9.6685,9.6685,9.6685,9.6685,9.6685,9.6685,9.6685,9.6685,9.6685,9.6685,9.6685,9.6685,9.6685,9.6685,9.6685,9.6685,9.657,9.61,9.6,9.5879,9.5503,9.5419,9.5419,9.5419,9.5419,9.5419,9.5419,9.5419,9.5419,9.5419,9.5419,9.5419,9.5419,9.5419,9.5419,9.5419,9.5709,9.589,9.589,9.6687,9.768,9.8948,9.931,9.9708,10.0215,10.0215,10.0215,10.0215,10.0215,10.0215,10.0193,9.9523,9.9569,5.172,5.3287,5.488,5.0206,5.1297,5.2418,4.8159,4.7318,4.7534,4.7986,4.838,0.0,0.0,0.0,5.0151,5.0875,0.0,5.4509,5.1132,5.7116,6.3062,6.6279,6.8444,0.0,0.0,0.0,0.0,0.0,0.0,8.1856,8.6444,8.6867,8.7288,8.7839,8.8316,8.872,8.9069,9.0298,9.0812,9.0629,9.1436,9.1803,9.1803,9.1803,9.2721,9.4299,9.4299,9.5217,9.6685,9.6685,9.6685,9.6685,9.6685,9.6685,9.6685,9.6685,9.6685,9.6685,9.6685,9.6685,9.6685,9.6685,9.6685,9.6685,9.6685,9.6685,9.6685,9.6685,9.6685,9.6685,9.6685,9.6685,9.6685,9.6685,9.6685,9.6589,9.618,9.606,9.5899,9.5529,9.5461,9.5419,9.5419,9.5419,9.5419,9.5419,9.5419,9.5419,9.5419,9.5419,9.5419,9.5419,9.5419,9.5419,9.5419,9.5419,9.5419,9.5419,9.618,9.7101,9.8296,9.8767,9.9274,9.9853,10.0107,10.0215,10.0215,10.0215,10.0215,10.0193,9.9012,9.8942,5.6996,5.757,5.8164,5.1296,5.0878,5.1233,4.7725,4.786,4.8597,4.8104,4.9816,5.1344,5.1182,5.093,5.0251,4.8663,4.9233,0.0,0.0,4.893,5.1326,5.4546,6.119,0.0,0.0,6.8752,0.0,0.0,0.0,0.0,8.5433,8.6591,8.7014,8.7014,8.8556,8.8996,8.8243,9.0592,9.1363,9.0629,9.1436,9.1803,9.1803,9.1803,9.2721,9.4299,9.4299,9.5217,9.6685,9.6685,9.6685,9.6685,9.6685,9.6685,9.6685,9.6685,9.6685,9.6685,9.6685,9.6685,9.6685,9.6685,9.6685,9.6685,9.6685,9.6685,9.6685,9.6685,9.6685,9.6685,9.6685,9.6685,9.6685,9.6685,9.6685,9.6628,9.6414,9.616,9.5939,9.5715,9.5529,9.5419,9.5419,9.5419,9.5419,9.5419,9.5419,9.5419,9.5419,9.5419,9.5419,9.5419,9.5419,9.5419,9.5419,9.5419,9.5419,9.5419,9.618,9.6593,9.6666,9.8151,9.902,9.9056,9.9817,10.0215,10.0215,10.0215,10.0215,10.0193,9.9012,9.8527,0.0,0.0,6.2993,5.6075,5.5517,5.5131,4.9222,4.8355,4.855,4.7696,4.9641,5.1315,5.0761,5.0737,5.0618,5.0068,4.9747,4.883,0.0,4.7232,4.9361,5.3141,5.9098,6.3392,0.0,0.0,0.0,0.0,0.0,0.0,0.0,8.604,8.6444,8.6978,8.8059,8.85,8.8206,9.0078,9.0886,9.0629,9.1436,9.1803,9.1803,9.1803,9.2721,9.4299,9.4299,9.5217,9.6685,9.6685,9.6685,9.6685,9.6685,9.6685,9.6685,9.6685,9.6685,9.6685,9.6685,9.6685,9.6685,9.6685,9.6685,9.6685,9.6685,9.6685,9.6685,9.6685,9.6685,9.6685,9.6685,9.6685,9.6685,9.6685,9.6685,9.6589,9.6236,9.606,9.5899,9.555,9.5461,9.5419,9.5419,9.5419,9.5419,9.5419,9.5419,9.5419,9.5419,9.5419,9.5419,9.5419,9.5419,9.5419,9.5419,9.5419,9.5419,9.5419,9.5673,9.6035,9.6579,9.7101,9.7897,9.8984,9.9274,9.9672,10.0215,10.0215,10.0215,10.0207,9.8311,9.7835,6.3791,6.5497,0.0,5.9564,5.8909,0.0,5.197,5.1329,5.1687,5.0502,5.1425,5.299,5.4666,5.2773,5.1203,5.1946,5.0178,0.0,0.0,4.6425,4.8177,5.1122,5.5684,5.9501,0.0,0.0,0.0,0.0,0.0,0.0,0.0,0.0,8.6151,8.6978,8.7766,8.8353,8.861,8.9931,9.0739,9.1033,9.1546,9.1803,9.1803,9.1803,9.2721,9.4299,9.4299,9.5217,9.6685,9.6685,9.6685,9.6685,9.6685,9.6685,9.6685,9.6685,9.6685,9.6685,9.6685,9.6685,9.6685,9.6685,9.6685,9.6685,9.6685,9.6685,9.6685,9.6685,9.6685,9.6685,9.6685,9.6685,9.6685,9.6685,9.6664,9.6511,9.6236,9.6,9.5818,9.555,9.5461,9.5419,9.5419,9.5419,9.5419,9.5419,9.5419,9.5419,9.5419,9.5419,9.5419,9.5419,9.5419,9.5419,9.5419,9.5419,9.5419,9.5419,9.5419,9.5637,9.6144,9.6449,9.7064,9.8115,9.8441,9.8839,9.9346,9.9636,9.9781,9.9737,9.7827,9.7249]}]]